Logo
 


Wetterdaten - Freitag, 15.02.2019 - Rheinberg-Annaberg     25 m ber NN private Wetterstation Rheinberg/Angaben ohne Gewhr!
Wetterdaten: aktuell Freitag, 15.02.2019 23:55
Datum Zeit Temp. A. Feuchte A. Luftdruck Regen Wind Richtung Richtung Sonnenschein ET UV Solar Taupunkt Windchill Windben Empfang
15.02.2019 23:55 8,9 C 61 % 1026,7 hPa 0,0 l/m 4,5 km/h SO 141 0 min 0,000 mm 0,0 UV-I 0 W/m 1,8 C 8,9 C 9,6 km/h 100,00 %
15.02.2019 23:54 9,0 C 61 % 1026,7 hPa 0,0 l/m 3,9 km/h SO 134 0 min 0,000 mm 0,0 UV-I 0 W/m 1,9 C 9,0 C 7,7 km/h 95,65 %
15.02.2019 23:53 9,0 C 61 % 1026,7 hPa 0,0 l/m 3,0 km/h SO 140 0 min 0,000 mm 0,0 UV-I 0 W/m 1,9 C 9,0 C 7,7 km/h 96,30 %
15.02.2019 23:52 9,1 C 61 % 1026,7 hPa 0,0 l/m 5,1 km/h SO 136 0 min 0,000 mm 0,0 UV-I 0 W/m 2,0 C 9,1 C 7,7 km/h 100,00 %
15.02.2019 23:51 9,1 C 61 % 1026,7 hPa 0,0 l/m 3,4 km/h SO 126 0 min 0,000 mm 0,0 UV-I 0 W/m 2,0 C 9,1 C 7,7 km/h 95,83 %
15.02.2019 23:50 9,1 C 61 % 1026,7 hPa 0,0 l/m 5,5 km/h S-SO 157 0 min 0,000 mm 0,0 UV-I 0 W/m 2,0 C 9,1 C 9,6 km/h 100,00 %
15.02.2019 23:49 9,1 C 61 % 1026,7 hPa 0,0 l/m 5,7 km/h SO 143 0 min 0,000 mm 0,0 UV-I 0 W/m 2,0 C 9,1 C 9,6 km/h 96,55 %
15.02.2019 23:48 9,1 C 61 % 1026,7 hPa 0,0 l/m 6,0 km/h SO 145 0 min 0,000 mm 0,0 UV-I 0 W/m 2,0 C 9,1 C 9,6 km/h 100,00 %
15.02.2019 23:47 9,1 C 61 % 1026,7 hPa 0,0 l/m 4,5 km/h SO 133 0 min 0,000 mm 0,0 UV-I 0 W/m 2,0 C 9,1 C 7,7 km/h 95,65 %
15.02.2019 23:46 9,2 C 61 % 1026,7 hPa 0,0 l/m 4,7 km/h O-SO 123 0 min 0,000 mm 0,0 UV-I 0 W/m 2,1 C 9,2 C 5,7 km/h 96,30 %
15.02.2019 23:45 9,1 C 61 % 1026,7 hPa 0,0 l/m 6,3 km/h SO 139 0 min 0,000 mm 0,0 UV-I 0 W/m 2,0 C 9,1 C 13,4 km/h 100,00 %
15.02.2019 23:44 9,2 C 61 % 1026,7 hPa 0,0 l/m 3,2 km/h S-SO 157 0 min 0,000 mm 0,0 UV-I 0 W/m 2,1 C 9,2 C 5,7 km/h 96,30 %
15.02.2019 23:43 9,2 C 61 % 1026,7 hPa 0,0 l/m 4,6 km/h O-SO 116 0 min 0,000 mm 0,0 UV-I 0 W/m 2,1 C 9,2 C 7,7 km/h 100,00 %
15.02.2019 23:42 9,2 C 61 % 1026,7 hPa 0,0 l/m 4,8 km/h SO 139 0 min 0,000 mm 0,0 UV-I 0 W/m 2,1 C 9,2 C 7,7 km/h 95,83 %
15.02.2019 23:41 9,2 C 60 % 1026,7 hPa 0,0 l/m 5,6 km/h SO 124 0 min 0,000 mm 0,0 UV-I 0 W/m 1,8 C 9,2 C 13,4 km/h 100,00 %
15.02.2019 23:40 9,2 C 60 % 1026,7 hPa 0,0 l/m 3,4 km/h SO 145 0 min 0,000 mm 0,0 UV-I 0 W/m 1,8 C 9,2 C 5,7 km/h 95,83 %
15.02.2019 23:39 9,3 C 60 % 1026,7 hPa 0,0 l/m 2,8 km/h S-SO 149 0 min 0,000 mm 0,0 UV-I 0 W/m 1,9 C 9,3 C 3,8 km/h 96,15 %
15.02.2019 23:38 9,3 C 60 % 1026,7 hPa 0,0 l/m 3,2 km/h S-SO 150 0 min 0,000 mm 0,0 UV-I 0 W/m 1,9 C 9,3 C 5,7 km/h 100,00 %
15.02.2019 23:37 9,3 C 60 % 1026,7 hPa 0,0 l/m 2,3 km/h S-SO 150 0 min 0,000 mm 0,0 UV-I 0 W/m 1,9 C 9,3 C 3,8 km/h 91,30 %
15.02.2019 23:36 9,3 C 60 % 1026,7 hPa 0,0 l/m 4,3 km/h S-SO 150 0 min 0,000 mm 0,0 UV-I 0 W/m 1,9 C 9,3 C 7,7 km/h 91,67 %
15.02.2019 23:35 9,4 C 60 % 1026,8 hPa 0,0 l/m 3,4 km/h SO 133 0 min 0,000 mm 0,0 UV-I 0 W/m 2,0 C 9,4 C 5,7 km/h 91,67 %
15.02.2019 23:34 9,4 C 60 % 1026,7 hPa 0,0 l/m 4,4 km/h SO 132 0 min 0,000 mm 0,0 UV-I 0 W/m 2,0 C 9,4 C 7,7 km/h 100,00 %
15.02.2019 23:33 9,4 C 60 % 1026,7 hPa 0,0 l/m 5,4 km/h S-SO 155 0 min 0,000 mm 0,0 UV-I 0 W/m 2,0 C 9,4 C 11,5 km/h 95,83 %
15.02.2019 23:32 9,4 C 60 % 1026,7 hPa 0,0 l/m 5,7 km/h SO 129 0 min 0,000 mm 0,0 UV-I 0 W/m 2,0 C 9,4 C 7,7 km/h 100,00 %
15.02.2019 23:31 9,4 C 60 % 1026,7 hPa 0,0 l/m 2,7 km/h SO 138 0 min 0,000 mm 0,0 UV-I 0 W/m 2,0 C 9,4 C 5,7 km/h 91,67 %
15.02.2019 23:30 9,4 C 60 % 1026,7 hPa 0,0 l/m 4,8 km/h SO 135 0 min 0,000 mm 0,0 UV-I 0 W/m 2,0 C 9,4 C 7,7 km/h 100,00 %
15.02.2019 23:29 9,4 C 59 % 1026,7 hPa 0,0 l/m 3,3 km/h SO 137 0 min 0,000 mm 0,0 UV-I 0 W/m 1,8 C 9,4 C 7,7 km/h 95,83 %
15.02.2019 23:28 9,4 C 59 % 1026,7 hPa 0,0 l/m 3,0 km/h S-SO 149 0 min 0,000 mm 0,0 UV-I 0 W/m 1,8 C 9,4 C 5,7 km/h 96,15 %
15.02.2019 23:27 9,4 C 59 % 1026,7 hPa 0,0 l/m 3,4 km/h SO 138 0 min 0,000 mm 0,0 UV-I 0 W/m 1,8 C 9,4 C 5,7 km/h 100,00 %
15.02.2019 23:26 9,5 C 59 % 1026,7 hPa 0,0 l/m 4,8 km/h SO 130 0 min 0,000 mm 0,0 UV-I 0 W/m 1,9 C 9,5 C 7,7 km/h 95,65 %
15.02.2019 23:25 9,5 C 59 % 1026,7 hPa 0,0 l/m 4,2 km/h SO 135 0 min 0,000 mm 0,0 UV-I 0 W/m 1,9 C 9,5 C 5,7 km/h 100,00 %
15.02.2019 23:24 9,5 C 59 % 1026,7 hPa 0,0 l/m 3,9 km/h SO 146 0 min 0,000 mm 0,0 UV-I 0 W/m 1,9 C 9,5 C 5,7 km/h 95,65 %
15.02.2019 23:23 9,6 C 59 % 1026,8 hPa 0,0 l/m 3,7 km/h SO 142 0 min 0,000 mm 0,0 UV-I 0 W/m 2,0 C 9,6 C 5,7 km/h 100,00 %
15.02.2019 23:22 9,6 C 59 % 1026,8 hPa 0,0 l/m 1,7 km/h SO 138 0 min 0,000 mm 0,0 UV-I 0 W/m 2,0 C 9,6 C 3,8 km/h 96,15 %
15.02.2019 23:21 9,6 C 58 % 1026,7 hPa 0,0 l/m 3,9 km/h SO 124 0 min 0,000 mm 0,0 UV-I 0 W/m 1,8 C 9,6 C 5,7 km/h 96,67 %
15.02.2019 23:20 9,7 C 58 % 1026,7 hPa 0,0 l/m 5,0 km/h S-SO 163 0 min 0,000 mm 0,0 UV-I 0 W/m 1,8 C 9,7 C 9,6 km/h 100,00 %
15.02.2019 23:19 9,7 C 58 % 1026,8 hPa 0,0 l/m 5,2 km/h SO 143 0 min 0,000 mm 0,0 UV-I 0 W/m 1,8 C 9,7 C 7,7 km/h 96,30 %
15.02.2019 23:18 9,7 C 58 % 1026,8 hPa 0,0 l/m 3,2 km/h S 172 0 min 0,000 mm 0,0 UV-I 0 W/m 1,8 C 9,7 C 5,7 km/h 100,00 %
15.02.2019 23:17 9,7 C 58 % 1026,8 hPa 0,0 l/m 3,1 km/h S-SO 153 0 min 0,000 mm 0,0 UV-I 0 W/m 1,8 C 9,7 C 5,7 km/h 96,30 %
15.02.2019 23:16 9,7 C 58 % 1026,8 hPa 0,0 l/m 5,9 km/h SO 142 0 min 0,000 mm 0,0 UV-I 0 W/m 1,8 C 9,7 C 9,6 km/h 96,55 %
15.02.2019 23:15 9,8 C 58 % 1026,8 hPa 0,0 l/m 3,9 km/h SO 132 0 min 0,000 mm 0,0 UV-I 0 W/m 1,9 C 9,8 C 9,6 km/h 92,59 %
15.02.2019 23:14 9,8 C 58 % 1026,8 hPa 0,0 l/m 5,7 km/h S-SO 166 0 min 0,000 mm 0,0 UV-I 0 W/m 1,9 C 9,8 C 11,5 km/h 100,00 %
15.02.2019 23:13 9,8 C 58 % 1026,9 hPa 0,0 l/m 2,3 km/h S-SO 151 0 min 0,000 mm 0,0 UV-I 0 W/m 1,9 C 9,8 C 9,6 km/h 96,15 %
15.02.2019 23:12 9,8 C 58 % 1026,8 hPa 0,0 l/m 5,4 km/h S-SO 167 0 min 0,000 mm 0,0 UV-I 0 W/m 1,9 C 9,8 C 7,7 km/h 100,00 %
15.02.2019 23:11 9,8 C 58 % 1026,8 hPa 0,0 l/m 2,9 km/h SO 134 0 min 0,000 mm 0,0 UV-I 0 W/m 1,9 C 9,8 C 5,7 km/h 95,65 %
15.02.2019 23:10 9,8 C 57 % 1026,9 hPa 0,0 l/m 4,4 km/h S-SO 153 0 min 0,000 mm 0,0 UV-I 0 W/m 1,7 C 9,8 C 9,6 km/h 95,83 %
15.02.2019 23:09 9,9 C 57 % 1026,8 hPa 0,0 l/m 3,2 km/h S-SO 161 0 min 0,000 mm 0,0 UV-I 0 W/m 1,8 C 9,9 C 3,8 km/h 100,00 %
15.02.2019 23:08 9,9 C 57 % 1026,9 hPa 0,0 l/m 2,5 km/h S-SO 151 0 min 0,000 mm 0,0 UV-I 0 W/m 1,8 C 9,9 C 3,8 km/h 96,30 %
15.02.2019 23:07 9,9 C 57 % 1026,8 hPa 0,0 l/m 4,5 km/h S-SO 150 0 min 0,000 mm 0,0 UV-I 0 W/m 1,8 C 9,9 C 9,6 km/h 95,65 %
15.02.2019 23:06 9,9 C 57 % 1026,9 hPa 0,0 l/m 4,6 km/h S-SO 152 0 min 0,000 mm 0,0 UV-I 0 W/m 1,8 C 9,9 C 9,6 km/h 96,55 %
15.02.2019 23:05 9,9 C 57 % 1026,9 hPa 0,0 l/m 3,0 km/h S-SO 167 0 min 0,000 mm 0,0 UV-I 0 W/m 1,8 C 9,9 C 7,7 km/h 100,00 %
15.02.2019 23:04 9,9 C 57 % 1026,9 hPa 0,0 l/m 5,6 km/h S-SO 167 0 min 0,000 mm 0,0 UV-I 0 W/m 1,8 C 9,9 C 7,7 km/h 95,83 %
15.02.2019 23:03 10,0 C 57 % 1026,9 hPa 0,0 l/m 5,3 km/h S-SO 167 0 min 0,000 mm 0,0 UV-I 0 W/m 1,9 C 10,0 C 7,7 km/h 96,15 %
15.02.2019 23:02 10,1 C 57 % 1026,9 hPa 0,0 l/m 3,0 km/h SO 128 0 min 0,000 mm 0,0 UV-I 0 W/m 2,0 C 10,1 C 3,8 km/h 96,30 %
15.02.2019 23:01 10,1 C 57 % 1026,9 hPa 0,0 l/m 5,1 km/h O-SO 119 0 min 0,051 mm 0,0 UV-I 0 W/m 2,0 C 10,1 C 11,5 km/h 100,00 %
15.02.2019 23:00 10,1 C 57 % 1026,9 hPa 0,0 l/m 6,7 km/h SO 135 0 min 0,000 mm 0,0 UV-I 0 W/m 2,0 C 9,9 C 9,6 km/h 100,00 %
15.02.2019 22:59 10,1 C 57 % 1026,9 hPa 0,0 l/m 1,5 km/h SO 125 0 min 0,000 mm 0,0 UV-I 0 W/m 2,0 C 10,1 C 3,8 km/h 100,00 %
15.02.2019 22:58 10,2 C 57 % 1026,9 hPa 0,0 l/m 3,1 km/h O-SO 121 0 min 0,000 mm 0,0 UV-I 0 W/m 2,1 C 10,2 C 5,7 km/h 100,00 %
15.02.2019 22:57 10,2 C 56 % 1026,9 hPa 0,0 l/m 5,4 km/h SO 142 0 min 0,000 mm 0,0 UV-I 0 W/m 1,8 C 10,2 C 9,6 km/h 100,00 %
15.02.2019 22:56 10,2 C 56 % 1026,9 hPa 0,0 l/m 1,8 km/h S 169 0 min 0,000 mm 0,0 UV-I 0 W/m 1,8 C 10,2 C 3,8 km/h 100,00 %
15.02.2019 22:55 10,2 C 56 % 1026,9 hPa 0,0 l/m 3,0 km/h S 169 0 min 0,000 mm 0,0 UV-I 0 W/m 1,8 C 10,2 C 7,7 km/h 100,00 %
15.02.2019 22:54 10,2 C 56 % 1026,9 hPa 0,0 l/m 5,8 km/h S 169 0 min 0,000 mm 0,0 UV-I 0 W/m 1,8 C 10,2 C 13,4 km/h 100,00 %
15.02.2019 22:53 10,2 C 56 % 1026,9 hPa 0,0 l/m 4,2 km/h S-SO 159 0 min 0,000 mm 0,0 UV-I 0 W/m 1,8 C 10,2 C 5,7 km/h 95,83 %
15.02.2019 22:52 10,2 C 56 % 1026,9 hPa 0,0 l/m 5,3 km/h S-SO 163 0 min 0,000 mm 0,0 UV-I 0 W/m 1,8 C 10,2 C 7,7 km/h 100,00 %
15.02.2019 22:51 10,2 C 56 % 1026,9 hPa 0,0 l/m 4,5 km/h SO 126 0 min 0,000 mm 0,0 UV-I 0 W/m 1,8 C 10,2 C 9,6 km/h 100,00 %
15.02.2019 22:50 10,2 C 56 % 1026,9 hPa 0,0 l/m 7,8 km/h S-SO 165 0 min 0,000 mm 0,0 UV-I 0 W/m 1,8 C 9,2 C 11,5 km/h 100,00 %
15.02.2019 22:49 10,2 C 56 % 1026,9 hPa 0,0 l/m 5,7 km/h SO 134 0 min 0,000 mm 0,0 UV-I 0 W/m 1,8 C 10,2 C 9,6 km/h 100,00 %
15.02.2019 22:48 10,3 C 56 % 1026,9 hPa 0,0 l/m 6,1 km/h SO 146 0 min 0,000 mm 0,0 UV-I 0 W/m 1,9 C 10,3 C 9,6 km/h 100,00 %
15.02.2019 22:47 10,3 C 56 % 1026,9 hPa 0,0 l/m 4,4 km/h O-SO 105 0 min 0,000 mm 0,0 UV-I 0 W/m 1,9 C 10,3 C 7,7 km/h 100,00 %
15.02.2019 22:46 10,3 C 56 % 1026,9 hPa 0,0 l/m 5,5 km/h S-SO 148 0 min 0,000 mm 0,0 UV-I 0 W/m 1,9 C 10,3 C 9,6 km/h 100,00 %
15.02.2019 22:45 10,3 C 56 % 1026,9 hPa 0,0 l/m 4,1 km/h S 188 0 min 0,000 mm 0,0 UV-I 0 W/m 1,9 C 10,3 C 9,6 km/h 96,30 %
15.02.2019 22:44 10,3 C 56 % 1026,8 hPa 0,0 l/m 3,0 km/h SO 142 0 min 0,000 mm 0,0 UV-I 0 W/m 1,9 C 10,3 C 5,7 km/h 100,00 %
15.02.2019 22:43 10,4 C 56 % 1026,9 hPa 0,0 l/m 4,7 km/h S-SO 147 0 min 0,000 mm 0,0 UV-I 0 W/m 2,0 C 10,4 C 7,7 km/h 100,00 %
15.02.2019 22:42 10,4 C 56 % 1026,9 hPa 0,0 l/m 5,0 km/h SO 126 0 min 0,000 mm 0,0 UV-I 0 W/m 2,0 C 10,4 C 7,7 km/h 96,55 %
15.02.2019 22:41 10,4 C 55 % 1026,9 hPa 0,0 l/m 3,1 km/h S-SO 150 0 min 0,000 mm 0,0 UV-I 0 W/m 1,8 C 10,4 C 5,7 km/h 100,00 %
15.02.2019 22:40 10,5 C 55 % 1026,9 hPa 0,0 l/m 2,7 km/h S-SO 150 0 min 0,000 mm 0,0 UV-I 0 W/m 1,8 C 10,5 C 5,7 km/h 96,15 %
15.02.2019 22:39 10,5 C 55 % 1026,9 hPa 0,0 l/m 3,9 km/h O-SO 119 0 min 0,000 mm 0,0 UV-I 0 W/m 1,8 C 10,5 C 7,7 km/h 100,00 %
15.02.2019 22:38 10,6 C 55 % 1026,9 hPa 0,0 l/m 8,3 km/h SO 134 0 min 0,000 mm 0,0 UV-I 0 W/m 1,9 C 9,3 C 13,4 km/h 100,00 %
15.02.2019 22:37 10,6 C 55 % 1026,9 hPa 0,0 l/m 6,6 km/h O-SO 102 0 min 0,000 mm 0,0 UV-I 0 W/m 1,9 C 10,5 C 13,4 km/h 100,00 %
15.02.2019 22:36 10,6 C 55 % 1026,9 hPa 0,0 l/m 5,6 km/h SO 132 0 min 0,000 mm 0,0 UV-I 0 W/m 1,9 C 10,6 C 7,7 km/h 96,15 %
15.02.2019 22:35 10,6 C 55 % 1027,0 hPa 0,0 l/m 6,7 km/h SO 130 0 min 0,000 mm 0,0 UV-I 0 W/m 1,9 C 10,4 C 13,4 km/h 100,00 %
15.02.2019 22:34 10,7 C 55 % 1027,0 hPa 0,0 l/m 5,5 km/h SO 126 0 min 0,000 mm 0,0 UV-I 0 W/m 2,0 C 10,7 C 11,5 km/h 100,00 %
15.02.2019 22:33 10,7 C 55 % 1027,0 hPa 0,0 l/m 5,3 km/h S-SO 148 0 min 0,000 mm 0,0 UV-I 0 W/m 2,0 C 10,7 C 9,6 km/h 100,00 %
15.02.2019 22:32 10,7 C 55 % 1027,0 hPa 0,0 l/m 7,7 km/h SO 140 0 min 0,000 mm 0,0 UV-I 0 W/m 2,0 C 9,8 C 15,3 km/h 100,00 %
15.02.2019 22:31 10,7 C 55 % 1027,0 hPa 0,0 l/m 5,4 km/h S-SO 151 0 min 0,000 mm 0,0 UV-I 0 W/m 2,0 C 10,7 C 9,6 km/h 100,00 %
15.02.2019 22:30 10,7 C 55 % 1027,0 hPa 0,0 l/m 7,4 km/h SO 125 0 min 0,000 mm 0,0 UV-I 0 W/m 2,0 C 10,0 C 13,4 km/h 100,00 %
15.02.2019 22:29 10,7 C 55 % 1026,9 hPa 0,0 l/m 11,9 km/h S-SO 153 0 min 0,000 mm 0,0 UV-I 0 W/m 2,0 C 7,4 C 21,0 km/h 100,00 %
15.02.2019 22:28 10,7 C 55 % 1027,0 hPa 0,0 l/m 4,6 km/h S-SO 147 0 min 0,000 mm 0,0 UV-I 0 W/m 2,0 C 10,7 C 9,6 km/h 100,00 %
15.02.2019 22:27 10,7 C 55 % 1027,0 hPa 0,0 l/m 8,3 km/h SO 140 0 min 0,000 mm 0,0 UV-I 0 W/m 2,0 C 9,4 C 13,4 km/h 96,15 %
15.02.2019 22:26 10,6 C 55 % 1027,0 hPa 0,0 l/m 8,1 km/h SO 144 0 min 0,000 mm 0,0 UV-I 0 W/m 1,9 C 9,4 C 15,3 km/h 100,00 %
15.02.2019 22:25 10,6 C 56 % 1027,0 hPa 0,0 l/m 9,9 km/h SO 144 0 min 0,000 mm 0,0 UV-I 0 W/m 2,2 C 8,3 C 17,2 km/h 95,65 %
15.02.2019 22:24 10,6 C 56 % 1027,0 hPa 0,0 l/m 5,4 km/h S 186 0 min 0,000 mm 0,0 UV-I 0 W/m 2,2 C 10,6 C 9,6 km/h 100,00 %
15.02.2019 22:23 10,6 C 56 % 1027,0 hPa 0,0 l/m 5,7 km/h SO 138 0 min 0,000 mm 0,0 UV-I 0 W/m 2,2 C 10,6 C 13,4 km/h 100,00 %
15.02.2019 22:22 10,6 C 55 % 1027,0 hPa 0,0 l/m 3,9 km/h S-SO 148 0 min 0,000 mm 0,0 UV-I 0 W/m 1,9 C 10,6 C 5,7 km/h 100,00 %
15.02.2019 22:21 10,6 C 56 % 1027,0 hPa 0,0 l/m 4,6 km/h SO 142 0 min 0,000 mm 0,0 UV-I 0 W/m 2,2 C 10,6 C 9,6 km/h 100,00 %
15.02.2019 22:20 10,6 C 56 % 1027,0 hPa 0,0 l/m 8,3 km/h SO 141 0 min 0,000 mm 0,0 UV-I 0 W/m 2,2 C 9,3 C 13,4 km/h 100,00 %
15.02.2019 22:19 10,6 C 56 % 1027,0 hPa 0,0 l/m 6,6 km/h SO 127 0 min 0,000 mm 0,0 UV-I 0 W/m 2,2 C 10,5 C 11,5 km/h 100,00 %
15.02.2019 22:18 10,6 C 55 % 1027,0 hPa 0,0 l/m 5,3 km/h S-SO 154 0 min 0,000 mm 0,0 UV-I 0 W/m 1,9 C 10,6 C 11,5 km/h 100,00 %
15.02.2019 22:17 10,6 C 55 % 1027,0 hPa 0,0 l/m 4,0 km/h SO 135 0 min 0,000 mm 0,0 UV-I 0 W/m 1,9 C 10,6 C 7,7 km/h 100,00 %
15.02.2019 22:16 10,6 C 56 % 1027,0 hPa 0,0 l/m 4,5 km/h S-SO 165 0 min 0,000 mm 0,0 UV-I 0 W/m 2,2 C 10,6 C 7,7 km/h 100,00 %
15.02.2019 22:15 10,6 C 56 % 1027,0 hPa 0,0 l/m 6,5 km/h SO 142 0 min 0,000 mm 0,0 UV-I 0 W/m 2,2 C 10,6 C 9,6 km/h 96,15 %
15.02.2019 22:14 10,6 C 56 % 1027,0 hPa 0,0 l/m 5,5 km/h S-SO 167 0 min 0,000 mm 0,0 UV-I 0 W/m 2,2 C 10,6 C 11,5 km/h 100,00 %
15.02.2019 22:13 10,6 C 56 % 1027,0 hPa 0,0 l/m 4,7 km/h SO 133 0 min 0,000 mm 0,0 UV-I 0 W/m 2,2 C 10,6 C 9,6 km/h 95,83 %
15.02.2019 22:12 10,5 C 56 % 1027,0 hPa 0,0 l/m 6,5 km/h O-SO 123 0 min 0,000 mm 0,0 UV-I 0 W/m 2,1 C 10,5 C 9,6 km/h 100,00 %
15.02.2019 22:11 10,5 C 56 % 1027,0 hPa 0,0 l/m 7,7 km/h S-SO 158 0 min 0,000 mm 0,0 UV-I 0 W/m 2,1 C 9,6 C 13,4 km/h 100,00 %
15.02.2019 22:10 10,5 C 56 % 1027,0 hPa 0,0 l/m 5,2 km/h SO 142 0 min 0,000 mm 0,0 UV-I 0 W/m 2,1 C 10,5 C 13,4 km/h 100,00 %
15.02.2019 22:09 10,5 C 56 % 1027,1 hPa 0,0 l/m 4,6 km/h S-SO 157 0 min 0,000 mm 0,0 UV-I 0 W/m 2,1 C 10,5 C 11,5 km/h 100,00 %
15.02.2019 22:08 10,5 C 56 % 1027,0 hPa 0,0 l/m 4,9 km/h S 170 0 min 0,000 mm 0,0 UV-I 0 W/m 2,1 C 10,5 C 7,7 km/h 100,00 %
15.02.2019 22:07 10,5 C 55 % 1027,1 hPa 0,0 l/m 3,7 km/h SO 137 0 min 0,000 mm 0,0 UV-I 0 W/m 1,8 C 10,5 C 5,7 km/h 100,00 %
15.02.2019 22:06 10,6 C 55 % 1027,0 hPa 0,0 l/m 4,1 km/h SO 133 0 min 0,000 mm 0,0 UV-I 0 W/m 1,9 C 10,6 C 7,7 km/h 100,00 %
15.02.2019 22:05 10,6 C 55 % 1027,0 hPa 0,0 l/m 1,9 km/h SO 128 0 min 0,000 mm 0,0 UV-I 0 W/m 1,9 C 10,6 C 5,7 km/h 96,30 %
15.02.2019 22:04 10,6 C 55 % 1027,0 hPa 0,0 l/m 5,1 km/h S-SO 148 0 min 0,000 mm 0,0 UV-I 0 W/m 1,9 C 10,6 C 7,7 km/h 100,00 %
15.02.2019 22:03 10,7 C 55 % 1027,0 hPa 0,0 l/m 2,8 km/h SO 131 0 min 0,000 mm 0,0 UV-I 0 W/m 2,0 C 10,7 C 5,7 km/h 100,00 %
15.02.2019 22:02 10,7 C 55 % 1027,0 hPa 0,0 l/m 0,9 km/h S-SO 159 0 min 0,000 mm 0,0 UV-I 0 W/m 2,0 C 10,7 C 1,9 km/h 96,15 %
15.02.2019 22:01 10,7 C 55 % 1027,0 hPa 0,0 l/m 4,0 km/h S-SO 159 0 min 0,051 mm 0,0 UV-I 0 W/m 2,0 C 10,7 C 7,7 km/h 100,00 %
15.02.2019 22:00 10,8 C 55 % 1026,9 hPa 0,0 l/m 5,4 km/h SO 143 0 min 0,000 mm 0,0 UV-I 0 W/m 2,1 C 10,8 C 9,6 km/h 100,00 %
15.02.2019 21:59 10,8 C 55 % 1026,9 hPa 0,0 l/m 4,7 km/h S-SO 160 0 min 0,000 mm 0,0 UV-I 0 W/m 2,1 C 10,8 C 9,6 km/h 100,00 %
15.02.2019 21:58 10,8 C 55 % 1026,9 hPa 0,0 l/m 3,2 km/h S-SO 148 0 min 0,000 mm 0,0 UV-I 0 W/m 2,1 C 10,8 C 5,7 km/h 100,00 %
15.02.2019 21:57 10,8 C 55 % 1027,0 hPa 0,0 l/m 4,4 km/h SO 138 0 min 0,000 mm 0,0 UV-I 0 W/m 2,1 C 10,8 C 5,7 km/h 100,00 %
15.02.2019 21:56 10,8 C 55 % 1027,0 hPa 0,0 l/m 4,9 km/h S-SO 160 0 min 0,000 mm 0,0 UV-I 0 W/m 2,1 C 10,8 C 9,6 km/h 95,65 %
15.02.2019 21:55 10,8 C 54 % 1027,0 hPa 0,0 l/m 3,9 km/h SO 142 0 min 0,000 mm 0,0 UV-I 0 W/m 1,9 C 10,8 C 11,5 km/h 100,00 %
15.02.2019 21:54 10,9 C 54 % 1027,0 hPa 0,0 l/m 1,4 km/h SO 144 0 min 0,000 mm 0,0 UV-I 0 W/m 2,0 C 10,9 C 1,9 km/h 100,00 %
15.02.2019 21:53 10,9 C 54 % 1027,0 hPa 0,0 l/m 4,3 km/h SO 144 0 min 0,000 mm 0,0 UV-I 0 W/m 2,0 C 10,9 C 5,7 km/h 100,00 %
15.02.2019 21:52 10,9 C 54 % 1027,0 hPa 0,0 l/m 4,4 km/h O-SO 122 0 min 0,000 mm 0,0 UV-I 0 W/m 2,0 C 10,9 C 7,7 km/h 100,00 %
15.02.2019 21:51 11,0 C 54 % 1027,0 hPa 0,0 l/m 3,3 km/h SO 136 0 min 0,000 mm 0,0 UV-I 0 W/m 2,1 C 11,0 C 7,7 km/h 100,00 %
15.02.2019 21:50 11,0 C 54 % 1027,0 hPa 0,0 l/m 3,2 km/h S-SO 159 0 min 0,000 mm 0,0 UV-I 0 W/m 2,1 C 11,0 C 7,7 km/h 100,00 %
15.02.2019 21:49 11,1 C 54 % 1027,1 hPa 0,0 l/m 5,6 km/h S-SO 157 0 min 0,000 mm 0,0 UV-I 0 W/m 2,2 C 11,1 C 5,7 km/h 100,00 %
15.02.2019 21:48 11,1 C 54 % 1027,1 hPa 0,0 l/m 4,9 km/h O-SO 122 0 min 0,000 mm 0,0 UV-I 0 W/m 2,2 C 11,1 C 7,7 km/h 95,83 %
15.02.2019 21:47 11,2 C 54 % 1027,1 hPa 0,0 l/m 2,8 km/h SO 137 0 min 0,000 mm 0,0 UV-I 0 W/m 2,2 C 11,2 C 5,7 km/h 100,00 %
15.02.2019 21:46 11,2 C 54 % 1027,1 hPa 0,0 l/m 4,2 km/h S-SO 164 0 min 0,000 mm 0,0 UV-I 0 W/m 2,2 C 11,2 C 9,6 km/h 100,00 %
15.02.2019 21:45 11,2 C 54 % 1027,1 hPa 0,0 l/m 7,4 km/h SO 126 0 min 0,000 mm 0,0 UV-I 0 W/m 2,2 C 10,5 C 13,4 km/h 100,00 %
15.02.2019 21:44 11,2 C 54 % 1027,1 hPa 0,0 l/m 4,6 km/h SO 142 0 min 0,000 mm 0,0 UV-I 0 W/m 2,2 C 11,2 C 7,7 km/h 100,00 %
15.02.2019 21:43 11,2 C 54 % 1027,1 hPa 0,0 l/m 8,7 km/h S 187 0 min 0,000 mm 0,0 UV-I 0 W/m 2,2 C 9,7 C 19,1 km/h 100,00 %
15.02.2019 21:42 11,2 C 54 % 1027,1 hPa 0,0 l/m 7,6 km/h O-SO 117 0 min 0,000 mm 0,0 UV-I 0 W/m 2,2 C 10,4 C 13,4 km/h 100,00 %
15.02.2019 21:41 11,2 C 54 % 1027,1 hPa 0,0 l/m 5,5 km/h SO 144 0 min 0,000 mm 0,0 UV-I 0 W/m 2,2 C 11,2 C 9,6 km/h 100,00 %
15.02.2019 21:40 11,2 C 54 % 1027,1 hPa 0,0 l/m 6,5 km/h S 171 0 min 0,000 mm 0,0 UV-I 0 W/m 2,2 C 11,2 C 9,6 km/h 100,00 %
15.02.2019 21:39 11,2 C 54 % 1027,1 hPa 0,0 l/m 8,6 km/h SO 144 0 min 0,000 mm 0,0 UV-I 0 W/m 2,2 C 9,7 C 13,4 km/h 95,65 %
15.02.2019 21:38 11,3 C 53 % 1027,1 hPa 0,0 l/m 5,5 km/h S-SO 163 0 min 0,000 mm 0,0 UV-I 0 W/m 2,1 C 11,3 C 9,6 km/h 100,00 %
15.02.2019 21:37 11,3 C 53 % 1027,1 hPa 0,0 l/m 4,7 km/h S 178 0 min 0,000 mm 0,0 UV-I 0 W/m 2,1 C 11,3 C 7,7 km/h 100,00 %
15.02.2019 21:36 11,3 C 53 % 1027,1 hPa 0,0 l/m 4,7 km/h S-SO 163 0 min 0,000 mm 0,0 UV-I 0 W/m 2,1 C 11,3 C 9,6 km/h 100,00 %
15.02.2019 21:35 11,3 C 53 % 1027,1 hPa 0,0 l/m 5,6 km/h S-SO 157 0 min 0,000 mm 0,0 UV-I 0 W/m 2,1 C 11,3 C 7,7 km/h 100,00 %
15.02.2019 21:34 11,3 C 53 % 1027,1 hPa 0,0 l/m 5,7 km/h S 175 0 min 0,000 mm 0,0 UV-I 0 W/m 2,1 C 11,3 C 7,7 km/h 100,00 %
15.02.2019 21:33 11,3 C 53 % 1027,1 hPa 0,0 l/m 10,3 km/h S-SO 157 0 min 0,000 mm 0,0 UV-I 0 W/m 2,1 C 8,9 C 19,1 km/h 100,00 %
15.02.2019 21:32 11,3 C 53 % 1027,0 hPa 0,0 l/m 5,8 km/h S-SO 163 0 min 0,000 mm 0,0 UV-I 0 W/m 2,1 C 11,3 C 13,4 km/h 96,43 %
15.02.2019 21:31 11,3 C 53 % 1027,1 hPa 0,0 l/m 5,6 km/h S-SO 155 0 min 0,000 mm 0,0 UV-I 0 W/m 2,1 C 11,3 C 9,6 km/h 100,00 %
15.02.2019 21:30 11,3 C 53 % 1027,1 hPa 0,0 l/m 5,1 km/h S-SO 147 0 min 0,000 mm 0,0 UV-I 0 W/m 2,1 C 11,3 C 9,6 km/h 100,00 %
15.02.2019 21:29 11,4 C 53 % 1027,1 hPa 0,0 l/m 4,0 km/h S-SO 166 0 min 0,000 mm 0,0 UV-I 0 W/m 2,2 C 11,4 C 5,7 km/h 100,00 %
15.02.2019 21:28 11,4 C 53 % 1027,1 hPa 0,0 l/m 6,6 km/h S-SO 166 0 min 0,000 mm 0,0 UV-I 0 W/m 2,2 C 11,3 C 13,4 km/h 100,00 %
15.02.2019 21:27 11,4 C 53 % 1027,1 hPa 0,0 l/m 9,2 km/h S-SO 168 0 min 0,000 mm 0,0 UV-I 0 W/m 2,2 C 9,6 C 19,1 km/h 100,00 %
15.02.2019 21:26 11,4 C 53 % 1027,1 hPa 0,0 l/m 5,6 km/h SO 144 0 min 0,000 mm 0,0 UV-I 0 W/m 2,2 C 11,4 C 7,7 km/h 92,86 %
15.02.2019 21:25 11,4 C 53 % 1027,1 hPa 0,0 l/m 5,6 km/h SO 130 0 min 0,000 mm 0,0 UV-I 0 W/m 2,2 C 11,4 C 9,6 km/h 100,00 %
15.02.2019 21:24 11,4 C 53 % 1027,1 hPa 0,0 l/m 8,4 km/h O-SO 123 0 min 0,000 mm 0,0 UV-I 0 W/m 2,2 C 10,1 C 15,3 km/h 100,00 %
15.02.2019 21:23 11,4 C 53 % 1027,1 hPa 0,0 l/m 6,1 km/h SO 141 0 min 0,000 mm 0,0 UV-I 0 W/m 2,2 C 11,4 C 11,5 km/h 100,00 %
15.02.2019 21:22 11,4 C 53 % 1027,1 hPa 0,0 l/m 8,7 km/h S-SO 150 0 min 0,000 mm 0,0 UV-I 0 W/m 2,2 C 9,9 C 15,3 km/h 100,00 %
15.02.2019 21:21 11,4 C 53 % 1027,1 hPa 0,0 l/m 7,2 km/h S-SO 166 0 min 0,000 mm 0,0 UV-I 0 W/m 2,2 C 10,9 C 9,6 km/h 100,00 %
15.02.2019 21:20 11,4 C 53 % 1027,1 hPa 0,0 l/m 4,4 km/h S 173 0 min 0,000 mm 0,0 UV-I 0 W/m 2,2 C 11,4 C 7,7 km/h 100,00 %
15.02.2019 21:19 11,4 C 53 % 1027,1 hPa 0,0 l/m 7,9 km/h SO 140 0 min 0,000 mm 0,0 UV-I 0 W/m 2,2 C 10,4 C 19,1 km/h 100,00 %
15.02.2019 21:18 11,4 C 53 % 1027,0 hPa 0,0 l/m 7,2 km/h SW 215 0 min 0,000 mm 0,0 UV-I 0 W/m 2,2 C 10,9 C 9,6 km/h 100,00 %
15.02.2019 21:17 11,5 C 53 % 1027,1 hPa 0,0 l/m 6,5 km/h S-SO 160 0 min 0,000 mm 0,0 UV-I 0 W/m 2,3 C 11,5 C 13,4 km/h 92,59 %
15.02.2019 21:16 11,5 C 53 % 1027,0 hPa 0,0 l/m 4,1 km/h S-SO 150 0 min 0,000 mm 0,0 UV-I 0 W/m 2,3 C 11,5 C 7,7 km/h 100,00 %
15.02.2019 21:15 11,5 C 53 % 1027,1 hPa 0,0 l/m 7,7 km/h S-SO 166 0 min 0,000 mm 0,0 UV-I 0 W/m 2,3 C 10,6 C 15,3 km/h 100,00 %
15.02.2019 21:14 11,6 C 53 % 1027,1 hPa 0,0 l/m 6,8 km/h SO 140 0 min 0,000 mm 0,0 UV-I 0 W/m 2,4 C 11,3 C 13,4 km/h 100,00 %
15.02.2019 21:13 11,6 C 53 % 1027,0 hPa 0,0 l/m 6,1 km/h S-SO 160 0 min 0,000 mm 0,0 UV-I 0 W/m 2,4 C 11,6 C 9,6 km/h 100,00 %
15.02.2019 21:12 11,6 C 53 % 1027,1 hPa 0,0 l/m 5,0 km/h S-SO 165 0 min 0,000 mm 0,0 UV-I 0 W/m 2,4 C 11,6 C 9,6 km/h 100,00 %
15.02.2019 21:11 11,6 C 53 % 1027,0 hPa 0,0 l/m 3,4 km/h S-SO 159 0 min 0,000 mm 0,0 UV-I 0 W/m 2,4 C 11,6 C 9,6 km/h 100,00 %
15.02.2019 21:10 11,6 C 53 % 1027,1 hPa 0,0 l/m 6,3 km/h SO 142 0 min 0,000 mm 0,0 UV-I 0 W/m 2,4 C 11,6 C 9,6 km/h 100,00 %
15.02.2019 21:09 11,6 C 53 % 1027,0 hPa 0,0 l/m 9,0 km/h S-SO 167 0 min 0,000 mm 0,0 UV-I 0 W/m 2,4 C 9,9 C 13,4 km/h 100,00 %
15.02.2019 21:08 11,6 C 53 % 1027,1 hPa 0,0 l/m 7,4 km/h S-SO 159 0 min 0,000 mm 0,0 UV-I 0 W/m 2,4 C 10,9 C 17,2 km/h 100,00 %
15.02.2019 21:07 11,6 C 53 % 1027,1 hPa 0,0 l/m 5,6 km/h O-SO 119 0 min 0,000 mm 0,0 UV-I 0 W/m 2,4 C 11,6 C 9,6 km/h 100,00 %
15.02.2019 21:06 11,6 C 53 % 1027,0 hPa 0,0 l/m 8,5 km/h S-SO 156 0 min 0,000 mm 0,0 UV-I 0 W/m 2,4 C 10,2 C 15,3 km/h 95,83 %
15.02.2019 21:05 11,6 C 53 % 1027,1 hPa 0,0 l/m 5,2 km/h SO 136 0 min 0,000 mm 0,0 UV-I 0 W/m 2,4 C 11,6 C 7,7 km/h 100,00 %
15.02.2019 21:04 11,6 C 53 % 1027,0 hPa 0,0 l/m 8,8 km/h S-SO 162 0 min 0,000 mm 0,0 UV-I 0 W/m 2,4 C 10,0 C 15,3 km/h 100,00 %
15.02.2019 21:03 11,6 C 53 % 1027,1 hPa 0,0 l/m 9,3 km/h SO 140 0 min 0,000 mm 0,0 UV-I 0 W/m 2,4 C 9,8 C 17,2 km/h 100,00 %
15.02.2019 21:02 11,6 C 53 % 1027,1 hPa 0,0 l/m 5,9 km/h SO 134 0 min 0,000 mm 0,0 UV-I 0 W/m 2,4 C 11,6 C 11,5 km/h 100,00 %
15.02.2019 21:01 11,7 C 53 % 1027,0 hPa 0,0 l/m 6,6 km/h S-SO 165 0 min 0,051 mm 0,0 UV-I 0 W/m 2,4 C 11,6 C 9,6 km/h 100,00 %
15.02.2019 21:00 11,7 C 53 % 1027,1 hPa 0,0 l/m 7,3 km/h SO 144 0 min 0,000 mm 0,0 UV-I 0 W/m 2,4 C 11,1 C 15,3 km/h 100,00 %
15.02.2019 20:59 11,7 C 53 % 1027,1 hPa 0,0 l/m 4,2 km/h S-SO 153 0 min 0,000 mm 0,0 UV-I 0 W/m 2,4 C 11,7 C 9,6 km/h 100,00 %
15.02.2019 20:58 11,7 C 52 % 1027,1 hPa 0,0 l/m 7,3 km/h O-SO 123 0 min 0,000 mm 0,0 UV-I 0 W/m 2,2 C 11,1 C 11,5 km/h 100,00 %
15.02.2019 20:57 11,7 C 53 % 1027,1 hPa 0,0 l/m 6,6 km/h SO 130 0 min 0,000 mm 0,0 UV-I 0 W/m 2,4 C 11,6 C 9,6 km/h 100,00 %
15.02.2019 20:56 11,7 C 53 % 1027,1 hPa 0,0 l/m 8,7 km/h S-SO 167 0 min 0,000 mm 0,0 UV-I 0 W/m 2,4 C 10,2 C 15,3 km/h 100,00 %
15.02.2019 20:55 11,7 C 53 % 1027,1 hPa 0,0 l/m 7,6 km/h S-SO 148 0 min 0,000 mm 0,0 UV-I 0 W/m 2,4 C 10,9 C 17,2 km/h 100,00 %
15.02.2019 20:54 11,6 C 53 % 1027,2 hPa 0,0 l/m 6,7 km/h S-SO 152 0 min 0,000 mm 0,0 UV-I 0 W/m 2,4 C 11,4 C 13,4 km/h 100,00 %
15.02.2019 20:53 11,6 C 53 % 1027,2 hPa 0,0 l/m 4,0 km/h S-SO 159 0 min 0,000 mm 0,0 UV-I 0 W/m 2,4 C 11,6 C 7,7 km/h 100,00 %
15.02.2019 20:52 11,6 C 53 % 1027,2 hPa 0,0 l/m 8,0 km/h S-SO 165 0 min 0,000 mm 0,0 UV-I 0 W/m 2,4 C 10,5 C 13,4 km/h 100,00 %
15.02.2019 20:51 11,7 C 53 % 1027,2 hPa 0,0 l/m 5,2 km/h S-SO 157 0 min 0,000 mm 0,0 UV-I 0 W/m 2,4 C 11,7 C 11,5 km/h 100,00 %
15.02.2019 20:50 11,6 C 53 % 1027,2 hPa 0,0 l/m 4,4 km/h SO 141 0 min 0,000 mm 0,0 UV-I 0 W/m 2,4 C 11,6 C 7,7 km/h 95,83 %
15.02.2019 20:49 11,7 C 53 % 1027,2 hPa 0,0 l/m 4,7 km/h S-SO 153 0 min 0,000 mm 0,0 UV-I 0 W/m 2,4 C 11,7 C 11,5 km/h 100,00 %
15.02.2019 20:48 11,7 C 53 % 1027,2 hPa 0,0 l/m 3,9 km/h S-SO 155 0 min 0,000 mm 0,0 UV-I 0 W/m 2,4 C 11,7 C 7,7 km/h 100,00 %
15.02.2019 20:47 11,7 C 53 % 1027,2 hPa 0,0 l/m 4,6 km/h SO 142 0 min 0,000 mm 0,0 UV-I 0 W/m 2,4 C 11,7 C 9,6 km/h 100,00 %
15.02.2019 20:46 11,7 C 53 % 1027,3 hPa 0,0 l/m 8,0 km/h SO 130 0 min 0,000 mm 0,0 UV-I 0 W/m 2,4 C 10,6 C 11,5 km/h 100,00 %
15.02.2019 20:45 11,6 C 53 % 1027,3 hPa 0,0 l/m 6,6 km/h S-SO 159 0 min 0,000 mm 0,0 UV-I 0 W/m 2,4 C 11,5 C 15,3 km/h 100,00 %
15.02.2019 20:44 11,6 C 53 % 1027,2 hPa 0,0 l/m 6,4 km/h S-SO 156 0 min 0,000 mm 0,0 UV-I 0 W/m 2,4 C 11,6 C 11,5 km/h 100,00 %
15.02.2019 20:43 11,7 C 53 % 1027,3 hPa 0,0 l/m 6,6 km/h S-SO 161 0 min 0,000 mm 0,0 UV-I 0 W/m 2,4 C 11,6 C 11,5 km/h 100,00 %
15.02.2019 20:42 11,7 C 53 % 1027,3 hPa 0,0 l/m 5,5 km/h S 178 0 min 0,000 mm 0,0 UV-I 0 W/m 2,4 C 11,7 C 7,7 km/h 94,87 %
15.02.2019 20:41 11,7 C 53 % 1027,3 hPa 0,0 l/m 4,4 km/h S 169 0 min 0,000 mm 0,0 UV-I 0 W/m 2,4 C 11,7 C 7,7 km/h 98,42 %
15.02.2019 20:40 11,7 C 53 % 1027,3 hPa 0,0 l/m 6,3 km/h S 178 0 min 0,000 mm 0,0 UV-I 0 W/m 2,4 C 11,7 C 11,5 km/h 100,00 %
15.02.2019 20:39 11,7 C 53 % 1027,3 hPa 0,0 l/m 6,2 km/h SO 146 0 min 0,000 mm 0,0 UV-I 0 W/m 2,4 C 11,7 C 9,6 km/h 100,00 %
15.02.2019 20:38 11,6 C 53 % 1027,3 hPa 0,0 l/m 9,2 km/h S 174 0 min 0,000 mm 0,0 UV-I 0 W/m 2,4 C 9,8 C 13,4 km/h 100,00 %
15.02.2019 20:37 11,6 C 53 % 1027,3 hPa 0,0 l/m 3,3 km/h S-SO 163 0 min 0,000 mm 0,0 UV-I 0 W/m 2,4 C 11,6 C 7,7 km/h 100,00 %
15.02.2019 20:36 11,6 C 53 % 1027,3 hPa 0,0 l/m 5,5 km/h S-SO 159 0 min 0,000 mm 0,0 UV-I 0 W/m 2,4 C 11,6 C 9,6 km/h 100,00 %
15.02.2019 20:35 11,6 C 53 % 1027,3 hPa 0,0 l/m 4,5 km/h SO 138 0 min 0,000 mm 0,0 UV-I 0 W/m 2,4 C 11,6 C 9,6 km/h 100,00 %
15.02.2019 20:34 11,6 C 53 % 1027,3 hPa 0,0 l/m 4,1 km/h S-SO 154 0 min 0,000 mm 0,0 UV-I 0 W/m 2,4 C 11,6 C 5,7 km/h 100,00 %
15.02.2019 20:33 11,6 C 53 % 1027,3 hPa 0,0 l/m 8,5 km/h S-SW 194 0 min 0,000 mm 0,0 UV-I 0 W/m 2,4 C 10,2 C 17,2 km/h 92,31 %
15.02.2019 20:32 11,6 C 53 % 1027,2 hPa 0,0 l/m 6,4 km/h SO 145 0 min 0,000 mm 0,0 UV-I 0 W/m 2,4 C 11,6 C 9,6 km/h 100,00 %
15.02.2019 20:31 11,6 C 53 % 1027,3 hPa 0,0 l/m 5,2 km/h S-SO 155 0 min 0,000 mm 0,0 UV-I 0 W/m 2,4 C 11,6 C 9,6 km/h 100,00 %
15.02.2019 20:30 11,5 C 53 % 1027,3 hPa 0,0 l/m 5,2 km/h S-SO 162 0 min 0,000 mm 0,0 UV-I 0 W/m 2,3 C 11,5 C 9,6 km/h 100,00 %
15.02.2019 20:29 11,5 C 53 % 1027,3 hPa 0,0 l/m 3,8 km/h S-SO 150 0 min 0,000 mm 0,0 UV-I 0 W/m 2,3 C 11,5 C 5,7 km/h 100,00 %
15.02.2019 20:28 11,4 C 53 % 1027,3 hPa 0,0 l/m 5,7 km/h O-SO 113 0 min 0,000 mm 0,0 UV-I 0 W/m 2,2 C 11,4 C 11,5 km/h 100,00 %
15.02.2019 20:27 11,4 C 53 % 1027,3 hPa 0,0 l/m 2,9 km/h S-SO 163 0 min 0,000 mm 0,0 UV-I 0 W/m 2,2 C 11,4 C 9,6 km/h 100,00 %
15.02.2019 20:26 11,4 C 54 % 1027,3 hPa 0,0 l/m 4,9 km/h S-SO 159 0 min 0,000 mm 0,0 UV-I 0 W/m 2,4 C 11,4 C 9,6 km/h 100,00 %
15.02.2019 20:25 11,3 C 54 % 1027,3 hPa 0,0 l/m 5,7 km/h S-SO 163 0 min 0,000 mm 0,0 UV-I 0 W/m 2,3 C 11,3 C 7,7 km/h 100,00 %
15.02.2019 20:24 11,3 C 54 % 1027,4 hPa 0,0 l/m 3,7 km/h SO 146 0 min 0,000 mm 0,0 UV-I 0 W/m 2,3 C 11,3 C 5,7 km/h 100,00 %
15.02.2019 20:23 11,3 C 54 % 1027,4 hPa 0,0 l/m 4,5 km/h SO 145 0 min 0,000 mm 0,0 UV-I 0 W/m 2,3 C 11,3 C 5,7 km/h 100,00 %
15.02.2019 20:22 11,3 C 54 % 1027,3 hPa 0,0 l/m 2,9 km/h O-SO 119 0 min 0,000 mm 0,0 UV-I 0 W/m 2,3 C 11,3 C 5,7 km/h 100,00 %
15.02.2019 20:21 11,3 C 54 % 1027,3 hPa 0,0 l/m 2,5 km/h SO 136 0 min 0,000 mm 0,0 UV-I 0 W/m 2,3 C 11,3 C 3,8 km/h 100,00 %
15.02.2019 20:20 11,3 C 54 % 1027,4 hPa 0,0 l/m 4,5 km/h SO 136 0 min 0,000 mm 0,0 UV-I 0 W/m 2,3 C 11,3 C 5,7 km/h 100,00 %
15.02.2019 20:19 11,3 C 54 % 1027,3 hPa 0,0 l/m 5,5 km/h SO 137 0 min 0,000 mm 0,0 UV-I 0 W/m 2,3 C 11,3 C 9,6 km/h 100,00 %
15.02.2019 20:18 11,3 C 54 % 1027,3 hPa 0,0 l/m 4,7 km/h S-SO 150 0 min 0,000 mm 0,0 UV-I 0 W/m 2,3 C 11,3 C 9,6 km/h 100,00 %
15.02.2019 20:17 11,2 C 54 % 1027,4 hPa 0,0 l/m 4,0 km/h S-SO 154 0 min 0,000 mm 0,0 UV-I 0 W/m 2,2 C 11,2 C 7,7 km/h 100,00 %
15.02.2019 20:16 11,2 C 55 % 1027,3 hPa 0,0 l/m 5,1 km/h S-SO 167 0 min 0,000 mm 0,0 UV-I 0 W/m 2,5 C 11,2 C 7,7 km/h 100,00 %
15.02.2019 20:15 11,1 C 55 % 1027,3 hPa 0,0 l/m 3,0 km/h SO 132 0 min 0,000 mm 0,0 UV-I 0 W/m 2,4 C 11,1 C 5,7 km/h 100,00 %
15.02.2019 20:14 11,1 C 55 % 1027,3 hPa 0,0 l/m 5,6 km/h SO 132 0 min 0,000 mm 0,0 UV-I 0 W/m 2,4 C 11,1 C 11,5 km/h 95,65 %
15.02.2019 20:13 11,0 C 55 % 1027,3 hPa 0,0 l/m 7,3 km/h S-SO 153 0 min 0,000 mm 0,0 UV-I 0 W/m 2,3 C 10,4 C 15,3 km/h 100,00 %
15.02.2019 20:12 10,9 C 56 % 1027,4 hPa 0,0 l/m 5,2 km/h O-SO 113 0 min 0,000 mm 0,0 UV-I 0 W/m 2,5 C 10,9 C 11,5 km/h 100,00 %
15.02.2019 20:11 10,8 C 56 % 1027,4 hPa 0,0 l/m 4,7 km/h SO 139 0 min 0,000 mm 0,0 UV-I 0 W/m 2,4 C 10,8 C 9,6 km/h 100,00 %
15.02.2019 20:10 10,7 C 57 % 1027,4 hPa 0,0 l/m 5,8 km/h S-SO 165 0 min 0,000 mm 0,0 UV-I 0 W/m 2,5 C 10,7 C 9,6 km/h 100,00 %
15.02.2019 20:09 10,7 C 57 % 1027,4 hPa 0,0 l/m 3,1 km/h SO 130 0 min 0,000 mm 0,0 UV-I 0 W/m 2,5 C 10,7 C 5,7 km/h 100,00 %
15.02.2019 20:08 10,6 C 57 % 1027,4 hPa 0,0 l/m 1,1 km/h S-SO 148 0 min 0,000 mm 0,0 UV-I 0 W/m 2,4 C 10,6 C 1,9 km/h 100,00 %
15.02.2019 20:07 10,5 C 57 % 1027,4 hPa 0,0 l/m 3,5 km/h S-SO 148 0 min 0,000 mm 0,0 UV-I 0 W/m 2,3 C 10,5 C 7,7 km/h 100,00 %
15.02.2019 20:06 10,4 C 57 % 1027,4 hPa 0,0 l/m 2,9 km/h S-SO 155 0 min 0,000 mm 0,0 UV-I 0 W/m 2,3 C 10,4 C 3,8 km/h 96,15 %
15.02.2019 20:05 10,4 C 58 % 1027,4 hPa 0,0 l/m 2,1 km/h S-SO 156 0 min 0,000 mm 0,0 UV-I 0 W/m 2,5 C 10,4 C 3,8 km/h 100,00 %
15.02.2019 20:04 10,3 C 58 % 1027,4 hPa 0,0 l/m 3,7 km/h S-SO 155 0 min 0,000 mm 0,0 UV-I 0 W/m 2,4 C 10,3 C 5,7 km/h 100,00 %
15.02.2019 20:03 10,3 C 59 % 1027,4 hPa 0,0 l/m 3,5 km/h S-SO 157 0 min 0,000 mm 0,0 UV-I 0 W/m 2,6 C 10,3 C 5,7 km/h 100,00 %
15.02.2019 20:02 10,3 C 59 % 1027,4 hPa 0,0 l/m 1,8 km/h SO 136 0 min 0,000 mm 0,0 UV-I 0 W/m 2,6 C 10,3 C 3,8 km/h 100,00 %
15.02.2019 20:01 10,2 C 59 % 1027,4 hPa 0,0 l/m 2,2 km/h SO 136 0 min 0,025 mm 0,0 UV-I 0 W/m 2,6 C 10,2 C 5,7 km/h 100,00 %
15.02.2019 20:00 10,2 C 59 % 1027,4 hPa 0,0 l/m 2,0 km/h SO 136 0 min 0,000 mm 0,0 UV-I 0 W/m 2,6 C 10,2 C 5,7 km/h 100,00 %
15.02.2019 19:59 10,1 C 60 % 1027,4 hPa 0,0 l/m 4,0 km/h SO 136 0 min 0,000 mm 0,0 UV-I 0 W/m 2,7 C 10,1 C 5,7 km/h 100,00 %
15.02.2019 19:58 10,1 C 60 % 1027,4 hPa 0,0 l/m 3,7 km/h S-SO 167 0 min 0,000 mm 0,0 UV-I 0 W/m 2,7 C 10,1 C 5,7 km/h 100,00 %
15.02.2019 19:57 10,1 C 60 % 1027,4 hPa 0,0 l/m 3,7 km/h S-SO 167 0 min 0,000 mm 0,0 UV-I 0 W/m 2,7 C 10,1 C 7,7 km/h 93,10 %
15.02.2019 19:56 10,1 C 60 % 1027,4 hPa 0,0 l/m 2,8 km/h S-SO 150 0 min 0,000 mm 0,0 UV-I 0 W/m 2,7 C 10,1 C 3,8 km/h 100,00 %
15.02.2019 19:55 10,0 C 61 % 1027,4 hPa 0,0 l/m 6,1 km/h S-SO 150 0 min 0,000 mm 0,0 UV-I 0 W/m 2,8 C 10,0 C 17,2 km/h 100,00 %
15.02.2019 19:54 9,9 C 62 % 1027,4 hPa 0,0 l/m 1,0 km/h O-SO 120 0 min 0,000 mm 0,0 UV-I 0 W/m 3,0 C 9,9 C 1,9 km/h 100,00 %
15.02.2019 19:53 9,8 C 62 % 1027,4 hPa 0,0 l/m 0,2 km/h O-SO 120 0 min 0,000 mm 0,0 UV-I 0 W/m 2,9 C 9,8 C 1,9 km/h 100,00 %
15.02.2019 19:52 9,7 C 63 % 1027,4 hPa 0,0 l/m 0,5 km/h O-SO 120 0 min 0,000 mm 0,0 UV-I 0 W/m 3,0 C 9,7 C 1,9 km/h 100,00 %
15.02.2019 19:51 9,6 C 63 % 1027,4 hPa 0,0 l/m 0,6 km/h O-SO 120 0 min 0,000 mm 0,0 UV-I 0 W/m 2,9 C 9,6 C 1,9 km/h 95,65 %
15.02.2019 19:50 9,6 C 64 % 1027,4 hPa 0,0 l/m 0,4 km/h O-SO 120 0 min 0,000 mm 0,0 UV-I 0 W/m 3,1 C 9,6 C 1,9 km/h 100,00 %
15.02.2019 19:49 9,4 C 64 % 1027,4 hPa 0,0 l/m 1,5 km/h O-SO 120 0 min 0,000 mm 0,0 UV-I 0 W/m 2,9 C 9,4 C 3,8 km/h 100,00 %
15.02.2019 19:48 9,3 C 64 % 1027,4 hPa 0,0 l/m 1,0 km/h O-SO 120 0 min 0,000 mm 0,0 UV-I 0 W/m 2,8 C 9,3 C 1,9 km/h 100,00 %
15.02.2019 19:47 9,3 C 65 % 1027,4 hPa 0,0 l/m 0,8 km/h O-SO 120 0 min 0,000 mm 0,0 UV-I 0 W/m 3,1 C 9,3 C 1,9 km/h 100,00 %
15.02.2019 19:46 9,2 C 66 % 1027,4 hPa 0,0 l/m 2,3 km/h O-SO 120 0 min 0,000 mm 0,0 UV-I 0 W/m 3,2 C 9,2 C 3,8 km/h 100,00 %
15.02.2019 19:45 9,0 C 67 % 1027,4 hPa 0,0 l/m 0,7 km/h O-SO 120 0 min 0,000 mm 0,0 UV-I 0 W/m 3,2 C 9,0 C 1,9 km/h 95,65 %
15.02.2019 19:44 8,9 C 67 % 1027,4 hPa 0,0 l/m 1,8 km/h O-SO 120 0 min 0,000 mm 0,0 UV-I 0 W/m 3,1 C 8,9 C 3,8 km/h 100,00 %
15.02.2019 19:43 8,8 C 67 % 1027,5 hPa 0,0 l/m 1,6 km/h O-SO 120 0 min 0,000 mm 0,0 UV-I 0 W/m 3,0 C 8,8 C 3,8 km/h 100,00 %
15.02.2019 19:42 8,7 C 68 % 1027,5 hPa 0,0 l/m 0,2 km/h O-SO 120 0 min 0,000 mm 0,0 UV-I 0 W/m 3,1 C 8,7 C 1,9 km/h 100,00 %
15.02.2019 19:41 8,7 C 68 % 1027,5 hPa 0,0 l/m 0,1 km/h O-SO 120 0 min 0,000 mm 0,0 UV-I 0 W/m 3,1 C 8,7 C 1,9 km/h 95,83 %
15.02.2019 19:40 8,6 C 68 % 1027,5 hPa 0,0 l/m 0,1 km/h O-SO 120 0 min 0,000 mm 0,0 UV-I 0 W/m 3,0 C 8,6 C 1,9 km/h 95,83 %
15.02.2019 19:39 8,6 C 68 % 1027,5 hPa 0,0 l/m 0,9 km/h O-SO 120 0 min 0,000 mm 0,0 UV-I 0 W/m 3,0 C 8,6 C 3,8 km/h 100,00 %
15.02.2019 19:38 8,6 C 68 % 1027,4 hPa 0,0 l/m 1,1 km/h O-SO 120 0 min 0,000 mm 0,0 UV-I 0 W/m 3,0 C 8,6 C 5,7 km/h 100,00 %
15.02.2019 19:37 8,6 C 68 % 1027,5 hPa 0,0 l/m 0,1 km/h O-SO 120 0 min 0,000 mm 0,0 UV-I 0 W/m 3,0 C 8,6 C 1,9 km/h 100,00 %
15.02.2019 19:36 8,6 C 68 % 1027,5 hPa 0,0 l/m 0,2 km/h O-SO 120 0 min 0,000 mm 0,0 UV-I 0 W/m 3,0 C 8,6 C 1,9 km/h 100,00 %
15.02.2019 19:35 8,6 C 68 % 1027,5 hPa 0,0 l/m 0,4 km/h O-SO 120 0 min 0,000 mm 0,0 UV-I 0 W/m 3,0 C 8,6 C 1,9 km/h 100,00 %
15.02.2019 19:34 8,6 C 68 % 1027,6 hPa 0,0 l/m 0,1 km/h O-SO 120 0 min 0,000 mm 0,0 UV-I 0 W/m 3,0 C 8,6 C 1,9 km/h 100,00 %
15.02.2019 19:33 8,6 C 68 % 1027,6 hPa 0,0 l/m 0,2 km/h O-SO 120 0 min 0,000 mm 0,0 UV-I 0 W/m 3,0 C 8,6 C 1,9 km/h 100,00 %
15.02.2019 19:32 8,6 C 68 % 1027,6 hPa 0,0 l/m 0,5 km/h O-SO 120 0 min 0,000 mm 0,0 UV-I 0 W/m 3,0 C 8,6 C 1,9 km/h 91,30 %
15.02.2019 19:31 8,7 C 68 % 1027,5 hPa 0,0 l/m 0,0 km/h O-SO 120 0 min 0,000 mm 0,0 UV-I 0 W/m 3,1 C 8,7 C 0,0 km/h 100,00 %
15.02.2019 19:30 8,7 C 68 % 1027,6 hPa 0,0 l/m 0,0 km/h O-SO 120 0 min 0,000 mm 0,0 UV-I 0 W/m 3,1 C 8,7 C 0,0 km/h 100,00 %
15.02.2019 19:29 8,7 C 68 % 1027,5 hPa 0,0 l/m 0,0 km/h O-SO 120 0 min 0,000 mm 0,0 UV-I 0 W/m 3,1 C 8,7 C 0,0 km/h 100,00 %
15.02.2019 19:28 8,7 C 68 % 1027,6 hPa 0,0 l/m 0,0 km/h O-SO 120 0 min 0,000 mm 0,0 UV-I 0 W/m 3,1 C 8,7 C 0,0 km/h 100,00 %
15.02.2019 19:27 8,8 C 68 % 1027,6 hPa 0,0 l/m 0,0 km/h O-SO 120 0 min 0,000 mm 0,0 UV-I 0 W/m 3,2 C 8,8 C 0,0 km/h 100,00 %
15.02.2019 19:26 8,8 C 68 % 1027,6 hPa 0,0 l/m 0,0 km/h O-SO 120 0 min 0,000 mm 0,0 UV-I 0 W/m 3,2 C 8,8 C 0,0 km/h 95,65 %
15.02.2019 19:25 8,8 C 67 % 1027,6 hPa 0,0 l/m 0,0 km/h O-SO 120 0 min 0,000 mm 0,0 UV-I 0 W/m 3,0 C 8,8 C 0,0 km/h 100,00 %
15.02.2019 19:24 8,8 C 67 % 1027,6 hPa 0,0 l/m 0,0 km/h O-SO 120 0 min 0,000 mm 0,0 UV-I 0 W/m 3,0 C 8,8 C 0,0 km/h 100,00 %
15.02.2019 19:23 8,8 C 67 % 1027,6 hPa 0,0 l/m 0,0 km/h O-SO 120 0 min 0,000 mm 0,0 UV-I 0 W/m 3,0 C 8,8 C 0,0 km/h 100,00 %
15.02.2019 19:22 8,9 C 67 % 1027,6 hPa 0,0 l/m 0,0 km/h O-SO 120 0 min 0,000 mm 0,0 UV-I 0 W/m 3,1 C 8,9 C 0,0 km/h 100,00 %
15.02.2019 19:21 8,9 C 67 % 1027,6 hPa 0,0 l/m 0,0 km/h O-SO 120 0 min 0,000 mm 0,0 UV-I 0 W/m 3,1 C 8,9 C 0,0 km/h 100,00 %
15.02.2019 19:20 8,9 C 67 % 1027,6 hPa 0,0 l/m 0,0 km/h O-SO 120 0 min 0,000 mm 0,0 UV-I 0 W/m 3,1 C 8,9 C 0,0 km/h 95,65 %
15.02.2019 19:19 8,9 C 66 % 1027,6 hPa 0,0 l/m 0,0 km/h O-SO 120 0 min 0,000 mm 0,0 UV-I 0 W/m 2,9 C 8,9 C 0,0 km/h 100,00 %
15.02.2019 19:18 9,0 C 66 % 1027,6 hPa 0,0 l/m 0,0 km/h O-SO 120 0 min 0,000 mm 0,0 UV-I 0 W/m 3,0 C 9,0 C 0,0 km/h 96,15 %
15.02.2019 19:17 9,1 C 66 % 1027,6 hPa 0,0 l/m 0,0 km/h O-SO 120 0 min 0,000 mm 0,0 UV-I 0 W/m 3,1 C 9,1 C 0,0 km/h 100,00 %
15.02.2019 19:16 9,1 C 66 % 1027,6 hPa 0,0 l/m 0,0 km/h O-SO 120 0 min 0,000 mm 0,0 UV-I 0 W/m 3,1 C 9,1 C 0,0 km/h 100,00 %
15.02.2019 19:15 9,1 C 66 % 1027,7 hPa 0,0 l/m 0,0 km/h O-SO 120 0 min 0,000 mm 0,0 UV-I 0 W/m 3,1 C 9,1 C 0,0 km/h 100,00 %
15.02.2019 19:14 9,2 C 65 % 1027,6 hPa 0,0 l/m 0,0 km/h O-SO 120 0 min 0,000 mm 0,0 UV-I 0 W/m 3,0 C 9,2 C 0,0 km/h 100,00 %
15.02.2019 19:13 9,2 C 66 % 1027,6 hPa 0,0 l/m 0,0 km/h O-SO 120 0 min 0,000 mm 0,0 UV-I 0 W/m 3,2 C 9,2 C 0,0 km/h 100,00 %
15.02.2019 19:12 9,3 C 65 % 1027,6 hPa 0,0 l/m 0,0 km/h O-SO 120 0 min 0,000 mm 0,0 UV-I 0 W/m 3,1 C 9,3 C 0,0 km/h 100,00 %
15.02.2019 19:11 9,3 C 65 % 1027,6 hPa 0,0 l/m 0,0 km/h O-SO 120 0 min 0,000 mm 0,0 UV-I 0 W/m 3,1 C 9,3 C 0,0 km/h 96,15 %
15.02.2019 19:10 9,4 C 65 % 1027,7 hPa 0,0 l/m 0,0 km/h O-SO 120 0 min 0,000 mm 0,0 UV-I 0 W/m 3,2 C 9,4 C 0,0 km/h 100,00 %
15.02.2019 19:09 9,4 C 65 % 1027,7 hPa 0,0 l/m 0,0 km/h O-SO 120 0 min 0,000 mm 0,0 UV-I 0 W/m 3,2 C 9,4 C 0,0 km/h 100,00 %
15.02.2019 19:08 9,5 C 65 % 1027,6 hPa 0,0 l/m 0,0 km/h O-SO 120 0 min 0,000 mm 0,0 UV-I 0 W/m 3,3 C 9,5 C 0,0 km/h 95,83 %
15.02.2019 19:07 9,6 C 65 % 1027,7 hPa 0,0 l/m 0,0 km/h O-SO 120 0 min 0,000 mm 0,0 UV-I 0 W/m 3,4 C 9,6 C 0,0 km/h 100,00 %
15.02.2019 19:06 9,6 C 64 % 1027,6 hPa 0,0 l/m 0,0 km/h O-SO 120 0 min 0,000 mm 0,0 UV-I 0 W/m 3,1 C 9,6 C 0,0 km/h 95,83 %
15.02.2019 19:05 9,6 C 64 % 1027,6 hPa 0,0 l/m 0,0 km/h O-SO 120 0 min 0,000 mm 0,0 UV-I 0 W/m 3,1 C 9,6 C 0,0 km/h 100,00 %
15.02.2019 19:04 9,7 C 64 % 1027,7 hPa 0,0 l/m 0,0 km/h O-SO 120 0 min 0,000 mm 0,0 UV-I 0 W/m 3,2 C 9,7 C 0,0 km/h 95,83 %
15.02.2019 19:03 9,7 C 64 % 1027,7 hPa 0,0 l/m 0,0 km/h O-SO 120 0 min 0,000 mm 0,0 UV-I 0 W/m 3,2 C 9,7 C 0,0 km/h 100,00 %
15.02.2019 19:02 9,8 C 64 % 1027,7 hPa 0,0 l/m 0,0 km/h O-SO 120 0 min 0,000 mm 0,0 UV-I 0 W/m 3,3 C 9,8 C 0,0 km/h 96,00 %
15.02.2019 19:01 9,8 C 64 % 1027,7 hPa 0,0 l/m 0,0 km/h O-SO 120 0 min 0,000 mm 0,0 UV-I 0 W/m 3,3 C 9,8 C 0,0 km/h 100,00 %
15.02.2019 19:00 9,9 C 64 % 1027,7 hPa 0,0 l/m 0,0 km/h O-SO 120 0 min 0,000 mm 0,0 UV-I 0 W/m 3,4 C 9,9 C 0,0 km/h 95,83 %
15.02.2019 18:59 9,9 C 63 % 1027,7 hPa 0,0 l/m 0,0 km/h O-SO 120 0 min 0,000 mm 0,0 UV-I 0 W/m 3,2 C 9,9 C 0,0 km/h 100,00 %
15.02.2019 18:58 9,9 C 63 % 1027,7 hPa 0,0 l/m 0,0 km/h O-SO 120 0 min 0,000 mm 0,0 UV-I 0 W/m 3,2 C 9,9 C 0,0 km/h 96,30 %
15.02.2019 18:57 9,9 C 63 % 1027,7 hPa 0,0 l/m 0,0 km/h O-SO 120 0 min 0,000 mm 0,0 UV-I 0 W/m 3,2 C 9,9 C 0,0 km/h 91,30 %
15.02.2019 18:56 10,1 C 63 % 1027,6 hPa 0,0 l/m 0,0 km/h O-SO 120 0 min 0,000 mm 0,0 UV-I 0 W/m 3,4 C 10,1 C 0,0 km/h 100,00 %
15.02.2019 18:55 10,1 C 63 % 1027,7 hPa 0,0 l/m 0,0 km/h O-SO 120 0 min 0,000 mm 0,0 UV-I 0 W/m 3,4 C 10,1 C 0,0 km/h 91,67 %
15.02.2019 18:54 10,2 C 62 % 1027,7 hPa 0,0 l/m 0,0 km/h O-SO 120 0 min 0,000 mm 0,0 UV-I 0 W/m 3,3 C 10,2 C 0,0 km/h 95,65 %
15.02.2019 18:53 10,2 C 62 % 1027,7 hPa 0,0 l/m 0,0 km/h O-SO 120 0 min 0,000 mm 0,0 UV-I 0 W/m 3,3 C 10,2 C 0,0 km/h 95,83 %
15.02.2019 18:52 10,3 C 62 % 1027,7 hPa 0,0 l/m 0,0 km/h O-SO 120 0 min 0,000 mm 0,0 UV-I 0 W/m 3,3 C 10,3 C 0,0 km/h 100,00 %
15.02.2019 18:51 10,3 C 62 % 1027,7 hPa 0,0 l/m 0,0 km/h O-SO 120 0 min 0,000 mm 0,0 UV-I 0 W/m 3,3 C 10,3 C 0,0 km/h 95,83 %
15.02.2019 18:50 10,4 C 61 % 1027,7 hPa 0,0 l/m 0,0 km/h O-SO 120 0 min 0,000 mm 0,0 UV-I 0 W/m 3,2 C 10,4 C 0,0 km/h 100,00 %
15.02.2019 18:49 10,5 C 61 % 1027,7 hPa 0,0 l/m 0,0 km/h O-SO 120 0 min 0,000 mm 0,0 UV-I 0 W/m 3,3 C 10,5 C 0,0 km/h 91,67 %
15.02.2019 18:48 10,6 C 61 % 1027,7 hPa 0,0 l/m 0,0 km/h O-SO 120 0 min 0,000 mm 0,0 UV-I 0 W/m 3,4 C 10,6 C 0,0 km/h 95,65 %
15.02.2019 18:47 10,6 C 60 % 1027,7 hPa 0,0 l/m 0,0 km/h O-SO 120 0 min 0,000 mm 0,0 UV-I 0 W/m 3,2 C 10,6 C 0,0 km/h 96,00 %
15.02.2019 18:46 10,7 C 60 % 1027,7 hPa 0,0 l/m 0,0 km/h O-SO 120 0 min 0,000 mm 0,0 UV-I 0 W/m 3,3 C 10,7 C 0,0 km/h 95,65 %
15.02.2019 18:45 10,8 C 60 % 1027,8 hPa 0,0 l/m 0,0 km/h O-SO 120 0 min 0,000 mm 0,0 UV-I 0 W/m 3,4 C 10,8 C 0,0 km/h 100,00 %
15.02.2019 18:44 10,8 C 60 % 1027,8 hPa 0,0 l/m 0,0 km/h O-SO 120 0 min 0,000 mm 0,0 UV-I 0 W/m 3,4 C 10,8 C 0,0 km/h 95,65 %
15.02.2019 18:43 10,9 C 60 % 1027,8 hPa 0,0 l/m 0,0 km/h O-SO 120 0 min 0,000 mm 0,0 UV-I 0 W/m 3,4 C 10,9 C 0,0 km/h 100,00 %
15.02.2019 18:42 10,9 C 59 % 1027,8 hPa 0,0 l/m 0,0 km/h O-SO 120 0 min 0,000 mm 0,0 UV-I 0 W/m 3,2 C 10,9 C 0,0 km/h 95,65 %
15.02.2019 18:41 11,1 C 59 % 1027,8 hPa 0,0 l/m 0,0 km/h O-SO 120 0 min 0,000 mm 0,0 UV-I 0 W/m 3,4 C 11,1 C 0,0 km/h 95,83 %
15.02.2019 18:40 11,1 C 59 % 1027,8 hPa 0,0 l/m 0,0 km/h O-SO 120 0 min 0,000 mm 0,0 UV-I 0 W/m 3,4 C 11,1 C 0,0 km/h 100,00 %
15.02.2019 18:39 11,2 C 58 % 1027,8 hPa 0,0 l/m 0,0 km/h O-SO 120 0 min 0,000 mm 0,0 UV-I 0 W/m 3,2 C 11,2 C 0,0 km/h 96,30 %
15.02.2019 18:38 11,3 C 58 % 1027,8 hPa 0,0 l/m 0,0 km/h O-SO 120 0 min 0,000 mm 0,0 UV-I 0 W/m 3,3 C 11,3 C 0,0 km/h 100,00 %
15.02.2019 18:37 11,4 C 58 % 1027,8 hPa 0,0 l/m 0,0 km/h O-SO 120 0 min 0,000 mm 0,0 UV-I 0 W/m 3,4 C 11,4 C 0,0 km/h 95,65 %
15.02.2019 18:36 11,4 C 58 % 1027,8 hPa 0,0 l/m 0,0 km/h O-SO 120 0 min 0,000 mm 0,0 UV-I 0 W/m 3,4 C 11,4 C 0,0 km/h 100,00 %
15.02.2019 18:35 11,6 C 57 % 1027,8 hPa 0,0 l/m 0,0 km/h O-SO 120 0 min 0,000 mm 0,0 UV-I 0 W/m 3,4 C 11,6 C 0,0 km/h 95,83 %
15.02.2019 18:34 11,7 C 57 % 1027,8 hPa 0,0 l/m 0,0 km/h O-SO 120 0 min 0,000 mm 0,0 UV-I 0 W/m 3,5 C 11,7 C 0,0 km/h 100,00 %
15.02.2019 18:33 11,7 C 57 % 1027,8 hPa 0,0 l/m 0,0 km/h O-SO 120 0 min 0,000 mm 0,0 UV-I 0 W/m 3,5 C 11,7 C 0,0 km/h 95,65 %
15.02.2019 18:32 11,8 C 57 % 1027,8 hPa 0,0 l/m 0,0 km/h O-SO 120 0 min 0,000 mm 0,0 UV-I 0 W/m 3,6 C 11,8 C 0,0 km/h 95,83 %
15.02.2019 18:31 11,9 C 57 % 1027,8 hPa 0,0 l/m 0,0 km/h O-SO 120 0 min 0,000 mm 0,0 UV-I 0 W/m 3,7 C 11,9 C 0,0 km/h 95,65 %
15.02.2019 18:30 11,9 C 56 % 1027,8 hPa 0,0 l/m 0,0 km/h O-SO 120 0 min 0,000 mm 0,0 UV-I 0 W/m 3,4 C 11,9 C 0,0 km/h 95,83 %
15.02.2019 18:29 12,0 C 56 % 1027,8 hPa 0,0 l/m 0,0 km/h O-SO 120 0 min 0,000 mm 0,0 UV-I 0 W/m 3,5 C 12,0 C 0,0 km/h 100,00 %
15.02.2019 18:28 12,1 C 55 % 1027,8 hPa 0,0 l/m 0,0 km/h O-SO 120 0 min 0,000 mm 0,0 UV-I 0 W/m 3,3 C 12,1 C 0,0 km/h 95,83 %
15.02.2019 18:27 12,1 C 55 % 1027,8 hPa 0,0 l/m 0,1 km/h O-SO 120 0 min 0,000 mm 0,0 UV-I 0 W/m 3,3 C 12,1 C 1,9 km/h 100,00 %
15.02.2019 18:26 12,2 C 55 % 1027,8 hPa 0,0 l/m 0,1 km/h O-SO 120 0 min 0,000 mm 0,0 UV-I 0 W/m 3,4 C 12,2 C 1,9 km/h 92,86 %
15.02.2019 18:25 12,3 C 55 % 1027,9 hPa 0,0 l/m 0,0 km/h O-SO 120 0 min 0,000 mm 0,0 UV-I 0 W/m 3,5 C 12,3 C 0,0 km/h 100,00 %
15.02.2019 18:24 12,3 C 55 % 1027,8 hPa 0,0 l/m 0,0 km/h O-SO 120 0 min 0,000 mm 0,0 UV-I 0 W/m 3,5 C 12,3 C 0,0 km/h 96,30 %
15.02.2019 18:23 12,4 C 55 % 1027,8 hPa 0,0 l/m 0,0 km/h O-SO 120 0 min 0,000 mm 0,0 UV-I 0 W/m 3,6 C 12,4 C 0,0 km/h 95,65 %
15.02.2019 18:22 12,4 C 55 % 1027,8 hPa 0,0 l/m 0,2 km/h O-SO 120 0 min 0,000 mm 0,0 UV-I 0 W/m 3,6 C 12,4 C 1,9 km/h 100,00 %
15.02.2019 18:21 12,6 C 54 % 1027,9 hPa 0,0 l/m 0,1 km/h O-SO 120 0 min 0,000 mm 0,0 UV-I 0 W/m 3,5 C 12,6 C 1,9 km/h 96,15 %
15.02.2019 18:20 12,6 C 54 % 1027,9 hPa 0,0 l/m 0,0 km/h O-SO 120 0 min 0,000 mm 0,0 UV-I 0 W/m 3,5 C 12,6 C 0,0 km/h 100,00 %
15.02.2019 18:19 12,7 C 54 % 1027,9 hPa 0,0 l/m 0,0 km/h O-SO 120 0 min 0,000 mm 0,0 UV-I 0 W/m 3,6 C 12,7 C 0,0 km/h 95,65 %
15.02.2019 18:18 12,7 C 54 % 1027,9 hPa 0,0 l/m 0,0 km/h O-SO 120 0 min 0,000 mm 0,0 UV-I 0 W/m 3,6 C 12,7 C 0,0 km/h 91,67 %
15.02.2019 18:17 12,8 C 54 % 1027,9 hPa 0,0 l/m 0,0 km/h O-SO 120 0 min 0,000 mm 0,0 UV-I 0 W/m 3,7 C 12,8 C 0,0 km/h 95,83 %
15.02.2019 18:16 12,8 C 54 % 1027,9 hPa 0,0 l/m 0,0 km/h O-SO 120 0 min 0,000 mm 0,0 UV-I 0 W/m 3,7 C 12,8 C 0,0 km/h 100,00 %
15.02.2019 18:15 12,9 C 53 % 1027,8 hPa 0,0 l/m 0,0 km/h O-SO 120 0 min 0,000 mm 0,0 UV-I 0 W/m 3,6 C 12,9 C 0,0 km/h 95,83 %
15.02.2019 18:14 12,9 C 53 % 1027,9 hPa 0,0 l/m 0,0 km/h O-SO 120 0 min 0,000 mm 0,0 UV-I 0 W/m 3,6 C 12,9 C 0,0 km/h 91,30 %
15.02.2019 18:13 12,9 C 53 % 1027,9 hPa 0,0 l/m 0,0 km/h O-SO 120 0 min 0,000 mm 0,0 UV-I 0 W/m 3,6 C 12,9 C 0,0 km/h 100,00 %
15.02.2019 18:12 13,0 C 53 % 1027,9 hPa 0,0 l/m 0,1 km/h O-SO 120 0 min 0,000 mm 0,0 UV-I 0 W/m 3,6 C 13,0 C 1,9 km/h 95,65 %
15.02.2019 18:11 13,0 C 53 % 1027,8 hPa 0,0 l/m 0,0 km/h O-SO 120 0 min 0,000 mm 0,0 UV-I 0 W/m 3,6 C 13,0 C 0,0 km/h 100,00 %
15.02.2019 18:10 13,1 C 53 % 1027,8 hPa 0,0 l/m 0,0 km/h O-SO 120 0 min 0,000 mm 0,0 UV-I 0 W/m 3,7 C 13,1 C 0,0 km/h 96,15 %
15.02.2019 18:09 13,1 C 53 % 1027,9 hPa 0,0 l/m 0,0 km/h O-SO 120 0 min 0,000 mm 0,0 UV-I 0 W/m 3,7 C 13,1 C 0,0 km/h 100,00 %
15.02.2019 18:08 13,2 C 53 % 1027,9 hPa 0,0 l/m 0,2 km/h O-SO 120 0 min 0,000 mm 0,0 UV-I 0 W/m 3,8 C 13,2 C 1,9 km/h 95,65 %
15.02.2019 18:07 13,2 C 53 % 1027,9 hPa 0,0 l/m 0,1 km/h O-SO 120 0 min 0,000 mm 0,0 UV-I 0 W/m 3,8 C 13,2 C 1,9 km/h 100,00 %
15.02.2019 18:06 13,3 C 53 % 1027,9 hPa 0,0 l/m 0,6 km/h O-SO 120 0 min 0,000 mm 0,0 UV-I 0 W/m 3,9 C 13,3 C 1,9 km/h 95,65 %
15.02.2019 18:05 13,3 C 52 % 1027,9 hPa 0,0 l/m 0,6 km/h O-SO 120 0 min 0,000 mm 0,0 UV-I 0 W/m 3,7 C 13,3 C 1,9 km/h 95,83 %
15.02.2019 18:04 13,3 C 52 % 1027,8 hPa 0,0 l/m 0,5 km/h O-SO 120 0 min 0,000 mm 0,0 UV-I 0 W/m 3,7 C 13,3 C 1,9 km/h 100,00 %
15.02.2019 18:03 13,4 C 52 % 1027,8 hPa 0,0 l/m 0,4 km/h O-SO 120 0 min 0,000 mm 0,0 UV-I 0 W/m 3,7 C 13,4 C 1,9 km/h 91,67 %
15.02.2019 18:02 13,4 C 52 % 1027,8 hPa 0,0 l/m 1,1 km/h O-SO 120 0 min 0,001 mm 0,0 UV-I 0 W/m 3,7 C 13,4 C 3,8 km/h 95,65 %
15.02.2019 18:01 13,4 C 51 % 1027,8 hPa 0,0 l/m 0,8 km/h O-SO 120 0 min 0,025 mm 0,0 UV-I 0 W/m 3,5 C 13,4 C 1,9 km/h 95,83 %
15.02.2019 18:00 13,5 C 51 % 1027,8 hPa 0,0 l/m 0,1 km/h O-SO 120 0 min 0,000 mm 0,0 UV-I 0 W/m 3,6 C 13,5 C 1,9 km/h 95,65 %
15.02.2019 17:59 13,6 C 51 % 1027,9 hPa 0,0 l/m 0,1 km/h O-SO 120 0 min 0,000 mm 0,0 UV-I 0 W/m 3,7 C 13,6 C 1,9 km/h 95,83 %
15.02.2019 17:58 13,6 C 51 % 1027,8 hPa 0,0 l/m 0,0 km/h O-SO 120 0 min 0,000 mm 0,0 UV-I 0 W/m 3,7 C 13,6 C 0,0 km/h 96,15 %
15.02.2019 17:57 13,7 C 51 % 1027,9 hPa 0,0 l/m 0,2 km/h O-SO 120 0 min 0,000 mm 0,0 UV-I 0 W/m 3,8 C 13,7 C 1,9 km/h 100,00 %
15.02.2019 17:56 13,7 C 51 % 1027,8 hPa 0,0 l/m 0,0 km/h O-SO 120 0 min 0,000 mm 0,0 UV-I 0 W/m 3,8 C 13,7 C 0,0 km/h 100,00 %
15.02.2019 17:55 13,8 C 51 % 1027,9 hPa 0,0 l/m 0,1 km/h O-SO 120 0 min 0,000 mm 0,0 UV-I 0 W/m 3,8 C 13,8 C 1,9 km/h 96,55 %
15.02.2019 17:54 13,8 C 51 % 1027,9 hPa 0,0 l/m 0,2 km/h O-SO 120 0 min 0,000 mm 0,0 UV-I 0 W/m 3,8 C 13,8 C 1,9 km/h 95,83 %
15.02.2019 17:53 13,9 C 51 % 1027,9 hPa 0,0 l/m 0,4 km/h O-SO 120 0 min 0,000 mm 0,0 UV-I 0 W/m 3,9 C 13,9 C 1,9 km/h 100,00 %
15.02.2019 17:52 13,9 C 51 % 1027,9 hPa 0,0 l/m 1,1 km/h O-SO 120 0 min 0,000 mm 0,0 UV-I 1 W/m 3,9 C 13,9 C 1,9 km/h 96,30 %
15.02.2019 17:51 14,0 C 51 % 1027,9 hPa 0,0 l/m 1,0 km/h O-SO 120 0 min 0,000 mm 0,0 UV-I 5 W/m 4,0 C 14,0 C 1,9 km/h 100,00 %
15.02.2019 17:50 14,1 C 50 % 1027,9 hPa 0,0 l/m 0,1 km/h O-SO 120 0 min 0,000 mm 0,0 UV-I 5 W/m 3,8 C 14,1 C 1,9 km/h 96,30 %
15.02.2019 17:49 14,1 C 50 % 1027,9 hPa 0,0 l/m 0,0 km/h O-SO 120 0 min 0,000 mm 0,0 UV-I 5 W/m 3,8 C 14,1 C 0,0 km/h 96,15 %
15.02.2019 17:48 14,2 C 50 % 1027,9 hPa 0,0 l/m 0,0 km/h O-SO 120 0 min 0,000 mm 0,0 UV-I 5 W/m 3,9 C 14,2 C 0,0 km/h 100,00 %
15.02.2019 17:47 14,2 C 50 % 1027,8 hPa 0,0 l/m 0,0 km/h O-SO 120 0 min 0,000 mm 0,0 UV-I 5 W/m 3,9 C 14,2 C 0,0 km/h 95,83 %
15.02.2019 17:46 14,3 C 50 % 1027,9 hPa 0,0 l/m 0,0 km/h O-SO 120 0 min 0,000 mm 0,0 UV-I 7 W/m 4,0 C 14,3 C 0,0 km/h 100,00 %
15.02.2019 17:45 14,3 C 49 % 1027,9 hPa 0,0 l/m 0,0 km/h O-SO 120 0 min 0,000 mm 0,0 UV-I 7 W/m 3,7 C 14,3 C 0,0 km/h 81,82 %
15.02.2019 17:44 14,4 C 50 % 1027,9 hPa 0,0 l/m 0,0 km/h O-SO 120 0 min 0,000 mm 0,0 UV-I 7 W/m 4,1 C 14,4 C 0,0 km/h 100,00 %
15.02.2019 17:43 14,4 C 49 % 1028,0 hPa 0,0 l/m 0,0 km/h O-SO 120 0 min 0,000 mm 0,0 UV-I 7 W/m 3,8 C 14,4 C 0,0 km/h 95,65 %
15.02.2019 17:42 14,5 C 49 % 1027,9 hPa 0,0 l/m 0,0 km/h O-SO 120 0 min 0,000 mm 0,0 UV-I 8 W/m 3,9 C 14,5 C 0,0 km/h 100,00 %
15.02.2019 17:41 14,6 C 49 % 1027,9 hPa 0,0 l/m 0,0 km/h O-SO 120 0 min 0,000 mm 0,0 UV-I 9 W/m 4,0 C 14,6 C 0,0 km/h 96,15 %
15.02.2019 17:40 14,6 C 49 % 1027,9 hPa 0,0 l/m 0,2 km/h O-SO 120 0 min 0,000 mm 0,0 UV-I 9 W/m 4,0 C 14,6 C 1,9 km/h 95,83 %
15.02.2019 17:39 14,6 C 49 % 1027,9 hPa 0,0 l/m 0,1 km/h O-SO 120 0 min 0,000 mm 0,0 UV-I 9 W/m 4,0 C 14,6 C 1,9 km/h 100,00 %
15.02.2019 17:38 14,7 C 48 % 1027,9 hPa 0,0 l/m 0,1 km/h O-SO 120 0 min 0,000 mm 0,0 UV-I 9 W/m 3,8 C 14,7 C 1,9 km/h 95,83 %
15.02.2019 17:37 14,7 C 48 % 1027,9 hPa 0,0 l/m 0,3 km/h O-SO 120 0 min 0,000 mm 0,0 UV-I 10 W/m 3,8 C 14,7 C 1,9 km/h 100,00 %
15.02.2019 17:36 14,7 C 48 % 1027,9 hPa 0,0 l/m 0,0 km/h O-SO 120 0 min 0,000 mm 0,0 UV-I 11 W/m 3,8 C 14,7 C 0,0 km/h 91,67 %
15.02.2019 17:35 14,8 C 48 % 1027,9 hPa 0,0 l/m 0,2 km/h O-SO 120 0 min 0,000 mm 0,0 UV-I 11 W/m 3,9 C 14,8 C 1,9 km/h 100,00 %
15.02.2019 17:34 14,8 C 48 % 1027,9 hPa 0,0 l/m 0,6 km/h O-SO 120 0 min 0,000 mm 0,0 UV-I 11 W/m 3,9 C 14,8 C 1,9 km/h 100,00 %
15.02.2019 17:33 14,8 C 48 % 1027,9 hPa 0,0 l/m 1,6 km/h O-SO 120 0 min 0,000 mm 0,0 UV-I 11 W/m 3,9 C 14,8 C 1,9 km/h 100,00 %
15.02.2019 17:32 14,8 C 48 % 1027,8 hPa 0,0 l/m 1,8 km/h O-SO 120 0 min 0,000 mm 0,0 UV-I 12 W/m 3,9 C 14,8 C 3,8 km/h 100,00 %
15.02.2019 17:31 14,9 C 48 % 1027,8 hPa 0,0 l/m 2,2 km/h O-SO 120 0 min 0,000 mm 0,0 UV-I 13 W/m 4,0 C 14,9 C 3,8 km/h 95,83 %
15.02.2019 17:30 14,9 C 48 % 1027,8 hPa 0,0 l/m 0,5 km/h O-SO 120 0 min 0,000 mm 0,0 UV-I 16 W/m 4,0 C 14,9 C 1,9 km/h 100,00 %
15.02.2019 17:29 14,9 C 48 % 1027,8 hPa 0,0 l/m 1,5 km/h O-SO 120 0 min 0,000 mm 0,0 UV-I 18 W/m 4,0 C 14,9 C 3,8 km/h 100,00 %
15.02.2019 17:28 15,0 C 48 % 1027,8 hPa 0,0 l/m 1,0 km/h O-SO 120 0 min 0,000 mm 0,0 UV-I 20 W/m 4,1 C 15,0 C 1,9 km/h 100,00 %
15.02.2019 17:27 15,1 C 48 % 1027,9 hPa 0,0 l/m 2,5 km/h O-SO 120 0 min 0,000 mm 0,0 UV-I 21 W/m 4,2 C 15,1 C 3,8 km/h 100,00 %
15.02.2019 17:26 15,1 C 48 % 1027,9 hPa 0,0 l/m 2,8 km/h O-SO 120 0 min 0,000 mm 0,0 UV-I 21 W/m 4,2 C 15,1 C 3,8 km/h 100,00 %
15.02.2019 17:25 15,2 C 48 % 1027,9 hPa 0,0 l/m 2,9 km/h O-SO 120 0 min 0,000 mm 0,0 UV-I 22 W/m 4,3 C 15,2 C 3,8 km/h 94,87 %
15.02.2019 17:24 15,2 C 48 % 1027,9 hPa 0,0 l/m 2,6 km/h O-SO 120 0 min 0,000 mm 0,0 UV-I 23 W/m 4,3 C 15,2 C 3,8 km/h 100,00 %
15.02.2019 17:23 15,2 C 47 % 1027,9 hPa 0,0 l/m 2,3 km/h O-SO 120 0 min 0,000 mm 0,0 UV-I 25 W/m 4,0 C 15,2 C 3,8 km/h 100,00 %
15.02.2019 17:22 15,3 C 47 % 1027,9 hPa 0,0 l/m 3,3 km/h O-SO 120 0 min 0,000 mm 0,0 UV-I 26 W/m 4,1 C 15,3 C 3,8 km/h 96,15 %
15.02.2019 17:21 15,3 C 47 % 1027,9 hPa 0,0 l/m 3,3 km/h O-SO 120 0 min 0,000 mm 0,0 UV-I 27 W/m 4,1 C 15,3 C 5,7 km/h 96,30 %
15.02.2019 17:20 15,3 C 47 % 1027,9 hPa 0,0 l/m 3,3 km/h O-SO 120 0 min 0,000 mm 0,0 UV-I 29 W/m 4,1 C 15,3 C 5,7 km/h 100,00 %
15.02.2019 17:19 15,3 C 47 % 1027,9 hPa 0,0 l/m 2,5 km/h O-SO 120 0 min 0,000 mm 0,0 UV-I 31 W/m 4,1 C 15,3 C 3,8 km/h 100,00 %
15.02.2019 17:18 15,4 C 47 % 1027,9 hPa 0,0 l/m 3,0 km/h O-SO 120 0 min 0,000 mm 0,0 UV-I 32 W/m 4,1 C 15,4 C 5,7 km/h 100,00 %
15.02.2019 17:17 15,4 C 47 % 1027,9 hPa 0,0 l/m 3,1 km/h O-SO 120 0 min 0,000 mm 0,0 UV-I 33 W/m 4,1 C 15,4 C 5,7 km/h 96,15 %
15.02.2019 17:16 15,5 C 47 % 1027,9 hPa 0,0 l/m 3,3 km/h O-SO 121 0 min 0,000 mm 0,0 UV-I 35 W/m 4,2 C 15,5 C 5,7 km/h 100,00 %
15.02.2019 17:15 15,5 C 47 % 1027,9 hPa 0,0 l/m 2,7 km/h O-SO 121 0 min 0,000 mm 0,0 UV-I 34 W/m 4,2 C 15,5 C 3,8 km/h 91,30 %
15.02.2019 17:14 15,6 C 46 % 1027,9 hPa 0,0 l/m 2,9 km/h O-SO 121 0 min 0,000 mm 0,0 UV-I 30 W/m 4,0 C 15,6 C 3,8 km/h 100,00 %
15.02.2019 17:13 15,6 C 46 % 1027,9 hPa 0,0 l/m 2,3 km/h O-SO 118 0 min 0,000 mm 0,0 UV-I 29 W/m 4,0 C 15,6 C 3,8 km/h 96,15 %
15.02.2019 17:12 15,7 C 46 % 1028,0 hPa 0,0 l/m 2,0 km/h O-SO 118 0 min 0,000 mm 0,0 UV-I 26 W/m 4,1 C 15,7 C 3,8 km/h 100,00 %
15.02.2019 17:11 15,7 C 46 % 1027,9 hPa 0,0 l/m 2,8 km/h O-SO 118 0 min 0,000 mm 0,0 UV-I 21 W/m 4,1 C 15,7 C 3,8 km/h 95,83 %
15.02.2019 17:10 15,7 C 46 % 1028,0 hPa 0,0 l/m 2,9 km/h O-SO 118 0 min 0,000 mm 0,0 UV-I 22 W/m 4,1 C 15,7 C 5,7 km/h 100,00 %
15.02.2019 17:09 15,8 C 45 % 1027,9 hPa 0,0 l/m 1,7 km/h O-SO 118 0 min 0,000 mm 0,0 UV-I 23 W/m 3,9 C 15,8 C 3,8 km/h 92,31 %
15.02.2019 17:08 15,8 C 45 % 1028,0 hPa 0,0 l/m 2,2 km/h O-SO 119 0 min 0,000 mm 0,0 UV-I 22 W/m 3,9 C 15,8 C 3,8 km/h 95,83 %
15.02.2019 17:07 15,8 C 45 % 1028,0 hPa 0,0 l/m 2,1 km/h O-SO 118 0 min 0,000 mm 0,0 UV-I 21 W/m 3,9 C 15,8 C 3,8 km/h 100,00 %
15.02.2019 17:06 15,9 C 45 % 1028,0 hPa 0,0 l/m 2,2 km/h O-SO 118 0 min 0,000 mm 0,0 UV-I 21 W/m 4,0 C 15,9 C 3,8 km/h 100,00 %
15.02.2019 17:05 16,0 C 45 % 1028,0 hPa 0,0 l/m 2,8 km/h O-SO 118 0 min 0,000 mm 0,0 UV-I 21 W/m 4,1 C 16,0 C 3,8 km/h 100,00 %
15.02.2019 17:04 16,0 C 45 % 1028,0 hPa 0,0 l/m 3,3 km/h O-SO 118 0 min 0,000 mm 0,0 UV-I 21 W/m 4,1 C 16,0 C 5,7 km/h 100,00 %
15.02.2019 17:03 16,1 C 45 % 1028,0 hPa 0,0 l/m 3,3 km/h O-SO 118 0 min 0,000 mm 0,0 UV-I 22 W/m 4,2 C 16,1 C 5,7 km/h 100,00 %
15.02.2019 17:02 16,1 C 44 % 1028,0 hPa 0,0 l/m 3,7 km/h O-SO 118 0 min 0,000 mm 0,0 UV-I 28 W/m 3,8 C 16,1 C 5,7 km/h 100,00 %
15.02.2019 17:01 16,1 C 44 % 1028,0 hPa 0,0 l/m 4,8 km/h O-SO 118 0 min 0,101 mm 0,0 UV-I 45 W/m 3,8 C 16,1 C 5,7 km/h 100,00 %
15.02.2019 17:00 16,2 C 44 % 1028,0 hPa 0,0 l/m 2,8 km/h O-SO 117 0 min 0,000 mm 0,0 UV-I 62 W/m 3,9 C 16,2 C 3,8 km/h 100,00 %
15.02.2019 16:59 16,2 C 44 % 1028,1 hPa 0,0 l/m 3,9 km/h O-SO 117 0 min 0,000 mm 0,0 UV-I 70 W/m 3,9 C 16,2 C 5,7 km/h 100,00 %
15.02.2019 16:58 16,2 C 44 % 1028,1 hPa 0,0 l/m 4,8 km/h O-SO 117 0 min 0,000 mm 0,0 UV-I 72 W/m 3,9 C 16,2 C 5,7 km/h 100,00 %
15.02.2019 16:57 16,2 C 44 % 1028,1 hPa 0,0 l/m 2,0 km/h O-SO 117 0 min 0,000 mm 0,0 UV-I 75 W/m 3,9 C 16,2 C 3,8 km/h 100,00 %
15.02.2019 16:56 16,3 C 44 % 1028,1 hPa 0,0 l/m 3,3 km/h O-SO 117 0 min 0,000 mm 0,0 UV-I 78 W/m 4,0 C 16,3 C 5,7 km/h 100,00 %
15.02.2019 16:55 16,3 C 44 % 1028,1 hPa 0,0 l/m 0,5 km/h O-SO 111 0 min 0,000 mm 0,0 UV-I 80 W/m 4,0 C 16,3 C 1,9 km/h 100,00 %
15.02.2019 16:54 16,3 C 44 % 1028,1 hPa 0,0 l/m 1,1 km/h O-SO 111 0 min 0,000 mm 0,0 UV-I 83 W/m 4,0 C 16,3 C 3,8 km/h 100,00 %
15.02.2019 16:53 16,3 C 44 % 1028,1 hPa 0,0 l/m 0,5 km/h O-SO 111 0 min 0,000 mm 0,0 UV-I 85 W/m 4,0 C 16,3 C 1,9 km/h 100,00 %
15.02.2019 16:52 16,4 C 44 % 1028,1 hPa 0,0 l/m 1,4 km/h O-SO 111 0 min 0,000 mm 0,0 UV-I 89 W/m 4,1 C 16,4 C 3,8 km/h 100,00 %
15.02.2019 16:51 16,4 C 44 % 1028,1 hPa 0,0 l/m 2,8 km/h O-SO 110 0 min 0,000 mm 0,0 UV-I 91 W/m 4,1 C 16,4 C 7,7 km/h 96,30 %
15.02.2019 16:50 16,4 C 44 % 1028,2 hPa 0,0 l/m 1,9 km/h SO 144 0 min 0,000 mm 0,0 UV-I 92 W/m 4,1 C 16,4 C 3,8 km/h 100,00 %
15.02.2019 16:49 16,4 C 44 % 1028,2 hPa 0,0 l/m 1,5 km/h SO 144 0 min 0,000 mm 0,0 UV-I 96 W/m 4,1 C 16,4 C 5,7 km/h 100,00 %
15.02.2019 16:48 16,5 C 43 % 1028,2 hPa 0,0 l/m 4,2 km/h SO 144 0 min 0,000 mm 0,0 UV-I 98 W/m 3,9 C 16,5 C 5,7 km/h 100,00 %
15.02.2019 16:47 16,5 C 44 % 1028,2 hPa 0,0 l/m 1,4 km/h S-SO 152 0 min 0,000 mm 0,0 UV-I 100 W/m 4,2 C 16,5 C 3,8 km/h 100,00 %
15.02.2019 16:46 16,5 C 43 % 1028,2 hPa 0,0 l/m 1,7 km/h S-SO 152 0 min 0,000 mm 0,0 UV-I 103 W/m 3,9 C 16,5 C 5,7 km/h 100,00 %
15.02.2019 16:45 16,6 C 43 % 1028,2 hPa 0,0 l/m 1,5 km/h S-SO 153 0 min 0,000 mm 0,0 UV-I 106 W/m 4,0 C 16,6 C 3,8 km/h 100,00 %
15.02.2019 16:44 16,6 C 43 % 1028,2 hPa 0,0 l/m 2,6 km/h S-SO 153 0 min 0,000 mm 0,0 UV-I 108 W/m 4,0 C 16,6 C 5,7 km/h 100,00 %
15.02.2019 16:43 16,6 C 43 % 1028,2 hPa 0,0 l/m 1,0 km/h SO 127 0 min 0,000 mm 0,0 UV-I 112 W/m 4,0 C 16,6 C 1,9 km/h 100,00 %
15.02.2019 16:42 16,6 C 43 % 1028,2 hPa 0,0 l/m 2,9 km/h SO 127 0 min 0,000 mm 0,0 UV-I 114 W/m 4,0 C 16,6 C 5,7 km/h 100,00 %
15.02.2019 16:41 16,7 C 43 % 1028,3 hPa 0,0 l/m 2,7 km/h SO 128 0 min 0,000 mm 0,0 UV-I 117 W/m 4,1 C 16,7 C 3,8 km/h 100,00 %
15.02.2019 16:40 16,7 C 43 % 1028,3 hPa 0,0 l/m 3,0 km/h SO 128 0 min 0,000 mm 0,0 UV-I 120 W/m 4,1 C 16,7 C 7,7 km/h 100,00 %
15.02.2019 16:39 16,7 C 42 % 1028,3 hPa 0,0 l/m 3,1 km/h SO 127 0 min 0,000 mm 0,0 UV-I 123 W/m 3,7 C 16,7 C 3,8 km/h 100,00 %
15.02.2019 16:38 16,7 C 42 % 1028,3 hPa 0,0 l/m 4,3 km/h SO 127 0 min 0,000 mm 0,0 UV-I 126 W/m 3,7 C 16,7 C 5,7 km/h 100,00 %
15.02.2019 16:37 16,8 C 42 % 1028,4 hPa 0,0 l/m 2,9 km/h SO 127 0 min 0,000 mm 0,0 UV-I 128 W/m 3,8 C 16,8 C 5,7 km/h 100,00 %
15.02.2019 16:36 16,8 C 42 % 1028,3 hPa 0,0 l/m 1,2 km/h SO 134 0 min 0,000 mm 0,0 UV-I 130 W/m 3,8 C 16,8 C 3,8 km/h 100,00 %
15.02.2019 16:35 16,8 C 42 % 1028,3 hPa 0,0 l/m 3,5 km/h SO 134 0 min 0,000 mm 0,0 UV-I 134 W/m 3,8 C 16,8 C 7,7 km/h 100,00 %
15.02.2019 16:34 16,8 C 42 % 1028,4 hPa 0,0 l/m 5,7 km/h SO 135 0 min 0,000 mm 0,0 UV-I 136 W/m 3,8 C 16,8 C 7,7 km/h 100,00 %
15.02.2019 16:33 16,9 C 42 % 1028,4 hPa 0,0 l/m 3,0 km/h SO 130 0 min 0,000 mm 0,0 UV-I 139 W/m 3,9 C 16,9 C 5,7 km/h 95,65 %
15.02.2019 16:32 16,9 C 42 % 1028,4 hPa 0,0 l/m 0,8 km/h SO 142 0 min 0,000 mm 0,0 UV-I 142 W/m 3,9 C 16,9 C 3,8 km/h 100,00 %
15.02.2019 16:31 16,9 C 42 % 1028,4 hPa 0,0 l/m 4,1 km/h SO 141 0 min 0,000 mm 0,0 UV-I 145 W/m 3,9 C 16,9 C 5,7 km/h 95,65 %
15.02.2019 16:30 16,9 C 42 % 1028,5 hPa 0,0 l/m 1,0 km/h SO 142 0 min 0,000 mm 0,0 UV-I 148 W/m 3,9 C 16,9 C 3,8 km/h 100,00 %
15.02.2019 16:29 16,9 C 42 % 1028,5 hPa 0,0 l/m 2,0 km/h SO 142 0 min 0,000 mm 0,0 UV-I 150 W/m 3,9 C 16,9 C 3,8 km/h 100,00 %
15.02.2019 16:28 16,9 C 42 % 1028,5 hPa 0,0 l/m 2,9 km/h SO 142 0 min 0,000 mm 0,0 UV-I 154 W/m 3,9 C 16,9 C 3,8 km/h 100,00 %
15.02.2019 16:27 17,0 C 42 % 1028,5 hPa 0,0 l/m 0,7 km/h SO 142 0 min 0,000 mm 0,0 UV-I 156 W/m 4,0 C 17,0 C 3,8 km/h 100,00 %
15.02.2019 16:26 16,9 C 42 % 1028,5 hPa 0,0 l/m 1,5 km/h SO 142 0 min 0,000 mm 0,0 UV-I 159 W/m 3,9 C 16,9 C 1,9 km/h 100,00 %
15.02.2019 16:25 16,9 C 42 % 1028,5 hPa 0,0 l/m 2,2 km/h SO 142 0 min 0,000 mm 0,0 UV-I 162 W/m 3,9 C 16,9 C 3,8 km/h 100,00 %
15.02.2019 16:24 17,0 C 42 % 1028,5 hPa 0,0 l/m 2,0 km/h SO 142 0 min 0,000 mm 0,0 UV-I 164 W/m 4,0 C 17,0 C 3,8 km/h 100,00 %
15.02.2019 16:23 17,1 C 42 % 1028,6 hPa 0,0 l/m 2,7 km/h SO 138 0 min 0,000 mm 0,0 UV-I 168 W/m 4,1 C 17,1 C 5,7 km/h 100,00 %
15.02.2019 16:22 17,1 C 42 % 1028,6 hPa 0,0 l/m 1,4 km/h SO 138 0 min 0,000 mm 0,0 UV-I 170 W/m 4,1 C 17,1 C 3,8 km/h 100,00 %
15.02.2019 16:21 17,1 C 42 % 1028,6 hPa 0,0 l/m 1,5 km/h SO 138 0 min 0,000 mm 0,0 UV-I 173 W/m 4,1 C 17,1 C 3,8 km/h 100,00 %
15.02.2019 16:20 17,1 C 42 % 1028,6 hPa 0,0 l/m 2,3 km/h SO 138 0 min 0,000 mm 0,0 UV-I 177 W/m 4,1 C 17,1 C 3,8 km/h 100,00 %
15.02.2019 16:19 17,1 C 42 % 1028,6 hPa 0,0 l/m 1,1 km/h SO 125 0 min 0,000 mm 0,0 UV-I 179 W/m 4,1 C 17,1 C 3,8 km/h 100,00 %
15.02.2019 16:18 17,1 C 42 % 1028,6 hPa 0,0 l/m 2,9 km/h S-SO 149 0 min 0,000 mm 0,0 UV-I 182 W/m 4,1 C 17,1 C 3,8 km/h 100,00 %
15.02.2019 16:17 17,1 C 42 % 1028,6 hPa 0,0 l/m 3,3 km/h S-SO 149 0 min 0,000 mm 0,0 UV-I 186 W/m 4,1 C 17,1 C 5,7 km/h 100,00 %
15.02.2019 16:16 17,1 C 42 % 1028,7 hPa 0,0 l/m 5,5 km/h S-SO 165 0 min 0,000 mm 0,0 UV-I 189 W/m 4,1 C 17,1 C 7,7 km/h 96,15 %
15.02.2019 16:15 17,1 C 42 % 1028,8 hPa 0,0 l/m 0,9 km/h S-SO 150 0 min 0,000 mm 0,0 UV-I 191 W/m 4,1 C 17,1 C 1,9 km/h 100,00 %
15.02.2019 16:14 17,0 C 42 % 1028,7 hPa 0,0 l/m 5,0 km/h S-SO 150 0 min 0,000 mm 0,0 UV-I 193 W/m 4,0 C 17,0 C 7,7 km/h 95,83 %
15.02.2019 16:13 17,0 C 42 % 1028,7 hPa 0,0 l/m 2,6 km/h S-SO 167 0 min 0,000 mm 0,0 UV-I 197 W/m 4,0 C 17,0 C 5,7 km/h 100,00 %
15.02.2019 16:12 17,0 C 42 % 1028,8 hPa 0,0 l/m 4,9 km/h S-SO 167 0 min 0,000 mm 0,0 UV-I 200 W/m 4,0 C 17,0 C 7,7 km/h 100,00 %
15.02.2019 16:11 16,9 C 42 % 1028,7 hPa 0,0 l/m 1,5 km/h S-SO 167 0 min 0,000 mm 0,0 UV-I 203 W/m 3,9 C 16,9 C 5,7 km/h 100,00 %
15.02.2019 16:10 16,9 C 42 % 1028,8 hPa 0,0 l/m 3,3 km/h S-SO 167 0 min 0,000 mm 0,0 UV-I 206 W/m 3,9 C 16,9 C 7,7 km/h 100,00 %
15.02.2019 16:09 16,9 C 42 % 1028,8 hPa 0,0 l/m 6,4 km/h S-SO 167 0 min 0,000 mm 0,0 UV-I 208 W/m 3,9 C 16,9 C 9,6 km/h 100,00 %
15.02.2019 16:08 16,9 C 42 % 1028,8 hPa 0,0 l/m 6,9 km/h S 181 0 min 0,000 mm 0,0 UV-I 211 W/m 3,9 C 16,7 C 11,5 km/h 100,00 %
15.02.2019 16:07 16,9 C 42 % 1028,8 hPa 0,0 l/m 5,9 km/h S 178 0 min 0,000 mm 0,0 UV-I 214 W/m 3,9 C 16,9 C 9,6 km/h 100,00 %
15.02.2019 16:06 17,0 C 42 % 1028,8 hPa 0,0 l/m 4,5 km/h S-SO 168 0 min 0,000 mm 0,0 UV-I 216 W/m 4,0 C 17,0 C 7,7 km/h 100,00 %
15.02.2019 16:05 17,0 C 42 % 1028,8 hPa 0,0 l/m 3,8 km/h S 169 0 min 0,000 mm 0,0 UV-I 219 W/m 4,0 C 17,0 C 9,6 km/h 100,00 %
15.02.2019 16:04 17,0 C 42 % 1028,8 hPa 0,0 l/m 2,4 km/h S 184 0 min 0,000 mm 0,0 UV-I 222 W/m 4,0 C 17,0 C 5,7 km/h 95,65 %
15.02.2019 16:03 17,0 C 42 % 1028,8 hPa 0,0 l/m 3,7 km/h S 184 0 min 0,000 mm 0,0 UV-I 225 W/m 4,0 C 17,0 C 9,6 km/h 93,33 %
15.02.2019 16:02 17,0 C 42 % 1028,9 hPa 0,0 l/m 7,7 km/h S-SO 160 0 min 0,000 mm 0,1 UV-I 228 W/m 4,0 C 16,3 C 13,4 km/h 96,30 %
15.02.2019 16:01 17,0 C 42 % 1028,8 hPa 0,0 l/m 4,3 km/h SO 128 0 min 0,203 mm 0,5 UV-I 230 W/m 4,0 C 17,0 C 7,7 km/h 100,00 %
15.02.2019 16:00 17,1 C 42 % 1028,9 hPa 0,0 l/m 6,9 km/h SO 128 0 min 0,000 mm 0,5 UV-I 234 W/m 4,1 C 16,9 C 11,5 km/h 100,00 %
15.02.2019 15:59 17,1 C 42 % 1028,9 hPa 0,0 l/m 4,0 km/h S-SO 161 0 min 0,000 mm 0,5 UV-I 237 W/m 4,1 C 17,1 C 7,7 km/h 100,00 %
15.02.2019 15:58 17,1 C 42 % 1028,9 hPa 0,0 l/m 5,7 km/h S-SO 162 0 min 0,000 mm 0,5 UV-I 240 W/m 4,1 C 17,1 C 9,6 km/h 100,00 %
15.02.2019 15:57 17,1 C 42 % 1028,9 hPa 0,0 l/m 3,8 km/h SO 146 0 min 0,000 mm 0,5 UV-I 243 W/m 4,1 C 17,1 C 7,7 km/h 100,00 %
15.02.2019 15:56 17,1 C 42 % 1028,9 hPa 0,0 l/m 4,1 km/h S-SO 152 0 min 0,000 mm 0,5 UV-I 244 W/m 4,1 C 17,1 C 5,7 km/h 100,00 %
15.02.2019 15:55 17,1 C 42 % 1028,9 hPa 0,0 l/m 5,3 km/h SO 142 0 min 0,000 mm 0,5 UV-I 248 W/m 4,1 C 17,1 C 9,6 km/h 100,00 %
15.02.2019 15:54 17,1 C 42 % 1028,9 hPa 0,0 l/m 5,8 km/h SO 126 0 min 0,000 mm 0,5 UV-I 251 W/m 4,1 C 17,1 C 7,7 km/h 100,00 %
15.02.2019 15:53 17,1 C 42 % 1028,9 hPa 0,0 l/m 5,4 km/h SO 134 0 min 0,000 mm 0,5 UV-I 254 W/m 4,1 C 17,1 C 7,7 km/h 98,39 %
15.02.2019 15:52 17,2 C 42 % 1028,9 hPa 0,0 l/m 2,6 km/h SO 142 0 min 0,000 mm 0,5 UV-I 256 W/m 4,2 C 17,2 C 5,7 km/h 100,00 %
15.02.2019 15:51 17,2 C 42 % 1028,9 hPa 0,0 l/m 5,1 km/h SO 128 0 min 0,000 mm 0,5 UV-I 258 W/m 4,2 C 17,2 C 9,6 km/h 100,00 %
15.02.2019 15:50 17,2 C 42 % 1028,9 hPa 0,0 l/m 3,9 km/h SO 146 0 min 0,000 mm 0,5 UV-I 260 W/m 4,2 C 17,2 C 7,7 km/h 100,00 %
15.02.2019 15:49 17,2 C 43 % 1029,0 hPa 0,0 l/m 3,1 km/h S-SO 166 0 min 0,000 mm 0,5 UV-I 264 W/m 4,5 C 17,2 C 5,7 km/h 100,00 %
15.02.2019 15:48 17,2 C 43 % 1029,0 hPa 0,0 l/m 4,2 km/h S 173 0 min 0,000 mm 0,5 UV-I 266 W/m 4,5 C 17,2 C 9,6 km/h 100,00 %
15.02.2019 15:47 17,2 C 43 % 1029,0 hPa 0,0 l/m 3,5 km/h SO 140 0 min 0,000 mm 0,6 UV-I 268 W/m 4,5 C 17,2 C 5,7 km/h 95,65 %
15.02.2019 15:46 17,2 C 43 % 1029,0 hPa 0,0 l/m 6,4 km/h S-SO 159 0 min 0,000 mm 0,6 UV-I 270 W/m 4,5 C 17,2 C 11,5 km/h 100,00 %
15.02.2019 15:45 17,2 C 43 % 1029,0 hPa 0,0 l/m 1,9 km/h S-SO 157 0 min 0,000 mm 0,6 UV-I 274 W/m 4,5 C 17,2 C 3,8 km/h 100,00 %
15.02.2019 15:44 17,2 C 42 % 1029,0 hPa 0,0 l/m 3,9 km/h S-SO 157 0 min 0,000 mm 0,6 UV-I 276 W/m 4,2 C 17,2 C 9,6 km/h 100,00 %
15.02.2019 15:43 17,1 C 43 % 1029,1 hPa 0,0 l/m 3,8 km/h S-SO 150 0 min 0,000 mm 0,6 UV-I 278 W/m 4,4 C 17,1 C 9,6 km/h 100,00 %
15.02.2019 15:42 17,1 C 43 % 1029,1 hPa 0,0 l/m 1,4 km/h S 170 0 min 0,000 mm 0,6 UV-I 280 W/m 4,4 C 17,1 C 3,8 km/h 100,00 %
15.02.2019 15:41 17,0 C 43 % 1029,1 hPa 0,0 l/m 1,8 km/h S 170 0 min 0,000 mm 0,6 UV-I 283 W/m 4,3 C 17,0 C 3,8 km/h 100,00 %
15.02.2019 15:40 17,0 C 42 % 1029,2 hPa 0,0 l/m 4,4 km/h S 170 0 min 0,000 mm 0,6 UV-I 287 W/m 4,0 C 17,0 C 7,7 km/h 96,15 %
15.02.2019 15:39 17,0 C 42 % 1029,1 hPa 0,0 l/m 7,2 km/h S 170 1 min 0,000 mm 0,6 UV-I 288 W/m 4,0 C 16,6 C 9,6 km/h 100,00 %
15.02.2019 15:38 17,1 C 42 % 1029,1 hPa 0,0 l/m 9,3 km/h S 178 1 min 0,000 mm 0,6 UV-I 290 W/m 4,1 C 15,7 C 9,6 km/h 100,00 %
15.02.2019 15:37 17,1 C 43 % 1029,1 hPa 0,0 l/m 4,7 km/h S-SO 168 1 min 0,000 mm 0,6 UV-I 292 W/m 4,4 C 17,1 C 9,6 km/h 95,83 %
15.02.2019 15:36 17,1 C 42 % 1029,1 hPa 0,0 l/m 3,9 km/h S 183 1 min 0,000 mm 0,6 UV-I 295 W/m 4,1 C 17,1 C 5,7 km/h 100,00 %
15.02.2019 15:35 17,1 C 42 % 1029,1 hPa 0,0 l/m 5,9 km/h S-SO 165 1 min 0,000 mm 0,6 UV-I 297 W/m 4,1 C 17,1 C 9,6 km/h 100,00 %
15.02.2019 15:34 17,1 C 42 % 1029,1 hPa 0,0 l/m 2,2 km/h S-SO 165 1 min 0,000 mm 0,6 UV-I 298 W/m 4,1 C 17,1 C 3,8 km/h 95,65 %
15.02.2019 15:33 17,1 C 41 % 1029,2 hPa 0,0 l/m 4,4 km/h S-SO 165 1 min 0,000 mm 0,7 UV-I 301 W/m 3,7 C 17,1 C 7,7 km/h 93,33 %
15.02.2019 15:32 17,2 C 41 % 1029,2 hPa 0,0 l/m 6,1 km/h SO 135 1 min 0,000 mm 0,7 UV-I 304 W/m 3,8 C 17,2 C 9,6 km/h 100,00 %
15.02.2019 15:31 17,2 C 41 % 1029,2 hPa 0,0 l/m 8,0 km/h S 178 1 min 0,000 mm 0,7 UV-I 304 W/m 3,8 C 16,4 C 11,5 km/h 100,00 %
15.02.2019 15:30 17,3 C 41 % 1029,2 hPa 0,0 l/m 8,7 km/h S 172 1 min 0,000 mm 0,7 UV-I 307 W/m 3,9 C 16,2 C 15,3 km/h 95,65 %
15.02.2019 15:29 17,3 C 42 % 1029,2 hPa 0,0 l/m 5,1 km/h S 175 1 min 0,000 mm 0,7 UV-I 308 W/m 4,3 C 17,3 C 11,5 km/h 100,00 %
15.02.2019 15:28 17,2 C 43 % 1029,2 hPa 0,0 l/m 2,4 km/h SO 146 1 min 0,000 mm 0,7 UV-I 310 W/m 4,5 C 17,2 C 5,7 km/h 100,00 %
15.02.2019 15:27 17,2 C 43 % 1029,2 hPa 0,0 l/m 0,7 km/h SO 129 1 min 0,000 mm 0,7 UV-I 313 W/m 4,5 C 17,2 C 3,8 km/h 100,00 %
15.02.2019 15:26 17,2 C 42 % 1029,2 hPa 0,0 l/m 6,4 km/h SO 128 1 min 0,000 mm 0,7 UV-I 315 W/m 4,2 C 17,2 C 11,5 km/h 95,65 %
15.02.2019 15:25 17,2 C 42 % 1029,2 hPa 0,0 l/m 6,9 km/h O-SO 118 1 min 0,000 mm 0,7 UV-I 316 W/m 4,2 C 17,0 C 13,4 km/h 100,00 %
15.02.2019 15:24 17,2 C 43 % 1029,2 hPa 0,0 l/m 3,6 km/h S-SO 161 1 min 0,000 mm 0,7 UV-I 318 W/m 4,5 C 17,2 C 7,7 km/h 100,00 %
15.02.2019 15:23 17,1 C 43 % 1029,2 hPa 0,0 l/m 6,6 km/h S-SO 161 1 min 0,000 mm 0,7 UV-I 320 W/m 4,4 C 17,0 C 11,5 km/h 100,00 %
15.02.2019 15:22 17,1 C 43 % 1029,3 hPa 0,0 l/m 1,4 km/h SO 130 1 min 0,000 mm 0,7 UV-I 322 W/m 4,4 C 17,1 C 3,8 km/h 100,00 %
15.02.2019 15:21 17,1 C 42 % 1029,3 hPa 0,0 l/m 4,1 km/h SO 127 1 min 0,000 mm 0,7 UV-I 323 W/m 4,1 C 17,1 C 7,7 km/h 100,00 %
15.02.2019 15:20 17,1 C 42 % 1029,3 hPa 0,0 l/m 5,3 km/h SO 126 1 min 0,000 mm 0,8 UV-I 325 W/m 4,1 C 17,1 C 7,7 km/h 100,00 %
15.02.2019 15:19 17,0 C 42 % 1029,3 hPa 0,0 l/m 6,7 km/h SO 142 1 min 0,000 mm 0,8 UV-I 328 W/m 4,0 C 16,9 C 9,6 km/h 100,00 %
15.02.2019 15:18 17,0 C 42 % 1029,3 hPa 0,0 l/m 4,6 km/h SO 146 1 min 0,000 mm 0,8 UV-I 329 W/m 4,0 C 17,0 C 11,5 km/h 100,00 %
15.02.2019 15:17 17,0 C 42 % 1029,3 hPa 0,0 l/m 4,3 km/h S-SO 159 1 min 0,000 mm 0,8 UV-I 331 W/m 4,0 C 17,0 C 7,7 km/h 100,00 %
15.02.2019 15:16 17,0 C 41 % 1029,3 hPa 0,0 l/m 7,2 km/h S-SO 161 1 min 0,000 mm 0,8 UV-I 334 W/m 3,7 C 16,6 C 11,5 km/h 100,00 %
15.02.2019 15:15 17,1 C 42 % 1029,3 hPa 0,0 l/m 7,4 km/h S-SO 151 1 min 0,000 mm 0,8 UV-I 336 W/m 4,1 C 16,6 C 9,6 km/h 100,00 %
15.02.2019 15:14 17,0 C 42 % 1029,4 hPa 0,0 l/m 5,9 km/h S 182 1 min 0,000 mm 0,8 UV-I 338 W/m 4,0 C 17,0 C 11,5 km/h 100,00 %
15.02.2019 15:13 17,0 C 43 % 1029,3 hPa 0,0 l/m 5,3 km/h S-SO 147 1 min 0,000 mm 0,8 UV-I 339 W/m 4,3 C 17,0 C 7,7 km/h 91,30 %
15.02.2019 15:12 17,0 C 42 % 1029,4 hPa 0,0 l/m 4,6 km/h SO 138 1 min 0,000 mm 0,8 UV-I 340 W/m 4,0 C 17,0 C 7,7 km/h 100,00 %
15.02.2019 15:11 17,0 C 42 % 1029,4 hPa 0,0 l/m 5,3 km/h S-SO 148 1 min 0,000 mm 0,8 UV-I 342 W/m 4,0 C 17,0 C 7,7 km/h 100,00 %
15.02.2019 15:10 16,9 C 42 % 1029,4 hPa 0,0 l/m 4,5 km/h S 191 1 min 0,000 mm 0,8 UV-I 344 W/m 3,9 C 16,9 C 7,7 km/h 100,00 %
15.02.2019 15:09 16,9 C 42 % 1029,4 hPa 0,0 l/m 7,6 km/h SO 133 1 min 0,000 mm 0,8 UV-I 346 W/m 3,9 C 16,3 C 11,5 km/h 100,00 %
15.02.2019 15:08 17,0 C 42 % 1029,4 hPa 0,0 l/m 7,3 km/h SO 124 1 min 0,000 mm 0,8 UV-I 348 W/m 4,0 C 16,5 C 13,4 km/h 100,00 %
15.02.2019 15:07 17,1 C 42 % 1029,4 hPa 0,0 l/m 6,1 km/h O-SO 106 1 min 0,000 mm 0,9 UV-I 350 W/m 4,1 C 17,1 C 7,7 km/h 100,00 %
15.02.2019 15:06 17,1 C 42 % 1029,4 hPa 0,0 l/m 5,0 km/h SO 135 1 min 0,000 mm 0,9 UV-I 352 W/m 4,1 C 17,1 C 9,6 km/h 100,00 %
15.02.2019 15:05 17,0 C 42 % 1029,4 hPa 0,0 l/m 5,8 km/h SO 139 1 min 0,000 mm 0,9 UV-I 353 W/m 4,0 C 17,0 C 7,7 km/h 100,00 %
15.02.2019 15:04 17,1 C 42 % 1029,4 hPa 0,0 l/m 6,5 km/h S-SO 158 1 min 0,000 mm 0,9 UV-I 356 W/m 4,1 C 17,1 C 11,5 km/h 100,00 %
15.02.2019 15:03 17,1 C 42 % 1029,4 hPa 0,0 l/m 7,9 km/h S-SO 159 1 min 0,000 mm 0,9 UV-I 357 W/m 4,1 C 16,4 C 11,5 km/h 100,00 %
15.02.2019 15:02 17,2 C 42 % 1029,4 hPa 0,0 l/m 5,8 km/h S 182 1 min 0,000 mm 0,9 UV-I 357 W/m 4,2 C 17,2 C 9,6 km/h 100,00 %
15.02.2019 15:01 17,2 C 42 % 1029,4 hPa 0,0 l/m 5,9 km/h O-SO 116 1 min 0,254 mm 0,9 UV-I 359 W/m 4,2 C 17,2 C 7,7 km/h 96,30 %
15.02.2019 15:00 17,2 C 43 % 1029,4 hPa 0,0 l/m 5,0 km/h SO 126 1 min 0,000 mm 0,9 UV-I 361 W/m 4,5 C 17,2 C 7,7 km/h 100,00 %
15.02.2019 14:59 17,2 C 42 % 1029,4 hPa 0,0 l/m 4,1 km/h S-SO 153 1 min 0,000 mm 0,9 UV-I 363 W/m 4,2 C 17,2 C 5,7 km/h 100,00 %
15.02.2019 14:58 17,1 C 43 % 1029,4 hPa 0,0 l/m 2,2 km/h SO 138 1 min 0,000 mm 0,9 UV-I 364 W/m 4,4 C 17,1 C 3,8 km/h 100,00 %
15.02.2019 14:57 17,1 C 43 % 1029,5 hPa 0,0 l/m 5,2 km/h SO 139 1 min 0,000 mm 0,9 UV-I 367 W/m 4,4 C 17,1 C 7,7 km/h 100,00 %
15.02.2019 14:56 16,9 C 43 % 1029,4 hPa 0,0 l/m 5,9 km/h O-SO 117 1 min 0,000 mm 0,9 UV-I 367 W/m 4,2 C 16,9 C 7,7 km/h 100,00 %
15.02.2019 14:55 16,9 C 42 % 1029,5 hPa 0,0 l/m 5,5 km/h S-SO 152 1 min 0,000 mm 0,9 UV-I 370 W/m 3,9 C 16,9 C 7,7 km/h 100,00 %
15.02.2019 14:54 16,9 C 42 % 1029,5 hPa 0,0 l/m 3,7 km/h S-SO 154 1 min 0,000 mm 1,0 UV-I 372 W/m 3,9 C 16,9 C 7,7 km/h 95,65 %
15.02.2019 14:53 17,0 C 42 % 1029,5 hPa 0,0 l/m 6,3 km/h S-SO 154 1 min 0,000 mm 1,0 UV-I 374 W/m 4,0 C 17,0 C 9,6 km/h 100,00 %
15.02.2019 14:52 17,1 C 42 % 1029,5 hPa 0,0 l/m 7,2 km/h S-SO 156 1 min 0,000 mm 1,0 UV-I 374 W/m 4,1 C 16,7 C 11,5 km/h 96,55 %
15.02.2019 14:51 17,1 C 42 % 1029,5 hPa 0,0 l/m 5,2 km/h SO 125 1 min 0,000 mm 1,0 UV-I 376 W/m 4,1 C 17,1 C 9,6 km/h 91,67 %
15.02.2019 14:50 17,1 C 43 % 1029,5 hPa 0,0 l/m 5,4 km/h SO 131 1 min 0,000 mm 1,0 UV-I 379 W/m 4,4 C 17,1 C 9,6 km/h 100,00 %
15.02.2019 14:49 17,0 C 42 % 1029,5 hPa 0,0 l/m 6,8 km/h O-SO 110 1 min 0,000 mm 1,0 UV-I 381 W/m 4,0 C 16,8 C 11,5 km/h 96,67 %
15.02.2019 14:48 16,9 C 43 % 1029,6 hPa 0,0 l/m 4,7 km/h O-SO 121 1 min 0,000 mm 1,0 UV-I 381 W/m 4,2 C 16,9 C 7,7 km/h 100,00 %
15.02.2019 14:47 16,8 C 42 % 1029,6 hPa 0,0 l/m 4,5 km/h O-SO 121 1 min 0,000 mm 1,0 UV-I 382 W/m 3,8 C 16,8 C 5,7 km/h 93,33 %
15.02.2019 14:46 16,9 C 42 % 1029,6 hPa 0,0 l/m 7,0 km/h SO 142 1 min 0,000 mm 1,0 UV-I 385 W/m 3,9 C 16,6 C 11,5 km/h 100,00 %
15.02.2019 14:45 16,9 C 42 % 1029,6 hPa 0,0 l/m 5,0 km/h SO 144 1 min 0,000 mm 1,0 UV-I 387 W/m 3,9 C 16,9 C 13,4 km/h 96,30 %
15.02.2019 14:44 16,9 C 42 % 1029,6 hPa 0,0 l/m 7,7 km/h O-SO 117 1 min 0,000 mm 1,0 UV-I 388 W/m 3,9 C 16,2 C 13,4 km/h 95,65 %
15.02.2019 14:43 17,0 C 43 % 1029,7 hPa 0,0 l/m 6,4 km/h SO 142 1 min 0,000 mm 1,0 UV-I 389 W/m 4,3 C 17,0 C 13,4 km/h 100,00 %
15.02.2019 14:42 16,9 C 43 % 1029,7 hPa 0,0 l/m 5,6 km/h SO 139 1 min 0,000 mm 1,0 UV-I 390 W/m 4,2 C 16,9 C 9,6 km/h 96,15 %
15.02.2019 14:41 16,9 C 42 % 1029,7 hPa 0,0 l/m 7,9 km/h SO 126 1 min 0,000 mm 1,0 UV-I 392 W/m 3,9 C 16,1 C 15,3 km/h 100,00 %
15.02.2019 14:40 17,0 C 43 % 1029,7 hPa 0,0 l/m 8,2 km/h SO 132 1 min 0,000 mm 1,1 UV-I 392 W/m 4,3 C 16,1 C 13,4 km/h 95,83 %
15.02.2019 14:39 16,9 C 43 % 1029,7 hPa 0,0 l/m 4,3 km/h O-SO 115 1 min 0,000 mm 1,1 UV-I 394 W/m 4,2 C 16,9 C 7,7 km/h 100,00 %
15.02.2019 14:38 16,9 C 44 % 1029,7 hPa 0,0 l/m 4,9 km/h SO 124 1 min 0,000 mm 1,1 UV-I 396 W/m 4,6 C 16,9 C 13,4 km/h 95,83 %
15.02.2019 14:37 16,8 C 44 % 1029,7 hPa 0,0 l/m 6,3 km/h SO 127 1 min 0,000 mm 1,1 UV-I 396 W/m 4,5 C 16,8 C 9,6 km/h 100,00 %
15.02.2019 14:36 16,8 C 43 % 1029,7 hPa 0,0 l/m 5,9 km/h O-SO 117 1 min 0,000 mm 1,1 UV-I 398 W/m 4,2 C 16,8 C 7,7 km/h 96,30 %
15.02.2019 14:35 16,8 C 43 % 1029,8 hPa 0,0 l/m 7,7 km/h O-SO 107 1 min 0,000 mm 1,1 UV-I 400 W/m 4,2 C 16,1 C 11,5 km/h 95,65 %
15.02.2019 14:34 16,8 C 43 % 1029,8 hPa 0,0 l/m 5,7 km/h O-SO 107 1 min 0,000 mm 1,1 UV-I 401 W/m 4,2 C 16,8 C 9,6 km/h 100,00 %
15.02.2019 14:33 16,9 C 42 % 1029,8 hPa 0,0 l/m 7,9 km/h SO 140 1 min 0,000 mm 1,1 UV-I 403 W/m 3,9 C 16,1 C 11,5 km/h 96,15 %
15.02.2019 14:32 16,9 C 43 % 1029,8 hPa 0,0 l/m 6,8 km/h SO 131 1 min 0,000 mm 1,1 UV-I 404 W/m 4,2 C 16,7 C 11,5 km/h 93,75 %
15.02.2019 14:31 16,8 C 43 % 1029,8 hPa 0,0 l/m 3,9 km/h O-SO 111 1 min 0,000 mm 1,1 UV-I 406 W/m 4,2 C 16,8 C 13,4 km/h 96,15 %
15.02.2019 14:30 16,7 C 43 % 1029,8 hPa 0,0 l/m 3,3 km/h SO 142 1 min 0,000 mm 1,1 UV-I 406 W/m 4,1 C 16,7 C 3,8 km/h 100,00 %
15.02.2019 14:29 16,8 C 43 % 1029,9 hPa 0,0 l/m 5,2 km/h SO 142 1 min 0,000 mm 1,1 UV-I 407 W/m 4,2 C 16,8 C 9,6 km/h 95,83 %
15.02.2019 14:28 16,8 C 42 % 1029,8 hPa 0,0 l/m 6,9 km/h S-SO 151 1 min 0,000 mm 1,1 UV-I 408 W/m 3,8 C 16,5 C 13,4 km/h 95,83 %
15.02.2019 14:27 16,8 C 44 % 1029,9 hPa 0,0 l/m 6,1 km/h S-SO 162 1 min 0,000 mm 1,1 UV-I 410 W/m 4,5 C 16,8 C 13,4 km/h 100,00 %
15.02.2019 14:26 16,7 C 43 % 1029,9 hPa 0,0 l/m 9,8 km/h SO 127 1 min 0,000 mm 1,1 UV-I 411 W/m 4,1 C 15,1 C 15,3 km/h 91,67 %
15.02.2019 14:25 16,7 C 42 % 1029,9 hPa 0,0 l/m 6,0 km/h O-SO 115 1 min 0,000 mm 1,2 UV-I 411 W/m 3,7 C 16,7 C 9,6 km/h 100,00 %
15.02.2019 14:24 16,7 C 44 % 1029,9 hPa 0,0 l/m 2,3 km/h S-SO 147 1 min 0,000 mm 1,2 UV-I 412 W/m 4,4 C 16,7 C 3,8 km/h 95,65 %
15.02.2019 14:23 16,6 C 43 % 1029,9 hPa 0,0 l/m 4,4 km/h SO 125 1 min 0,000 mm 1,2 UV-I 414 W/m 4,0 C 16,6 C 11,5 km/h 100,00 %
15.02.2019 14:22 16,6 C 43 % 1030,0 hPa 0,0 l/m 6,9 km/h O-SO 121 1 min 0,000 mm 1,2 UV-I 415 W/m 4,0 C 16,3 C 11,5 km/h 95,65 %
15.02.2019 14:21 16,6 C 43 % 1030,0 hPa 0,0 l/m 6,5 km/h SO 140 1 min 0,000 mm 1,2 UV-I 417 W/m 4,0 C 16,6 C 13,4 km/h 100,00 %
15.02.2019 14:20 16,6 C 43 % 1030,0 hPa 0,0 l/m 6,8 km/h SO 142 1 min 0,000 mm 1,2 UV-I 417 W/m 4,0 C 16,4 C 11,5 km/h 95,65 %
15.02.2019 14:19 16,6 C 43 % 1030,0 hPa 0,0 l/m 7,3 km/h S-SO 165 1 min 0,000 mm 1,2 UV-I 418 W/m 4,0 C 16,1 C 9,6 km/h 96,67 %
15.02.2019 14:18 16,6 C 43 % 1030,0 hPa 0,0 l/m 5,0 km/h SO 126 1 min 0,000 mm 1,2 UV-I 420 W/m 4,0 C 16,6 C 9,6 km/h 100,00 %
15.02.2019 14:17 16,6 C 44 % 1030,0 hPa 0,0 l/m 5,4 km/h SO 144 1 min 0,000 mm 1,2 UV-I 420 W/m 4,3 C 16,6 C 7,7 km/h 91,67 %
15.02.2019 14:16 16,4 C 43 % 1030,1 hPa 0,0 l/m 5,3 km/h SO 140 1 min 0,000 mm 1,2 UV-I 422 W/m 3,8 C 16,4 C 7,7 km/h 100,00 %
15.02.2019 14:15 16,4 C 44 % 1030,1 hPa 0,0 l/m 4,2 km/h O-SO 119 1 min 0,000 mm 1,2 UV-I 424 W/m 4,1 C 16,4 C 7,7 km/h 95,83 %
15.02.2019 14:14 16,3 C 44 % 1030,1 hPa 0,0 l/m 6,4 km/h S-SO 149 1 min 0,000 mm 1,2 UV-I 424 W/m 4,0 C 16,3 C 13,4 km/h 100,00 %
15.02.2019 14:13 16,3 C 43 % 1030,2 hPa 0,0 l/m 9,6 km/h SO 136 1 min 0,000 mm 1,2 UV-I 425 W/m 3,7 C 14,7 C 13,4 km/h 95,83 %
15.02.2019 14:12 16,4 C 43 % 1030,1 hPa 0,0 l/m 5,7 km/h SO 144 1 min 0,000 mm 1,2 UV-I 426 W/m 3,8 C 16,4 C 13,4 km/h 96,67 %
15.02.2019 14:11 16,4 C 43 % 1030,1 hPa 0,0 l/m 7,8 km/h SO 134 1 min 0,000 mm 1,2 UV-I 427 W/m 3,8 C 15,7 C 9,6 km/h 100,00 %
15.02.2019 14:10 16,5 C 43 % 1030,1 hPa 0,0 l/m 11,7 km/h SO 133 1 min 0,000 mm 1,2 UV-I 427 W/m 3,9 C 14,1 C 17,2 km/h 95,65 %
15.02.2019 14:09 16,5 C 44 % 1030,2 hPa 0,0 l/m 6,3 km/h S-SO 160 1 min 0,000 mm 1,2 UV-I 429 W/m 4,2 C 16,5 C 13,4 km/h 100,00 %
15.02.2019 14:08 16,5 C 44 % 1030,1 hPa 0,0 l/m 5,9 km/h S-SW 193 1 min 0,000 mm 1,3 UV-I 431 W/m 4,2 C 16,5 C 11,5 km/h 96,15 %
15.02.2019 14:07 16,5 C 43 % 1030,2 hPa 0,0 l/m 5,4 km/h SO 128 1 min 0,000 mm 1,3 UV-I 431 W/m 3,9 C 16,5 C 9,6 km/h 100,00 %
15.02.2019 14:06 16,6 C 43 % 1030,2 hPa 0,0 l/m 10,6 km/h S-SO 163 1 min 0,000 mm 1,3 UV-I 432 W/m 4,0 C 14,6 C 17,2 km/h 96,15 %
15.02.2019 14:05 16,6 C 43 % 1030,2 hPa 0,0 l/m 6,6 km/h S-SO 168 1 min 0,000 mm 1,3 UV-I 432 W/m 4,0 C 16,5 C 13,4 km/h 100,00 %
15.02.2019 14:04 16,6 C 43 % 1030,2 hPa 0,0 l/m 5,1 km/h S-SO 150 1 min 0,000 mm 1,3 UV-I 434 W/m 4,0 C 16,6 C 7,7 km/h 95,83 %
15.02.2019 14:03 16,6 C 44 % 1030,3 hPa 0,0 l/m 4,9 km/h SO 126 1 min 0,000 mm 1,3 UV-I 434 W/m 4,3 C 16,6 C 7,7 km/h 95,65 %
15.02.2019 14:02 16,6 C 43 % 1030,3 hPa 0,0 l/m 6,9 km/h S-SO 158 1 min 0,001 mm 1,3 UV-I 436 W/m 4,0 C 16,3 C 11,5 km/h 95,65 %
15.02.2019 14:01 16,5 C 43 % 1030,3 hPa 0,0 l/m 6,4 km/h S 177 1 min 0,279 mm 1,3 UV-I 437 W/m 3,9 C 16,5 C 11,5 km/h 91,30 %
15.02.2019 14:00 16,6 C 43 % 1030,3 hPa 0,0 l/m 7,3 km/h SO 133 1 min 0,000 mm 1,3 UV-I 437 W/m 4,0 C 16,1 C 13,4 km/h 100,00 %
15.02.2019 13:59 16,6 C 43 % 1030,3 hPa 0,0 l/m 7,2 km/h S 183 1 min 0,000 mm 1,3 UV-I 438 W/m 4,0 C 16,2 C 11,5 km/h 92,31 %
15.02.2019 13:58 16,6 C 43 % 1030,4 hPa 0,0 l/m 5,0 km/h SO 128 1 min 0,000 mm 1,3 UV-I 438 W/m 4,0 C 16,6 C 9,6 km/h 100,00 %
15.02.2019 13:57 16,6 C 43 % 1030,3 hPa 0,0 l/m 5,0 km/h S-SO 148 1 min 0,000 mm 1,3 UV-I 439 W/m 4,0 C 16,6 C 7,7 km/h 95,65 %
15.02.2019 13:56 16,6 C 44 % 1030,3 hPa 0,0 l/m 1,6 km/h S-SO 157 1 min 0,000 mm 1,3 UV-I 440 W/m 4,3 C 16,6 C 5,7 km/h 100,00 %
15.02.2019 13:55 16,5 C 44 % 1030,3 hPa 0,0 l/m 4,8 km/h SO 139 1 min 0,000 mm 1,3 UV-I 441 W/m 4,2 C 16,5 C 7,7 km/h 95,65 %
15.02.2019 13:54 16,4 C 43 % 1030,4 hPa 0,0 l/m 5,3 km/h S-SO 167 1 min 0,000 mm 1,3 UV-I 442 W/m 3,8 C 16,4 C 7,7 km/h 100,00 %
15.02.2019 13:53 16,4 C 44 % 1030,4 hPa 0,0 l/m 5,3 km/h S-SO 167 1 min 0,000 mm 1,3 UV-I 443 W/m 4,1 C 16,4 C 9,6 km/h 95,65 %
15.02.2019 13:52 16,3 C 44 % 1030,4 hPa 0,0 l/m 2,9 km/h SO 134 1 min 0,000 mm 1,3 UV-I 443 W/m 4,0 C 16,3 C 3,8 km/h 100,00 %
15.02.2019 13:51 16,3 C 43 % 1030,4 hPa 0,0 l/m 4,5 km/h SO 133 1 min 0,000 mm 1,3 UV-I 445 W/m 3,7 C 16,3 C 7,7 km/h 95,65 %
15.02.2019 13:50 16,3 C 43 % 1030,4 hPa 0,0 l/m 9,6 km/h S-SO 157 1 min 0,000 mm 1,3 UV-I 445 W/m 3,7 C 14,7 C 15,3 km/h 100,00 %
15.02.2019 13:49 16,3 C 45 % 1030,5 hPa 0,0 l/m 5,8 km/h SO 124 1 min 0,000 mm 1,3 UV-I 446 W/m 4,3 C 16,3 C 7,7 km/h 100,00 %
15.02.2019 13:48 16,3 C 44 % 1030,4 hPa 0,0 l/m 4,0 km/h SO 138 1 min 0,000 mm 1,3 UV-I 446 W/m 4,0 C 16,3 C 9,6 km/h 96,15 %
15.02.2019 13:47 16,2 C 44 % 1030,5 hPa 0,0 l/m 3,4 km/h SO 141 1 min 0,000 mm 1,3 UV-I 448 W/m 3,9 C 16,2 C 5,7 km/h 96,55 %
15.02.2019 13:46 16,1 C 44 % 1030,5 hPa 0,0 l/m 5,1 km/h S-SO 148 1 min 0,000 mm 1,3 UV-I 448 W/m 3,8 C 16,1 C 9,6 km/h 100,00 %
15.02.2019 13:45 16,0 C 44 % 1030,5 hPa 0,0 l/m 4,0 km/h S 176 1 min 0,000 mm 1,3 UV-I 450 W/m 3,8 C 16,0 C 7,7 km/h 100,00 %
15.02.2019 13:44 15,9 C 45 % 1030,5 hPa 0,0 l/m 7,6 km/h S-SO 157 1 min 0,000 mm 1,3 UV-I 451 W/m 4,0 C 15,3 C 13,4 km/h 100,00 %
15.02.2019 13:43 15,9 C 44 % 1030,5 hPa 0,0 l/m 9,9 km/h SO 140 1 min 0,000 mm 1,3 UV-I 452 W/m 3,7 C 14,2 C 15,3 km/h 96,55 %
15.02.2019 13:42 15,9 C 44 % 1030,5 hPa 0,0 l/m 4,9 km/h SO 131 1 min 0,000 mm 1,3 UV-I 450 W/m 3,7 C 15,9 C 15,3 km/h 100,00 %
15.02.2019 13:41 15,9 C 44 % 1030,6 hPa 0,0 l/m 7,6 km/h SO 137 1 min 0,000 mm 1,3 UV-I 452 W/m 3,7 C 15,3 C 13,4 km/h 100,00 %
15.02.2019 13:40 15,9 C 44 % 1030,6 hPa 0,0 l/m 4,1 km/h S 172 1 min 0,000 mm 1,3 UV-I 452 W/m 3,7 C 15,9 C 9,6 km/h 95,65 %
15.02.2019 13:39 15,8 C 44 % 1030,6 hPa 0,0 l/m 6,3 km/h S-SO 156 1 min 0,000 mm 1,3 UV-I 454 W/m 3,6 C 15,8 C 15,3 km/h 100,00 %
15.02.2019 13:38 15,8 C 45 % 1030,6 hPa 0,0 l/m 9,5 km/h O-SO 122 1 min 0,000 mm 1,4 UV-I 455 W/m 3,9 C 14,2 C 13,4 km/h 100,00 %
15.02.2019 13:37 15,8 C 45 % 1030,6 hPa 0,0 l/m 6,1 km/h O-SO 113 1 min 0,000 mm 1,4 UV-I 454 W/m 3,9 C 15,8 C 11,5 km/h 96,30 %
15.02.2019 13:36 15,8 C 44 % 1030,7 hPa 0,0 l/m 5,2 km/h S 186 1 min 0,000 mm 1,4 UV-I 454 W/m 3,6 C 15,8 C 7,7 km/h 100,00 %
15.02.2019 13:35 15,8 C 44 % 1030,7 hPa 0,0 l/m 7,7 km/h SO 133 1 min 0,000 mm 1,4 UV-I 455 W/m 3,6 C 15,1 C 13,4 km/h 100,00 %
15.02.2019 13:34 15,9 C 44 % 1030,7 hPa 0,0 l/m 8,5 km/h SO 138 1 min 0,000 mm 1,4 UV-I 455 W/m 3,7 C 14,8 C 13,4 km/h 100,00 %
15.02.2019 13:33 15,9 C 44 % 1030,7 hPa 0,0 l/m 8,6 km/h S 181 1 min 0,000 mm 1,4 UV-I 456 W/m 3,7 C 14,8 C 17,2 km/h 100,00 %
15.02.2019 13:32 15,8 C 45 % 1030,7 hPa 0,0 l/m 8,3 km/h S-SO 148 1 min 0,000 mm 1,4 UV-I 457 W/m 3,9 C 14,8 C 17,2 km/h 100,00 %
15.02.2019 13:31 15,8 C 45 % 1030,7 hPa 0,0 l/m 6,2 km/h O-SO 104 1 min 0,000 mm 1,4 UV-I 457 W/m 3,9 C 15,8 C 13,4 km/h 100,00 %
15.02.2019 13:30 15,8 C 45 % 1030,8 hPa 0,0 l/m 7,3 km/h SW 217 1 min 0,000 mm 1,4 UV-I 457 W/m 3,9 C 15,3 C 13,4 km/h 100,00 %
15.02.2019 13:29 15,8 C 45 % 1030,7 hPa 0,0 l/m 5,8 km/h SO 129 1 min 0,000 mm 1,4 UV-I 457 W/m 3,9 C 15,8 C 9,6 km/h 100,00 %
15.02.2019 13:28 15,8 C 45 % 1030,8 hPa 0,0 l/m 6,7 km/h S-SO 148 1 min 0,000 mm 1,4 UV-I 458 W/m 3,9 C 15,6 C 17,2 km/h 96,15 %
15.02.2019 13:27 15,8 C 45 % 1030,8 hPa 0,0 l/m 9,6 km/h S-SO 152 1 min 0,000 mm 1,4 UV-I 460 W/m 3,9 C 14,2 C 17,2 km/h 93,33 %
15.02.2019 13:26 15,7 C 45 % 1030,8 hPa 0,0 l/m 5,9 km/h S 183 1 min 0,000 mm 1,4 UV-I 460 W/m 3,8 C 15,7 C 9,6 km/h 100,00 %
15.02.2019 13:25 15,7 C 45 % 1030,7 hPa 0,0 l/m 6,3 km/h O-SO 120 1 min 0,000 mm 1,4 UV-I 460 W/m 3,8 C 15,7 C 7,7 km/h 100,00 %
15.02.2019 13:24 15,6 C 45 % 1030,8 hPa 0,0 l/m 4,2 km/h S-SO 152 1 min 0,000 mm 1,4 UV-I 459 W/m 3,7 C 15,6 C 5,7 km/h 100,00 %
15.02.2019 13:23 15,6 C 45 % 1030,8 hPa 0,0 l/m 6,9 km/h SO 130 1 min 0,000 mm 1,4 UV-I 461 W/m 3,7 C 15,3 C 11,5 km/h 100,00 %
15.02.2019 13:22 15,5 C 45 % 1030,8 hPa 0,0 l/m 8,5 km/h SO 126 1 min 0,000 mm 1,4 UV-I 461 W/m 3,6 C 14,4 C 13,4 km/h 100,00 %
15.02.2019 13:21 15,5 C 45 % 1030,8 hPa 0,0 l/m 9,6 km/h SO 137 1 min 0,000 mm 1,4 UV-I 461 W/m 3,6 C 13,8 C 13,4 km/h 100,00 %
15.02.2019 13:20 15,6 C 45 % 1030,9 hPa 0,0 l/m 10,4 km/h S-SO 148 1 min 0,000 mm 1,4 UV-I 461 W/m 3,7 C 13,6 C 15,3 km/h 100,00 %
15.02.2019 13:19 15,6 C 46 % 1030,9 hPa 0,0 l/m 5,4 km/h SO 139 1 min 0,000 mm 1,4 UV-I 462 W/m 4,0 C 15,6 C 9,6 km/h 95,65 %
15.02.2019 13:18 15,5 C 46 % 1030,9 hPa 0,0 l/m 8,1 km/h SO 135 1 min 0,000 mm 1,4 UV-I 462 W/m 3,9 C 14,6 C 11,5 km/h 100,00 %
15.02.2019 13:17 15,4 C 46 % 1030,9 hPa 0,0 l/m 3,5 km/h S 175 1 min 0,000 mm 1,4 UV-I 462 W/m 3,8 C 15,4 C 7,7 km/h 100,00 %
15.02.2019 13:16 15,4 C 45 % 1030,9 hPa 0,0 l/m 7,7 km/h S-SO 151 1 min 0,000 mm 1,4 UV-I 462 W/m 3,5 C 14,7 C 9,6 km/h 96,55 %
15.02.2019 13:15 15,4 C 45 % 1031,0 hPa 0,0 l/m 11,0 km/h S 180 1 min 0,000 mm 1,4 UV-I 462 W/m 3,5 C 13,1 C 17,2 km/h 100,00 %
15.02.2019 13:14 15,4 C 45 % 1030,9 hPa 0,0 l/m 8,5 km/h S-SW 195 1 min 0,000 mm 1,4 UV-I 462 W/m 3,5 C 14,3 C 13,4 km/h 100,00 %
15.02.2019 13:13 15,4 C 46 % 1031,0 hPa 0,0 l/m 7,6 km/h S-SO 150 1 min 0,000 mm 1,4 UV-I 462 W/m 3,8 C 14,7 C 15,3 km/h 100,00 %
15.02.2019 13:12 15,4 C 45 % 1031,0 hPa 0,0 l/m 5,4 km/h S-SO 157 1 min 0,000 mm 1,4 UV-I 464 W/m 3,5 C 15,4 C 9,6 km/h 96,30 %
15.02.2019 13:11 15,4 C 45 % 1031,0 hPa 0,0 l/m 9,9 km/h S-SO 160 1 min 0,000 mm 1,4 UV-I 464 W/m 3,5 C 13,6 C 15,3 km/h 100,00 %
15.02.2019 13:10 15,5 C 46 % 1031,0 hPa 0,0 l/m 6,1 km/h S 169 1 min 0,000 mm 1,4 UV-I 464 W/m 3,9 C 15,5 C 9,6 km/h 100,00 %
15.02.2019 13:09 15,4 C 46 % 1031,0 hPa 0,0 l/m 7,4 km/h S-SO 160 1 min 0,000 mm 1,4 UV-I 464 W/m 3,8 C 14,8 C 13,4 km/h 100,00 %
15.02.2019 13:08 15,4 C 45 % 1031,1 hPa 0,0 l/m 6,2 km/h O-SO 117 1 min 0,000 mm 1,4 UV-I 464 W/m 3,5 C 15,4 C 13,4 km/h 100,00 %
15.02.2019 13:07 15,4 C 45 % 1031,1 hPa 0,0 l/m 6,9 km/h S-SO 166 1 min 0,000 mm 1,4 UV-I 465 W/m 3,5 C 15,1 C 11,5 km/h 91,67 %
15.02.2019 13:06 15,4 C 45 % 1031,0 hPa 0,0 l/m 7,1 km/h S-SO 165 1 min 0,000 mm 1,4 UV-I 464 W/m 3,5 C 15,0 C 11,5 km/h 100,00 %
15.02.2019 13:05 15,4 C 45 % 1031,1 hPa 0,0 l/m 7,7 km/h S-SO 155 1 min 0,000 mm 1,4 UV-I 464 W/m 3,5 C 14,7 C 11,5 km/h 100,00 %
15.02.2019 13:04 15,4 C 46 % 1031,1 hPa 0,0 l/m 5,5 km/h SO 145 1 min 0,000 mm 1,4 UV-I 464 W/m 3,8 C 15,4 C 11,5 km/h 100,00 %
15.02.2019 13:03 15,4 C 46 % 1031,1 hPa 0,0 l/m 6,0 km/h S 173 1 min 0,000 mm 1,4 UV-I 464 W/m 3,8 C 15,4 C 13,4 km/h 100,00 %
15.02.2019 13:02 15,4 C 46 % 1031,1 hPa 0,0 l/m 6,7 km/h SO 138 1 min 0,000 mm 1,4 UV-I 465 W/m 3,8 C 15,2 C 13,4 km/h 100,00 %
15.02.2019 13:01 15,3 C 46 % 1031,1 hPa 0,0 l/m 6,9 km/h S 183 1 min 0,279 mm 1,4 UV-I 465 W/m 3,8 C 15,0 C 9,6 km/h 100,00 %
15.02.2019 13:00 15,3 C 46 % 1031,1 hPa 0,0 l/m 8,5 km/h SO 136 1 min 0,000 mm 1,4 UV-I 464 W/m 3,8 C 14,2 C 15,3 km/h 100,00 %
15.02.2019 12:59 15,3 C 47 % 1031,1 hPa 0,0 l/m 7,3 km/h SO 146 1 min 0,000 mm 1,4 UV-I 466 W/m 4,1 C 14,8 C 11,5 km/h 100,00 %
15.02.2019 12:58 15,2 C 47 % 1031,2 hPa 0,0 l/m 4,4 km/h O-SO 123 1 min 0,000 mm 1,4 UV-I 466 W/m 4,0 C 15,2 C 9,6 km/h 100,00 %
15.02.2019 12:57 15,1 C 47 % 1031,2 hPa 0,0 l/m 5,0 km/h S-SO 168 1 min 0,000 mm 1,4 UV-I 465 W/m 3,9 C 15,1 C 9,6 km/h 100,00 %
15.02.2019 12:56 14,9 C 47 % 1031,2 hPa 0,0 l/m 7,3 km/h S 173 1 min 0,000 mm 1,4 UV-I 466 W/m 3,7 C 14,4 C 15,3 km/h 100,00 %
15.02.2019 12:55 14,9 C 46 % 1031,2 hPa 0,0 l/m 8,0 km/h S-SO 155 1 min 0,000 mm 1,4 UV-I 465 W/m 3,4 C 14,0 C 13,4 km/h 100,00 %
15.02.2019 12:54 14,8 C 47 % 1031,2 hPa 0,0 l/m 6,2 km/h S-SO 159 1 min 0,000 mm 1,4 UV-I 464 W/m 3,6 C 14,8 C 13,4 km/h 100,00 %
15.02.2019 12:53 14,7 C 47 % 1031,2 hPa 0,0 l/m 10,0 km/h S-SO 150 1 min 0,000 mm 1,4 UV-I 464 W/m 3,5 C 12,8 C 17,2 km/h 100,00 %
15.02.2019 12:52 14,7 C 46 % 1031,2 hPa 0,0 l/m 8,3 km/h S 169 1 min 0,000 mm 1,4 UV-I 465 W/m 3,2 C 13,6 C 11,5 km/h 95,65 %
15.02.2019 12:51 14,7 C 47 % 1031,3 hPa 0,0 l/m 7,7 km/h S-SO 155 1 min 0,000 mm 1,4 UV-I 466 W/m 3,5 C 14,0 C 9,6 km/h 100,00 %
15.02.2019 12:50 14,8 C 46 % 1031,3 hPa 0,0 l/m 9,2 km/h S-SO 164 1 min 0,000 mm 1,4 UV-I 465 W/m 3,3 C 13,3 C 13,4 km/h 100,00 %
15.02.2019 12:49 14,9 C 46 % 1031,3 hPa 0,0 l/m 11,8 km/h S 175 1 min 0,000 mm 1,4 UV-I 464 W/m 3,4 C 12,2 C 17,2 km/h 100,00 %
15.02.2019 12:48 14,9 C 46 % 1031,3 hPa 0,0 l/m 6,4 km/h S 181 1 min 0,000 mm 1,4 UV-I 464 W/m 3,4 C 14,9 C 11,5 km/h 100,00 %
15.02.2019 12:47 14,9 C 46 % 1031,3 hPa 0,0 l/m 8,4 km/h S-SO 150 1 min 0,000 mm 1,4 UV-I 462 W/m 3,4 C 13,8 C 13,4 km/h 100,00 %
15.02.2019 12:46 14,9 C 46 % 1031,3 hPa 0,0 l/m 7,2 km/h S 181 1 min 0,000 mm 1,4 UV-I 464 W/m 3,4 C 14,4 C 11,5 km/h 100,00 %
15.02.2019 12:45 14,9 C 47 % 1031,4 hPa 0,0 l/m 5,3 km/h S-SW 213 1 min 0,000 mm 1,4 UV-I 464 W/m 3,7 C 14,9 C 7,7 km/h 100,00 %
15.02.2019 12:44 14,8 C 47 % 1031,4 hPa 0,0 l/m 5,7 km/h S 180 1 min 0,000 mm 1,4 UV-I 463 W/m 3,6 C 14,8 C 11,5 km/h 100,00 %
15.02.2019 12:43 14,7 C 47 % 1031,4 hPa 0,0 l/m 4,9 km/h S 173 1 min 0,000 mm 1,4 UV-I 464 W/m 3,5 C 14,7 C 9,6 km/h 100,00 %
15.02.2019 12:42 14,7 C 47 % 1031,4 hPa 0,0 l/m 7,1 km/h S-SO 148 1 min 0,000 mm 1,4 UV-I 462 W/m 3,5 C 14,3 C 13,4 km/h 100,00 %
15.02.2019 12:41 14,7 C 47 % 1031,4 hPa 0,0 l/m 7,6 km/h SO 135 1 min 0,000 mm 1,4 UV-I 462 W/m 3,5 C 14,0 C 13,4 km/h 100,00 %
15.02.2019 12:40 14,7 C 47 % 1031,4 hPa 0,0 l/m 7,3 km/h S-SO 147 1 min 0,000 mm 1,4 UV-I 462 W/m 3,5 C 14,2 C 15,3 km/h 100,00 %
15.02.2019 12:39 14,7 C 46 % 1031,5 hPa 0,0 l/m 4,4 km/h S-SO 160 1 min 0,000 mm 1,4 UV-I 462 W/m 3,2 C 14,7 C 7,7 km/h 100,00 %
15.02.2019 12:38 14,7 C 47 % 1031,4 hPa 0,0 l/m 10,4 km/h S-SO 166 1 min 0,000 mm 1,4 UV-I 462 W/m 3,5 C 12,6 C 15,3 km/h 95,83 %
15.02.2019 12:37 14,7 C 47 % 1031,4 hPa 0,0 l/m 9,0 km/h S 178 1 min 0,000 mm 1,4 UV-I 462 W/m 3,5 C 13,3 C 15,3 km/h 100,00 %
15.02.2019 12:36 14,7 C 47 % 1031,5 hPa 0,0 l/m 8,1 km/h S-SO 153 1 min 0,000 mm 1,4 UV-I 461 W/m 3,5 C 13,7 C 15,3 km/h 100,00 %
15.02.2019 12:35 14,7 C 47 % 1031,5 hPa 0,0 l/m 7,1 km/h SO 130 1 min 0,000 mm 1,4 UV-I 461 W/m 3,5 C 14,3 C 9,6 km/h 95,65 %
15.02.2019 12:34 14,7 C 47 % 1031,5 hPa 0,0 l/m 9,3 km/h S-SO 160 1 min 0,000 mm 1,4 UV-I 461 W/m 3,5 C 13,1 C 15,3 km/h 100,00 %
15.02.2019 12:33 14,6 C 47 % 1031,5 hPa 0,0 l/m 6,0 km/h O-SO 121 1 min 0,000 mm 1,4 UV-I 461 W/m 3,4 C 14,6 C 11,5 km/h 95,65 %
15.02.2019 12:32 14,6 C 47 % 1031,5 hPa 0,0 l/m 5,9 km/h S 175 1 min 0,000 mm 1,4 UV-I 461 W/m 3,4 C 14,6 C 11,5 km/h 96,67 %
15.02.2019 12:31 14,5 C 47 % 1031,5 hPa 0,0 l/m 3,5 km/h SO 136 1 min 0,000 mm 1,4 UV-I 459 W/m 3,3 C 14,5 C 5,7 km/h 100,00 %
15.02.2019 12:30 14,4 C 47 % 1031,5 hPa 0,0 l/m 7,1 km/h S 184 1 min 0,000 mm 1,4 UV-I 459 W/m 3,2 C 14,0 C 9,6 km/h 100,00 %
15.02.2019 12:29 14,4 C 48 % 1031,5 hPa 0,0 l/m 6,4 km/h S-SO 161 1 min 0,000 mm 1,4 UV-I 459 W/m 3,5 C 14,4 C 11,5 km/h 100,00 %
15.02.2019 12:28 14,3 C 48 % 1031,5 hPa 0,0 l/m 8,3 km/h O-SO 112 1 min 0,000 mm 1,4 UV-I 458 W/m 3,4 C 13,2 C 13,4 km/h 100,00 %
15.02.2019 12:27 14,3 C 48 % 1031,5 hPa 0,0 l/m 7,2 km/h S 183 1 min 0,000 mm 1,4 UV-I 457 W/m 3,4 C 13,8 C 9,6 km/h 100,00 %
15.02.2019 12:26 14,3 C 48 % 1031,6 hPa 0,0 l/m 6,6 km/h S-SO 153 1 min 0,000 mm 1,4 UV-I 457 W/m 3,4 C 14,2 C 11,5 km/h 96,30 %
15.02.2019 12:25 14,2 C 48 % 1031,6 hPa 0,0 l/m 7,4 km/h S-SO 163 1 min 0,000 mm 1,4 UV-I 457 W/m 3,4 C 13,6 C 9,6 km/h 100,00 %
15.02.2019 12:24 14,2 C 47 % 1031,6 hPa 0,0 l/m 7,8 km/h S-SO 157 1 min 0,000 mm 1,4 UV-I 457 W/m 3,1 C 13,4 C 15,3 km/h 100,00 %
15.02.2019 12:23 14,2 C 48 % 1031,6 hPa 0,0 l/m 10,6 km/h S-SO 156 1 min 0,000 mm 1,4 UV-I 456 W/m 3,4 C 12,0 C 17,2 km/h 95,83 %
15.02.2019 12:22 14,2 C 48 % 1031,6 hPa 0,0 l/m 5,8 km/h S 181 1 min 0,000 mm 1,4 UV-I 455 W/m 3,4 C 14,2 C 9,6 km/h 100,00 %
15.02.2019 12:21 14,2 C 48 % 1031,6 hPa 0,0 l/m 7,2 km/h S-SO 160 1 min 0,000 mm 1,4 UV-I 455 W/m 3,4 C 13,7 C 9,6 km/h 100,00 %
15.02.2019 12:20 14,3 C 47 % 1031,6 hPa 0,0 l/m 9,2 km/h S-SW 200 1 min 0,000 mm 1,4 UV-I 455 W/m 3,1 C 12,7 C 15,3 km/h 100,00 %
15.02.2019 12:19 14,3 C 48 % 1031,6 hPa 0,0 l/m 8,7 km/h S-SO 154 1 min 0,000 mm 1,4 UV-I 455 W/m 3,4 C 13,0 C 13,4 km/h 100,00 %
15.02.2019 12:18 14,3 C 48 % 1031,6 hPa 0,0 l/m 6,8 km/h S-SW 198 1 min 0,000 mm 1,4 UV-I 454 W/m 3,4 C 14,1 C 9,6 km/h 96,15 %
15.02.2019 12:17 14,2 C 48 % 1031,7 hPa 0,0 l/m 2,3 km/h S 172 1 min 0,000 mm 1,4 UV-I 454 W/m 3,4 C 14,2 C 3,8 km/h 100,00 %
15.02.2019 12:16 14,2 C 48 % 1031,6 hPa 0,0 l/m 6,7 km/h S-SO 165 1 min 0,000 mm 1,4 UV-I 454 W/m 3,4 C 14,0 C 11,5 km/h 100,00 %
15.02.2019 12:15 14,1 C 48 % 1031,7 hPa 0,0 l/m 3,9 km/h S-SO 161 1 min 0,000 mm 1,4 UV-I 452 W/m 3,3 C 14,1 C 7,7 km/h 100,00 %
15.02.2019 12:14 14,1 C 48 % 1031,7 hPa 0,0 l/m 6,4 km/h S-SO 153 1 min 0,000 mm 1,4 UV-I 451 W/m 3,3 C 14,1 C 13,4 km/h 100,00 %
15.02.2019 12:13 14,2 C 48 % 1031,7 hPa 0,0 l/m 9,3 km/h S-SO 158 1 min 0,000 mm 1,4 UV-I 450 W/m 3,4 C 12,6 C 15,3 km/h 100,00 %
15.02.2019 12:12 14,1 C 49 % 1031,7 hPa 0,0 l/m 5,0 km/h S 171 1 min 0,000 mm 1,4 UV-I 450 W/m 3,6 C 14,1 C 9,6 km/h 100,00 %
15.02.2019 12:11 13,9 C 50 % 1031,7 hPa 0,0 l/m 2,4 km/h SO 126 1 min 0,000 mm 1,4 UV-I 449 W/m 3,7 C 13,9 C 5,7 km/h 100,00 %
15.02.2019 12:10 13,8 C 48 % 1031,7 hPa 0,0 l/m 2,1 km/h S-SO 156 1 min 0,000 mm 1,4 UV-I 448 W/m 3,0 C 13,8 C 3,8 km/h 100,00 %
15.02.2019 12:09 13,8 C 49 % 1031,7 hPa 0,0 l/m 9,2 km/h S-SO 154 1 min 0,000 mm 1,4 UV-I 448 W/m 3,3 C 12,2 C 13,4 km/h 100,00 %
15.02.2019 12:08 13,8 C 49 % 1031,7 hPa 0,0 l/m 7,9 km/h O-SO 108 1 min 0,000 mm 1,4 UV-I 447 W/m 3,3 C 12,9 C 17,2 km/h 100,00 %
15.02.2019 12:07 13,8 C 48 % 1031,7 hPa 0,0 l/m 4,3 km/h SO 130 1 min 0,000 mm 1,4 UV-I 445 W/m 3,0 C 13,8 C 7,7 km/h 100,00 %
15.02.2019 12:06 13,7 C 49 % 1031,7 hPa 0,0 l/m 7,8 km/h SO 144 1 min 0,000 mm 1,4 UV-I 445 W/m 3,2 C 12,9 C 13,4 km/h 100,00 %
15.02.2019 12:05 13,7 C 49 % 1031,7 hPa 0,0 l/m 7,0 km/h O-SO 120 1 min 0,000 mm 1,3 UV-I 445 W/m 3,2 C 13,3 C 11,5 km/h 100,00 %
15.02.2019 12:04 13,6 C 49 % 1031,7 hPa 0,0 l/m 8,2 km/h SO 138 1 min 0,000 mm 1,3 UV-I 443 W/m 3,1 C 12,5 C 17,2 km/h 100,00 %
15.02.2019 12:03 13,6 C 50 % 1031,7 hPa 0,0 l/m 7,7 km/h O-SO 115 1 min 0,000 mm 1,3 UV-I 443 W/m 3,4 C 12,8 C 15,3 km/h 100,00 %
15.02.2019 12:02 13,6 C 50 % 1031,7 hPa 0,0 l/m 7,0 km/h S 184 1 min 0,000 mm 1,3 UV-I 443 W/m 3,4 C 13,2 C 11,5 km/h 100,00 %
15.02.2019 12:01 13,6 C 50 % 1031,8 hPa 0,0 l/m 7,6 km/h S 175 1 min 0,229 mm 1,3 UV-I 441 W/m 3,4 C 12,9 C 9,6 km/h 95,65 %
15.02.2019 12:00 13,6 C 49 % 1031,8 hPa 0,0 l/m 8,2 km/h S-SO 151 1 min 0,000 mm 1,3 UV-I 441 W/m 3,1 C 12,5 C 15,3 km/h 100,00 %
15.02.2019 11:59 13,5 C 50 % 1031,8 hPa 0,0 l/m 4,8 km/h SO 127 1 min 0,000 mm 1,3 UV-I 439 W/m 3,3 C 13,5 C 7,7 km/h 100,00 %
15.02.2019 11:58 13,4 C 49 % 1031,8 hPa 0,0 l/m 6,4 km/h S-SO 150 1 min 0,000 mm 1,3 UV-I 439 W/m 2,9 C 13,4 C 11,5 km/h 100,00 %
15.02.2019 11:57 13,4 C 49 % 1031,8 hPa 0,0 l/m 8,8 km/h S-SO 163 1 min 0,000 mm 1,3 UV-I 439 W/m 2,9 C 12,0 C 11,5 km/h 100,00 %
15.02.2019 11:56 13,6 C 49 % 1031,8 hPa 0,0 l/m 10,1 km/h S-SO 168 1 min 0,000 mm 1,3 UV-I 438 W/m 3,1 C 11,5 C 13,4 km/h 100,00 %
15.02.2019 11:55 13,7 C 49 % 1031,8 hPa 0,0 l/m 11,1 km/h S-SO 165 1 min 0,000 mm 1,3 UV-I 436 W/m 3,2 C 11,2 C 17,2 km/h 92,86 %
15.02.2019 11:54 13,7 C 50 % 1031,8 hPa 0,0 l/m 3,9 km/h SO 140 1 min 0,000 mm 1,3 UV-I 436 W/m 3,5 C 13,7 C 7,7 km/h 95,83 %
15.02.2019 11:53 13,7 C 49 % 1031,8 hPa 0,0 l/m 4,4 km/h S 177 1 min 0,000 mm 1,3 UV-I 434 W/m 3,2 C 13,7 C 9,6 km/h 100,00 %
15.02.2019 11:52 13,8 C 49 % 1031,8 hPa 0,0 l/m 7,1 km/h S-SO 167 1 min 0,000 mm 1,3 UV-I 433 W/m 3,3 C 13,4 C 13,4 km/h 100,00 %
15.02.2019 11:51 13,8 C 50 % 1031,8 hPa 0,0 l/m 4,1 km/h SO 139 1 min 0,000 mm 1,3 UV-I 432 W/m 3,6 C 13,8 C 9,6 km/h 96,15 %
15.02.2019 11:50 13,7 C 50 % 1031,8 hPa 0,0 l/m 0,9 km/h SO 140 1 min 0,000 mm 1,3 UV-I 432 W/m 3,5 C 13,7 C 3,8 km/h 100,00 %
15.02.2019 11:49 13,7 C 50 % 1031,8 hPa 0,0 l/m 5,3 km/h SO 140 1 min 0,000 mm 1,3 UV-I 431 W/m 3,5 C 13,7 C 7,7 km/h 100,00 %
15.02.2019 11:48 13,7 C 50 % 1031,9 hPa 0,0 l/m 1,5 km/h S 175 1 min 0,000 mm 1,3 UV-I 431 W/m 3,5 C 13,7 C 3,8 km/h 96,43 %
15.02.2019 11:47 13,6 C 50 % 1031,8 hPa 0,0 l/m 2,4 km/h S 176 1 min 0,000 mm 1,3 UV-I 429 W/m 3,4 C 13,6 C 5,7 km/h 100,00 %
15.02.2019 11:46 13,6 C 51 % 1031,8 hPa 0,0 l/m 6,2 km/h S 176 1 min 0,000 mm 1,3 UV-I 428 W/m 3,7 C 13,6 C 9,6 km/h 95,65 %
15.02.2019 11:45 13,4 C 52 % 1031,8 hPa 0,0 l/m 3,5 km/h S 169 1 min 0,000 mm 1,3 UV-I 427 W/m 3,7 C 13,4 C 7,7 km/h 100,00 %
15.02.2019 11:44 13,2 C 51 % 1031,8 hPa 0,0 l/m 0,9 km/h SO 137 1 min 0,000 mm 1,3 UV-I 426 W/m 3,3 C 13,2 C 5,7 km/h 97,56 %
15.02.2019 11:43 13,1 C 50 % 1031,8 hPa 0,0 l/m 5,6 km/h SO 138 1 min 0,000 mm 1,3 UV-I 425 W/m 2,9 C 13,1 C 11,5 km/h 100,00 %
15.02.2019 11:42 13,0 C 51 % 1031,8 hPa 0,0 l/m 3,6 km/h SO 134 1 min 0,000 mm 1,3 UV-I 425 W/m 3,1 C 13,0 C 7,7 km/h 100,00 %
15.02.2019 11:41 12,9 C 51 % 1031,8 hPa 0,0 l/m 6,0 km/h S-SO 155 1 min 0,000 mm 1,3 UV-I 424 W/m 3,0 C 12,9 C 9,6 km/h 100,00 %
15.02.2019 11:40 12,8 C 51 % 1031,8 hPa 0,0 l/m 5,0 km/h S 169 1 min 0,000 mm 1,3 UV-I 423 W/m 2,9 C 12,8 C 7,7 km/h 100,00 %
15.02.2019 11:39 12,8 C 50 % 1031,8 hPa 0,0 l/m 7,0 km/h SO 142 1 min 0,000 mm 1,3 UV-I 422 W/m 2,6 C 12,4 C 9,6 km/h 100,00 %
15.02.2019 11:38 12,8 C 51 % 1031,9 hPa 0,0 l/m 5,4 km/h SO 136 1 min 0,000 mm 1,3 UV-I 420 W/m 2,9 C 12,8 C 9,6 km/h 100,00 %
15.02.2019 11:37 12,7 C 51 % 1031,9 hPa 0,0 l/m 8,6 km/h S-SO 165 1 min 0,000 mm 1,2 UV-I 418 W/m 2,8 C 11,3 C 13,4 km/h 100,00 %
15.02.2019 11:36 12,7 C 51 % 1031,8 hPa 0,0 l/m 6,5 km/h S 173 1 min 0,000 mm 1,2 UV-I 418 W/m 2,8 C 12,7 C 11,5 km/h 100,00 %
15.02.2019 11:35 12,7 C 52 % 1031,8 hPa 0,0 l/m 7,5 km/h SO 144 1 min 0,000 mm 1,2 UV-I 417 W/m 3,1 C 12,0 C 13,4 km/h 100,00 %
15.02.2019 11:34 12,7 C 51 % 1031,8 hPa 0,0 l/m 8,6 km/h S 169 1 min 0,000 mm 1,2 UV-I 416 W/m 2,8 C 11,3 C 11,5 km/h 100,00 %
15.02.2019 11:33 12,7 C 51 % 1031,9 hPa 0,0 l/m 6,7 km/h S 171 1 min 0,000 mm 1,2 UV-I 415 W/m 2,8 C 12,5 C 9,6 km/h 100,00 %
15.02.2019 11:32 12,7 C 51 % 1031,9 hPa 0,0 l/m 6,4 km/h S-SO 159 1 min 0,000 mm 1,2 UV-I 413 W/m 2,8 C 12,7 C 9,6 km/h 100,00 %
15.02.2019 11:31 12,7 C 51 % 1031,9 hPa 0,0 l/m 4,9 km/h S-SO 147 1 min 0,000 mm 1,2 UV-I 411 W/m 2,8 C 12,7 C 7,7 km/h 100,00 %
15.02.2019 11:30 12,7 C 50 % 1031,8 hPa 0,0 l/m 7,9 km/h S 187 1 min 0,000 mm 1,2 UV-I 411 W/m 2,6 C 11,7 C 9,6 km/h 100,00 %
15.02.2019 11:29 12,8 C 50 % 1031,9 hPa 0,0 l/m 7,3 km/h S-SO 159 1 min 0,000 mm 1,2 UV-I 411 W/m 2,6 C 12,2 C 9,6 km/h 100,00 %
15.02.2019 11:28 12,8 C 51 % 1031,9 hPa 0,0 l/m 6,9 km/h S 183 1 min 0,000 mm 1,2 UV-I 410 W/m 2,9 C 12,5 C 11,5 km/h 100,00 %
15.02.2019 11:27 12,7 C 51 % 1031,9 hPa 0,0 l/m 3,0 km/h SO 144 1 min 0,000 mm 1,2 UV-I 408 W/m 2,8 C 12,7 C 5,7 km/h 96,15 %
15.02.2019 11:26 12,7 C 51 % 1031,9 hPa 0,0 l/m 6,4 km/h SO 133 1 min 0,000 mm 1,2 UV-I 406 W/m 2,8 C 12,7 C 11,5 km/h 100,00 %
15.02.2019 11:25 12,6 C 51 % 1031,9 hPa 0,0 l/m 5,4 km/h SO 142 1 min 0,000 mm 1,2 UV-I 406 W/m 2,7 C 12,6 C 11,5 km/h 100,00 %
15.02.2019 11:24 12,6 C 51 % 1031,9 hPa 0,0 l/m 5,9 km/h S 182 1 min 0,000 mm 1,2 UV-I 404 W/m 2,7 C 12,6 C 7,7 km/h 100,00 %
15.02.2019 11:23 12,6 C 51 % 1031,9 hPa 0,0 l/m 2,7 km/h S-SO 148 1 min 0,000 mm 1,2 UV-I 403 W/m 2,7 C 12,6 C 5,7 km/h 100,00 %
15.02.2019 11:22 12,4 C 52 % 1031,9 hPa 0,0 l/m 3,3 km/h S-SO 147 1 min 0,000 mm 1,2 UV-I 402 W/m 2,8 C 12,4 C 5,7 km/h 100,00 %
15.02.2019 11:21 12,3 C 51 % 1031,9 hPa 0,0 l/m 3,5 km/h S-SO 148 1 min 0,000 mm 1,2 UV-I 401 W/m 2,5 C 12,3 C 5,7 km/h 100,00 %
15.02.2019 11:20 12,3 C 51 % 1031,9 hPa 0,0 l/m 4,3 km/h O-SO 117 1 min 0,000 mm 1,1 UV-I 397 W/m 2,5 C 12,3 C 5,7 km/h 95,83 %
15.02.2019 11:19 12,2 C 52 % 1031,9 hPa 0,0 l/m 7,4 km/h S-SO 157 1 min 0,000 mm 1,1 UV-I 397 W/m 2,6 C 11,5 C 13,4 km/h 100,00 %
15.02.2019 11:18 12,2 C 52 % 1032,0 hPa 0,0 l/m 4,3 km/h S 184 1 min 0,000 mm 1,1 UV-I 397 W/m 2,6 C 12,2 C 9,6 km/h 100,00 %
15.02.2019 11:17 12,1 C 51 % 1032,0 hPa 0,0 l/m 8,8 km/h S 177 1 min 0,000 mm 1,1 UV-I 395 W/m 2,3 C 10,6 C 13,4 km/h 100,00 %
15.02.2019 11:16 12,1 C 51 % 1032,0 hPa 0,0 l/m 10,3 km/h O-SO 116 1 min 0,000 mm 1,1 UV-I 394 W/m 2,3 C 9,8 C 15,3 km/h 100,00 %
15.02.2019 11:15 12,1 C 51 % 1032,0 hPa 0,0 l/m 7,8 km/h S-SO 148 1 min 0,000 mm 1,1 UV-I 392 W/m 2,3 C 11,2 C 13,4 km/h 100,00 %
15.02.2019 11:14 12,0 C 52 % 1032,0 hPa 0,0 l/m 9,6 km/h SO 128 1 min 0,000 mm 1,1 UV-I 392 W/m 2,5 C 10,0 C 15,3 km/h 100,00 %
15.02.2019 11:13 12,0 C 51 % 1032,0 hPa 0,0 l/m 6,0 km/h SO 135 1 min 0,000 mm 1,1 UV-I 389 W/m 2,2 C 12,0 C 9,6 km/h 100,00 %
15.02.2019 11:12 11,9 C 52 % 1032,0 hPa 0,0 l/m 9,6 km/h O-SO 121 1 min 0,000 mm 1,1 UV-I 388 W/m 2,4 C 9,9 C 17,2 km/h 100,00 %
15.02.2019 11:11 11,9 C 51 % 1031,9 hPa 0,0 l/m 10,7 km/h SO 132 1 min 0,000 mm 1,1 UV-I 387 W/m 2,1 C 9,3 C 19,1 km/h 100,00 %
15.02.2019 11:10 11,9 C 52 % 1032,0 hPa 0,0 l/m 9,0 km/h SO 130 1 min 0,000 mm 1,1 UV-I 385 W/m 2,4 C 10,2 C 15,3 km/h 100,00 %
15.02.2019 11:09 11,9 C 51 % 1032,0 hPa 0,0 l/m 5,2 km/h O-SO 118 1 min 0,000 mm 1,1 UV-I 385 W/m 2,1 C 11,9 C 11,5 km/h 100,00 %
15.02.2019 11:08 11,8 C 51 % 1032,0 hPa 0,0 l/m 9,6 km/h S-SO 161 1 min 0,000 mm 1,1 UV-I 384 W/m 2,0 C 9,8 C 21,0 km/h 100,00 %
15.02.2019 11:07 11,8 C 52 % 1032,0 hPa 0,0 l/m 11,0 km/h SO 126 1 min 0,000 mm 1,1 UV-I 381 W/m 2,3 C 9,1 C 17,2 km/h 100,00 %
15.02.2019 11:06 11,8 C 51 % 1032,0 hPa 0,0 l/m 9,4 km/h SO 127 1 min 0,000 mm 1,1 UV-I 380 W/m 2,0 C 9,9 C 15,3 km/h 100,00 %
15.02.2019 11:05 11,8 C 52 % 1031,9 hPa 0,0 l/m 12,1 km/h S-SO 159 1 min 0,000 mm 1,1 UV-I 380 W/m 2,3 C 8,5 C 17,2 km/h 100,00 %
15.02.2019 11:04 11,8 C 51 % 1032,0 hPa 0,0 l/m 8,8 km/h S-SO 150 1 min 0,000 mm 1,1 UV-I 377 W/m 2,0 C 10,3 C 17,2 km/h 100,00 %
15.02.2019 11:03 11,9 C 52 % 1032,0 hPa 0,0 l/m 9,9 km/h SO 144 1 min 0,000 mm 1,0 UV-I 376 W/m 2,4 C 9,7 C 15,3 km/h 100,00 %
15.02.2019 11:02 11,8 C 52 % 1032,0 hPa 0,0 l/m 6,7 km/h O-SO 117 1 min 0,000 mm 1,0 UV-I 373 W/m 2,3 C 11,6 C 11,5 km/h 95,65 %
15.02.2019 11:01 11,7 C 53 % 1031,9 hPa 0,0 l/m 3,8 km/h O-SO 121 1 min 0,178 mm 1,0 UV-I 372 W/m 2,4 C 11,7 C 5,7 km/h 95,83 %
15.02.2019 11:00 11,7 C 53 % 1032,0 hPa 0,0 l/m 5,4 km/h S-SO 153 1 min 0,000 mm 1,0 UV-I 370 W/m 2,4 C 11,7 C 11,5 km/h 100,00 %
15.02.2019 10:59 11,7 C 52 % 1032,0 hPa 0,0 l/m 14,3 km/h SO 131 1 min 0,000 mm 1,0 UV-I 368 W/m 2,2 C 7,5 C 17,2 km/h 100,00 %
15.02.2019 10:58 11,7 C 52 % 1032,0 hPa 0,0 l/m 8,8 km/h SO 126 1 min 0,000 mm 1,0 UV-I 366 W/m 2,2 C 10,1 C 17,2 km/h 100,00 %
15.02.2019 10:57 11,6 C 53 % 1031,9 hPa 0,0 l/m 9,4 km/h SO 135 1 min 0,000 mm 1,0 UV-I 367 W/m 2,4 C 9,7 C 19,1 km/h 95,83 %
15.02.2019 10:56 11,6 C 52 % 1031,9 hPa 0,0 l/m 5,3 km/h S 174 1 min 0,000 mm 1,0 UV-I 366 W/m 2,1 C 11,6 C 11,5 km/h 100,00 %
15.02.2019 10:55 11,6 C 52 % 1032,0 hPa 0,0 l/m 6,7 km/h SO 133 1 min 0,000 mm 1,0 UV-I 363 W/m 2,1 C 11,4 C 13,4 km/h 100,00 %
15.02.2019 10:54 11,6 C 53 % 1032,0 hPa 0,0 l/m 5,2 km/h S 171 1 min 0,000 mm 1,0 UV-I 361 W/m 2,4 C 11,6 C 9,6 km/h 100,00 %
15.02.2019 10:53 11,6 C 52 % 1032,0 hPa 0,0 l/m 6,2 km/h S-SO 147 1 min 0,000 mm 1,0 UV-I 359 W/m 2,1 C 11,6 C 11,5 km/h 100,00 %
15.02.2019 10:52 11,6 C 53 % 1032,0 hPa 0,0 l/m 6,4 km/h SO 128 1 min 0,000 mm 1,0 UV-I 358 W/m 2,4 C 11,6 C 9,6 km/h 100,00 %
15.02.2019 10:51 11,6 C 53 % 1032,0 hPa 0,0 l/m 9,4 km/h O-SO 119 1 min 0,000 mm 1,0 UV-I 357 W/m 2,4 C 9,7 C 17,2 km/h 100,00 %
15.02.2019 10:50 11,6 C 53 % 1032,0 hPa 0,0 l/m 9,0 km/h SO 130 1 min 0,000 mm 1,0 UV-I 353 W/m 2,4 C 9,9 C 15,3 km/h 100,00 %
15.02.2019 10:49 11,6 C 53 % 1032,0 hPa 0,0 l/m 5,8 km/h SO 130 1 min 0,000 mm 0,9 UV-I 353 W/m 2,4 C 11,6 C 15,3 km/h 100,00 %
15.02.2019 10:48 11,4 C 53 % 1032,0 hPa 0,0 l/m 5,2 km/h S-SO 147 1 min 0,000 mm 0,9 UV-I 351 W/m 2,2 C 11,4 C 9,6 km/h 100,00 %
15.02.2019 10:47 11,4 C 53 % 1032,0 hPa 0,0 l/m 4,8 km/h O-SO 113 1 min 0,000 mm 0,9 UV-I 349 W/m 2,2 C 11,4 C 11,5 km/h 95,65 %
15.02.2019 10:46 11,3 C 53 % 1032,0 hPa 0,0 l/m 4,5 km/h O-SO 120 1 min 0,000 mm 0,9 UV-I 346 W/m 2,1 C 11,3 C 7,7 km/h 100,00 %
15.02.2019 10:45 11,3 C 53 % 1032,0 hPa 0,0 l/m 8,8 km/h SO 140 1 min 0,000 mm 0,9 UV-I 346 W/m 2,1 C 9,7 C 13,4 km/h 95,65 %
15.02.2019 10:44 11,3 C 54 % 1032,1 hPa 0,0 l/m 5,2 km/h S 173 1 min 0,000 mm 0,9 UV-I 345 W/m 2,3 C 11,3 C 7,7 km/h 100,00 %
15.02.2019 10:43 11,2 C 54 % 1032,1 hPa 0,0 l/m 6,2 km/h S-SO 165 1 min 0,000 mm 0,9 UV-I 344 W/m 2,2 C 11,2 C 13,4 km/h 100,00 %
15.02.2019 10:42 11,2 C 54 % 1032,1 hPa 0,0 l/m 3,4 km/h S-SO 147 1 min 0,000 mm 0,9 UV-I 341 W/m 2,2 C 11,2 C 11,5 km/h 100,00 %
15.02.2019 10:41 11,1 C 54 % 1032,0 hPa 0,0 l/m 4,9 km/h S-SO 161 1 min 0,000 mm 0,9 UV-I 340 W/m 2,2 C 11,1 C 7,7 km/h 100,00 %
15.02.2019 10:40 11,1 C 54 % 1032,0 hPa 0,0 l/m 6,2 km/h S-SO 168 1 min 0,000 mm 0,9 UV-I 338 W/m 2,2 C 11,1 C 9,6 km/h 100,00 %
15.02.2019 10:39 11,1 C 53 % 1032,0 hPa 0,0 l/m 6,3 km/h O-SO 119 1 min 0,000 mm 0,9 UV-I 334 W/m 1,9 C 11,1 C 11,5 km/h 100,00 %
15.02.2019 10:38 11,1 C 54 % 1032,1 hPa 0,0 l/m 6,7 km/h S 174 1 min 0,000 mm 0,9 UV-I 334 W/m 2,2 C 10,9 C 15,3 km/h 100,00 %
15.02.2019 10:37 11,0 C 54 % 1032,1 hPa 0,0 l/m 4,9 km/h S-SO 149 1 min 0,000 mm 0,9 UV-I 331 W/m 2,1 C 11,0 C 7,7 km/h 100,00 %
15.02.2019 10:36 10,9 C 54 % 1032,1 hPa 0,0 l/m 2,8 km/h SO 140 1 min 0,000 mm 0,8 UV-I 330 W/m 2,0 C 10,9 C 7,7 km/h 100,00 %
15.02.2019 10:35 10,8 C 54 % 1032,0 hPa 0,0 l/m 2,9 km/h O-SO 121 1 min 0,000 mm 0,8 UV-I 329 W/m 1,9 C 10,8 C 7,7 km/h 100,00 %
15.02.2019 10:34 10,7 C 54 % 1032,1 hPa 0,0 l/m 3,4 km/h SO 126 1 min 0,000 mm 0,8 UV-I 327 W/m 1,8 C 10,7 C 7,7 km/h 100,00 %
15.02.2019 10:33 10,7 C 54 % 1032,1 hPa 0,0 l/m 7,7 km/h S 171 1 min 0,000 mm 0,8 UV-I 325 W/m 1,8 C 9,8 C 15,3 km/h 100,00 %
15.02.2019 10:32 10,7 C 54 % 1032,1 hPa 0,0 l/m 11,2 km/h S-SO 154 1 min 0,000 mm 0,8 UV-I 323 W/m 1,8 C 7,7 C 21,0 km/h 100,00 %
15.02.2019 10:31 10,7 C 54 % 1032,1 hPa 0,0 l/m 6,9 km/h SO 140 1 min 0,000 mm 0,8 UV-I 323 W/m 1,8 C 10,4 C 11,5 km/h 100,00 %
15.02.2019 10:30 10,7 C 54 % 1032,1 hPa 0,0 l/m 11,8 km/h S-SO 163 1 min 0,000 mm 0,8 UV-I 319 W/m 1,8 C 7,4 C 19,1 km/h 100,00 %
15.02.2019 10:29 10,7 C 54 % 1032,1 hPa 0,0 l/m 8,1 km/h S 180 1 min 0,000 mm 0,8 UV-I 317 W/m 1,8 C 9,5 C 11,5 km/h 100,00 %
15.02.2019 10:28 10,6 C 55 % 1032,1 hPa 0,0 l/m 6,7 km/h SO 142 1 min 0,000 mm 0,8 UV-I 315 W/m 1,9 C 10,4 C 13,4 km/h 100,00 %
15.02.2019 10:27 10,5 C 54 % 1032,1 hPa 0,0 l/m 6,6 km/h S-SO 163 1 min 0,000 mm 0,8 UV-I 315 W/m 1,6 C 10,4 C 9,6 km/h 100,00 %
15.02.2019 10:26 10,5 C 54 % 1032,1 hPa 0,0 l/m 5,3 km/h S 169 1 min 0,000 mm 0,8 UV-I 312 W/m 1,6 C 10,5 C 9,6 km/h 100,00 %
15.02.2019 10:25 10,4 C 54 % 1032,0 hPa 0,0 l/m 10,3 km/h S 174 1 min 0,000 mm 0,8 UV-I 309 W/m 1,5 C 7,9 C 17,2 km/h 100,00 %
15.02.2019 10:24 10,4 C 54 % 1032,0 hPa 0,0 l/m 12,0 km/h SO 131 1 min 0,000 mm 0,8 UV-I 308 W/m 1,5 C 7,0 C 17,2 km/h 96,15 %
15.02.2019 10:23 10,3 C 54 % 1032,0 hPa 0,0 l/m 6,3 km/h SO 130 1 min 0,000 mm 0,8 UV-I 308 W/m 1,4 C 10,3 C 11,5 km/h 100,00 %
15.02.2019 10:22 10,3 C 54 % 1032,0 hPa 0,0 l/m 12,6 km/h S-SO 150 1 min 0,000 mm 0,7 UV-I 306 W/m 1,4 C 6,6 C 21,0 km/h 100,00 %
15.02.2019 10:21 10,3 C 55 % 1032,1 hPa 0,0 l/m 7,0 km/h SO 129 1 min 0,000 mm 0,7 UV-I 302 W/m 1,7 C 9,9 C 17,2 km/h 100,00 %
15.02.2019 10:20 10,2 C 55 % 1032,0 hPa 0,0 l/m 9,5 km/h S-SO 157 1 min 0,000 mm 0,7 UV-I 300 W/m 1,6 C 8,1 C 13,4 km/h 100,00 %
15.02.2019 10:19 10,2 C 55 % 1032,0 hPa 0,0 l/m 7,8 km/h S-SO 159 1 min 0,000 mm 0,7 UV-I 298 W/m 1,6 C 9,2 C 15,3 km/h 100,00 %
15.02.2019 10:18 10,2 C 55 % 1032,0 hPa 0,0 l/m 7,0 km/h SO 131 1 min 0,000 mm 0,7 UV-I 296 W/m 1,6 C 9,8 C 15,3 km/h 92,31 %
15.02.2019 10:17 10,2 C 55 % 1032,1 hPa 0,0 l/m 11,0 km/h S-SO 153 1 min 0,000 mm 0,7 UV-I 294 W/m 1,6 C 7,3 C 19,1 km/h 100,00 %
15.02.2019 10:16 10,1 C 55 % 1032,1 hPa 0,0 l/m 9,3 km/h S-SW 196 1 min 0,000 mm 0,7 UV-I 294 W/m 1,5 C 8,1 C 15,3 km/h 100,00 %
15.02.2019 10:15 10,1 C 55 % 1032,1 hPa 0,0 l/m 9,8 km/h SO 144 0 min 0,000 mm 0,7 UV-I 287 W/m 1,5 C 7,8 C 19,1 km/h 95,83 %
15.02.2019 10:14 10,0 C 56 % 1032,1 hPa 0,0 l/m 5,1 km/h SO 142 0 min 0,000 mm 0,6 UV-I 286 W/m 1,6 C 10,0 C 9,6 km/h 100,00 %
15.02.2019 10:13 9,9 C 56 % 1032,1 hPa 0,0 l/m 8,2 km/h S-SO 159 0 min 0,000 mm 0,6 UV-I 284 W/m 1,5 C 8,6 C 13,4 km/h 96,30 %
15.02.2019 10:12 9,9 C 56 % 1032,1 hPa 0,0 l/m 6,8 km/h S-SO 148 0 min 0,000 mm 0,6 UV-I 278 W/m 1,5 C 9,6 C 9,6 km/h 100,00 %
15.02.2019 10:11 9,9 C 56 % 1032,1 hPa 0,0 l/m 4,0 km/h S-SO 159 0 min 0,000 mm 0,6 UV-I 275 W/m 1,5 C 9,9 C 7,7 km/h 95,83 %
15.02.2019 10:10 9,8 C 56 % 1032,1 hPa 0,0 l/m 8,7 km/h S-SO 159 0 min 0,000 mm 0,7 UV-I 276 W/m 1,4 C 8,2 C 19,1 km/h 100,00 %
15.02.2019 10:09 9,8 C 56 % 1032,1 hPa 0,0 l/m 12,1 km/h S-SO 162 0 min 0,000 mm 0,7 UV-I 274 W/m 1,4 C 6,2 C 17,2 km/h 97,56 %
15.02.2019 10:08 9,8 C 56 % 1032,1 hPa 0,0 l/m 5,9 km/h SO 138 0 min 0,000 mm 0,6 UV-I 194 W/m 1,4 C 9,8 C 17,2 km/h 85,71 %
15.02.2019 10:07 9,7 C 56 % 1032,1 hPa 0,0 l/m 6,9 km/h SO 145 0 min 0,000 mm 0,6 UV-I 98 W/m 1,4 C 9,3 C 9,6 km/h 100,00 %
15.02.2019 10:06 9,7 C 57 % 1032,2 hPa 0,0 l/m 13,2 km/h SO 126 0 min 0,000 mm 0,1 UV-I 61 W/m 1,6 C 5,6 C 21,0 km/h 100,00 %
15.02.2019 10:05 9,6 C 56 % 1032,1 hPa 0,0 l/m 3,3 km/h S 169 0 min 0,000 mm 0,0 UV-I 39 W/m 1,3 C 9,6 C 7,7 km/h 95,65 %
15.02.2019 10:04 9,6 C 56 % 1032,2 hPa 0,0 l/m 10,0 km/h S 173 0 min 0,000 mm 0,1 UV-I 155 W/m 1,3 C 7,2 C 17,2 km/h 95,83 %
15.02.2019 10:03 9,6 C 56 % 1032,2 hPa 0,0 l/m 7,2 km/h SO 146 0 min 0,000 mm 0,6 UV-I 176 W/m 1,3 C 9,0 C 11,5 km/h 100,00 %
15.02.2019 10:02 9,5 C 57 % 1032,2 hPa 0,0 l/m 9,4 km/h SO 146 0 min 0,000 mm 0,6 UV-I 223 W/m 1,4 C 7,4 C 13,4 km/h 96,30 %
15.02.2019 10:01 9,5 C 57 % 1032,2 hPa 0,0 l/m 4,5 km/h SO 132 0 min 0,000 mm 0,6 UV-I 263 W/m 1,4 C 9,5 C 9,6 km/h 100,00 %
15.02.2019 10:00 9,4 C 58 % 1032,2 hPa 0,0 l/m 7,1 km/h S-SO 160 0 min 0,101 mm 0,6 UV-I 262 W/m 1,6 C 8,9 C 11,5 km/h 95,83 %
15.02.2019 09:59 9,4 C 57 % 1032,1 hPa 0,0 l/m 5,2 km/h S 181 0 min 0,000 mm 0,6 UV-I 260 W/m 1,3 C 9,4 C 9,6 km/h 100,00 %
15.02.2019 09:58 9,4 C 58 % 1032,2 hPa 0,0 l/m 8,0 km/h S 188 0 min 0,000 mm 0,6 UV-I 257 W/m 1,6 C 8,2 C 13,4 km/h 92,59 %
15.02.2019 09:57 9,4 C 58 % 1032,2 hPa 0,0 l/m 6,5 km/h S-SO 151 0 min 0,000 mm 0,6 UV-I 254 W/m 1,6 C 9,4 C 11,5 km/h 95,65 %
15.02.2019 09:56 9,3 C 58 % 1032,2 hPa 0,0 l/m 3,5 km/h SO 137 0 min 0,000 mm 0,6 UV-I 252 W/m 1,5 C 9,3 C 5,7 km/h 100,00 %
15.02.2019 09:55 9,3 C 58 % 1032,2 hPa 0,0 l/m 6,8 km/h SO 124 0 min 0,000 mm 0,5 UV-I 251 W/m 1,5 C 9,0 C 11,5 km/h 92,31 %
15.02.2019 09:54 9,2 C 58 % 1032,2 hPa 0,0 l/m 7,6 km/h S 176 0 min 0,000 mm 0,5 UV-I 248 W/m 1,4 C 8,3 C 15,3 km/h 96,30 %
15.02.2019 09:53 9,2 C 58 % 1032,2 hPa 0,0 l/m 6,8 km/h SO 142 0 min 0,000 mm 0,5 UV-I 244 W/m 1,4 C 8,9 C 11,5 km/h 93,33 %
15.02.2019 09:52 9,1 C 58 % 1032,2 hPa 0,0 l/m 5,5 km/h SO 137 0 min 0,000 mm 0,5 UV-I 244 W/m 1,3 C 9,1 C 11,5 km/h 100,00 %
15.02.2019 09:51 9,1 C 58 % 1032,2 hPa 0,0 l/m 7,7 km/h SO 138 0 min 0,000 mm 0,5 UV-I 241 W/m 1,3 C 8,1 C 13,4 km/h 96,55 %
15.02.2019 09:50 9,1 C 58 % 1032,2 hPa 0,0 l/m 6,9 km/h S 169 0 min 0,000 mm 0,5 UV-I 238 W/m 1,3 C 8,7 C 9,6 km/h 100,00 %
15.02.2019 09:49 9,0 C 58 % 1032,2 hPa 0,0 l/m 5,7 km/h S-SO 168 0 min 0,000 mm 0,5 UV-I 236 W/m 1,2 C 9,0 C 9,6 km/h 95,83 %
15.02.2019 09:48 8,9 C 58 % 1032,2 hPa 0,0 l/m 9,2 km/h S-SO 157 0 min 0,000 mm 0,5 UV-I 236 W/m 1,1 C 6,9 C 15,3 km/h 95,65 %
15.02.2019 09:47 8,9 C 59 % 1032,2 hPa 0,0 l/m 5,9 km/h S-SO 155 0 min 0,000 mm 0,5 UV-I 233 W/m 1,3 C 8,9 C 13,4 km/h 97,37 %
15.02.2019 09:46 8,8 C 59 % 1032,2 hPa 0,0 l/m 5,4 km/h SO 124 0 min 0,000 mm 0,5 UV-I 230 W/m 1,2 C 8,8 C 7,7 km/h 100,00 %
15.02.2019 09:45 8,7 C 59 % 1032,2 hPa 0,0 l/m 4,1 km/h SO 125 0 min 0,000 mm 0,5 UV-I 226 W/m 1,1 C 8,7 C 11,5 km/h 100,00 %
15.02.2019 09:44 8,7 C 59 % 1032,2 hPa 0,0 l/m 5,5 km/h SO 132 0 min 0,000 mm 0,5 UV-I 223 W/m 1,1 C 8,7 C 9,6 km/h 83,33 %
15.02.2019 09:43 8,6 C 59 % 1032,2 hPa 0,0 l/m 6,2 km/h SO 126 0 min 0,000 mm 0,5 UV-I 223 W/m 1,0 C 8,6 C 11,5 km/h 100,00 %
15.02.2019 09:42 8,6 C 59 % 1032,3 hPa 0,0 l/m 8,8 km/h S-SO 167 0 min 0,000 mm 0,5 UV-I 219 W/m 1,0 C 6,8 C 17,2 km/h 95,65 %
15.02.2019 09:41 8,5 C 59 % 1032,2 hPa 0,0 l/m 5,3 km/h O-SO 121 0 min 0,000 mm 0,5 UV-I 216 W/m 1,0 C 8,5 C 13,4 km/h 100,00 %
15.02.2019 09:40 8,4 C 59 % 1032,2 hPa 0,0 l/m 5,7 km/h SO 146 0 min 0,000 mm 0,3 UV-I 215 W/m 0,9 C 8,4 C 13,4 km/h 96,15 %
15.02.2019 09:39 8,4 C 60 % 1032,3 hPa 0,0 l/m 8,2 km/h S-SO 166 0 min 0,000 mm 0,0 UV-I 212 W/m 1,1 C 7,0 C 11,5 km/h 96,30 %
15.02.2019 09:38 8,3 C 60 % 1032,3 hPa 0,0 l/m 5,2 km/h SO 136 0 min 0,000 mm 0,0 UV-I 209 W/m 1,0 C 8,3 C 9,6 km/h 96,15 %
15.02.2019 09:37 8,3 C 60 % 1032,3 hPa 0,0 l/m 8,3 km/h O-SO 123 0 min 0,000 mm 0,0 UV-I 205 W/m 1,0 C 6,9 C 13,4 km/h 91,67 %
15.02.2019 09:36 8,2 C 61 % 1032,3 hPa 0,0 l/m 5,3 km/h O-SO 119 0 min 0,000 mm 0,0 UV-I 203 W/m 1,1 C 8,2 C 7,7 km/h 100,00 %
15.02.2019 09:35 8,1 C 61 % 1032,3 hPa 0,0 l/m 5,8 km/h SO 145 0 min 0,000 mm 0,0 UV-I 200 W/m 1,0 C 8,1 C 7,7 km/h 95,65 %
15.02.2019 09:34 8,1 C 61 % 1032,3 hPa 0,0 l/m 5,6 km/h O-SO 119 0 min 0,000 mm 0,0 UV-I 197 W/m 1,0 C 8,1 C 7,7 km/h 100,00 %
15.02.2019 09:33 8,0 C 61 % 1032,3 hPa 0,0 l/m 6,2 km/h O-SO 121 0 min 0,000 mm 0,0 UV-I 196 W/m 0,9 C 8,0 C 9,6 km/h 96,15 %
15.02.2019 09:32 7,9 C 61 % 1032,4 hPa 0,0 l/m 8,9 km/h SO 144 0 min 0,000 mm 0,0 UV-I 193 W/m 0,9 C 6,0 C 13,4 km/h 92,31 %
15.02.2019 09:31 7,9 C 61 % 1032,3 hPa 0,0 l/m 4,3 km/h O-SO 121 0 min 0,000 mm 0,0 UV-I 190 W/m 0,9 C 7,9 C 13,4 km/h 100,00 %
15.02.2019 09:30 7,8 C 61 % 1032,4 hPa 0,0 l/m 5,9 km/h S-SO 157 0 min 0,000 mm 0,0 UV-I 186 W/m 0,8 C 7,8 C 15,3 km/h 95,83 %
15.02.2019 09:29 7,8 C 62 % 1032,3 hPa 0,0 l/m 5,8 km/h S-SO 153 0 min 0,000 mm 0,0 UV-I 183 W/m 1,0 C 7,8 C 9,6 km/h 100,00 %
15.02.2019 09:28 7,7 C 62 % 1032,4 hPa 0,0 l/m 2,7 km/h SO 133 0 min 0,000 mm 0,0 UV-I 181 W/m 0,9 C 7,7 C 7,7 km/h 96,55 %
15.02.2019 09:27 7,7 C 62 % 1032,4 hPa 0,0 l/m 5,5 km/h SO 129 0 min 0,000 mm 0,0 UV-I 179 W/m 0,9 C 7,7 C 7,7 km/h 100,00 %
15.02.2019 09:26 7,6 C 62 % 1032,4 hPa 0,0 l/m 1,8 km/h SO 138 0 min 0,000 mm 0,0 UV-I 176 W/m 0,8 C 7,6 C 3,8 km/h 95,83 %
15.02.2019 09:25 7,6 C 62 % 1032,4 hPa 0,0 l/m 2,4 km/h SO 138 0 min 0,000 mm 0,0 UV-I 173 W/m 0,8 C 7,6 C 3,8 km/h 96,15 %
15.02.2019 09:24 7,5 C 63 % 1032,4 hPa 0,0 l/m 4,2 km/h SO 138 0 min 0,000 mm 0,0 UV-I 171 W/m 0,9 C 7,5 C 9,6 km/h 100,00 %
15.02.2019 09:23 7,4 C 63 % 1032,4 hPa 0,0 l/m 0,9 km/h SO 135 0 min 0,000 mm 0,0 UV-I 167 W/m 0,8 C 7,4 C 1,9 km/h 100,00 %
15.02.2019 09:22 7,3 C 63 % 1032,4 hPa 0,0 l/m 1,6 km/h SO 135 0 min 0,000 mm 0,0 UV-I 163 W/m 0,7 C 7,3 C 3,8 km/h 97,22 %
15.02.2019 09:21 7,3 C 63 % 1032,4 hPa 0,0 l/m 3,3 km/h SO 135 0 min 0,000 mm 0,0 UV-I 161 W/m 0,7 C 7,3 C 5,7 km/h 95,65 %
15.02.2019 09:20 7,2 C 64 % 1032,4 hPa 0,0 l/m 1,4 km/h SO 135 0 min 0,000 mm 0,0 UV-I 158 W/m 0,9 C 7,2 C 3,8 km/h 100,00 %
15.02.2019 09:19 7,1 C 64 % 1032,4 hPa 0,0 l/m 0,5 km/h SO 135 0 min 0,000 mm 0,0 UV-I 155 W/m 0,8 C 7,1 C 3,8 km/h 91,30 %
15.02.2019 09:18 7,1 C 63 % 1032,4 hPa 0,0 l/m 2,0 km/h SO 135 0 min 0,000 mm 0,0 UV-I 152 W/m 0,5 C 7,1 C 5,7 km/h 100,00 %
15.02.2019 09:17 7,0 C 64 % 1032,4 hPa 0,0 l/m 2,2 km/h SO 135 0 min 0,000 mm 0,0 UV-I 149 W/m 0,7 C 7,0 C 5,7 km/h 96,15 %
15.02.2019 09:16 6,9 C 64 % 1032,5 hPa 0,0 l/m 1,9 km/h SO 135 0 min 0,000 mm 0,0 UV-I 147 W/m 0,6 C 6,9 C 3,8 km/h 100,00 %
15.02.2019 09:15 6,9 C 64 % 1032,4 hPa 0,0 l/m 2,3 km/h SO 135 0 min 0,000 mm 0,0 UV-I 143 W/m 0,6 C 6,9 C 3,8 km/h 96,15 %
15.02.2019 09:14 6,8 C 64 % 1032,5 hPa 0,0 l/m 4,1 km/h SO 135 0 min 0,000 mm 0,0 UV-I 140 W/m 0,5 C 6,8 C 5,7 km/h 100,00 %
15.02.2019 09:13 6,8 C 64 % 1032,5 hPa 0,0 l/m 1,7 km/h SO 135 0 min 0,000 mm 0,0 UV-I 138 W/m 0,5 C 6,8 C 3,8 km/h 96,30 %
15.02.2019 09:12 6,8 C 65 % 1032,5 hPa 0,0 l/m 3,0 km/h SO 135 0 min 0,000 mm 0,0 UV-I 135 W/m 0,7 C 6,8 C 3,8 km/h 95,65 %
15.02.2019 09:11 6,7 C 65 % 1032,5 hPa 0,0 l/m 2,7 km/h SO 135 0 min 0,000 mm 0,0 UV-I 132 W/m 0,6 C 6,7 C 5,7 km/h 100,00 %
15.02.2019 09:10 6,7 C 65 % 1032,5 hPa 0,0 l/m 3,0 km/h SO 135 0 min 0,000 mm 0,0 UV-I 129 W/m 0,6 C 6,7 C 5,7 km/h 96,15 %
15.02.2019 09:09 6,6 C 65 % 1032,5 hPa 0,0 l/m 4,6 km/h SO 135 0 min 0,000 mm 0,0 UV-I 127 W/m 0,5 C 6,6 C 7,7 km/h 100,00 %
15.02.2019 09:08 6,6 C 65 % 1032,5 hPa 0,0 l/m 1,9 km/h SO 134 0 min 0,000 mm 0,0 UV-I 124 W/m 0,5 C 6,6 C 5,7 km/h 91,30 %
15.02.2019 09:07 6,5 C 65 % 1032,5 hPa 0,0 l/m 2,6 km/h SO 134 0 min 0,000 mm 0,0 UV-I 121 W/m 0,4 C 6,5 C 3,8 km/h 96,30 %
15.02.2019 09:06 6,4 C 65 % 1032,6 hPa 0,0 l/m 2,1 km/h SO 134 0 min 0,000 mm 0,0 UV-I 118 W/m 0,3 C 6,4 C 3,8 km/h 100,00 %
15.02.2019 09:05 6,4 C 66 % 1032,5 hPa 0,0 l/m 2,1 km/h SO 134 0 min 0,000 mm 0,0 UV-I 116 W/m 0,5 C 6,4 C 5,7 km/h 100,00 %
15.02.2019 09:04 6,3 C 66 % 1032,6 hPa 0,0 l/m 2,5 km/h SO 134 0 min 0,000 mm 0,0 UV-I 112 W/m 0,4 C 6,3 C 7,7 km/h 96,15 %
15.02.2019 09:03 6,2 C 66 % 1032,5 hPa 0,0 l/m 2,5 km/h SO 134 0 min 0,000 mm 0,0 UV-I 109 W/m 0,3 C 6,2 C 5,7 km/h 95,83 %
15.02.2019 09:02 6,2 C 67 % 1032,5 hPa 0,0 l/m 2,4 km/h SO 134 0 min 0,001 mm 0,0 UV-I 106 W/m 0,5 C 6,2 C 5,7 km/h 100,00 %
15.02.2019 09:01 6,1 C 67 % 1032,6 hPa 0,0 l/m 1,4 km/h SO 134 0 min 0,025 mm 0,0 UV-I 104 W/m 0,4 C 6,1 C 3,8 km/h 95,83 %
15.02.2019 09:00 6,1 C 67 % 1032,5 hPa 0,0 l/m 1,4 km/h SO 134 0 min 0,000 mm 0,0 UV-I 102 W/m 0,4 C 6,1 C 3,8 km/h 100,00 %
15.02.2019 08:59 5,9 C 67 % 1032,5 hPa 0,0 l/m 0,7 km/h SO 134 0 min 0,000 mm 0,0 UV-I 100 W/m 0,3 C 5,9 C 1,9 km/h 95,83 %
15.02.2019 08:58 5,9 C 67 % 1032,6 hPa 0,0 l/m 1,5 km/h SO 134 0 min 0,000 mm 0,0 UV-I 96 W/m 0,3 C 5,9 C 3,8 km/h 95,65 %
15.02.2019 08:57 5,8 C 68 % 1032,6 hPa 0,0 l/m 0,6 km/h SO 134 0 min 0,000 mm 0,0 UV-I 94 W/m 0,4 C 5,8 C 1,9 km/h 100,00 %
15.02.2019 08:56 5,7 C 68 % 1032,6 hPa 0,0 l/m 1,1 km/h SO 134 0 min 0,000 mm 0,0 UV-I 91 W/m 0,3 C 5,7 C 1,9 km/h 96,15 %
15.02.2019 08:55 5,7 C 68 % 1032,6 hPa 0,0 l/m 0,6 km/h SO 134 0 min 0,000 mm 0,0 UV-I 88 W/m 0,3 C 5,7 C 1,9 km/h 100,00 %
15.02.2019 08:54 5,6 C 68 % 1032,5 hPa 0,0 l/m 0,1 km/h SO 134 0 min 0,000 mm 0,0 UV-I 86 W/m 0,2 C 5,6 C 1,9 km/h 96,55 %
15.02.2019 08:53 5,6 C 68 % 1032,5 hPa 0,0 l/m 3,4 km/h SO 134 0 min 0,000 mm 0,0 UV-I 84 W/m 0,2 C 5,6 C 5,7 km/h 100,00 %
15.02.2019 08:52 5,5 C 69 % 1032,5 hPa 0,0 l/m 2,7 km/h SO 134 0 min 0,000 mm 0,0 UV-I 82 W/m 0,3 C 5,5 C 5,7 km/h 93,33 %
15.02.2019 08:51 5,4 C 69 % 1032,5 hPa 0,0 l/m 2,6 km/h SO 131 0 min 0,000 mm 0,0 UV-I 78 W/m 0,2 C 5,4 C 3,8 km/h 100,00 %
15.02.2019 08:50 5,4 C 69 % 1032,5 hPa 0,0 l/m 2,6 km/h SO 131 0 min 0,000 mm 0,0 UV-I 76 W/m 0,2 C 5,4 C 5,7 km/h 95,83 %
15.02.2019 08:49 5,3 C 70 % 1032,5 hPa 0,0 l/m 1,6 km/h SO 132 0 min 0,000 mm 0,0 UV-I 75 W/m 0,3 C 5,3 C 3,8 km/h 96,15 %
15.02.2019 08:48 5,2 C 70 % 1032,5 hPa 0,0 l/m 2,6 km/h SO 132 0 min 0,000 mm 0,0 UV-I 72 W/m 0,2 C 5,2 C 3,8 km/h 100,00 %
15.02.2019 08:47 5,1 C 70 % 1032,5 hPa 0,0 l/m 0,9 km/h SO 130 0 min 0,000 mm 0,0 UV-I 69 W/m 0,1 C 5,1 C 3,8 km/h 100,00 %
15.02.2019 08:46 5,0 C 71 % 1032,6 hPa 0,0 l/m 1,2 km/h SO 130 0 min 0,000 mm 0,0 UV-I 67 W/m 0,2 C 5,0 C 3,8 km/h 96,30 %
15.02.2019 08:45 4,9 C 71 % 1032,6 hPa 0,0 l/m 0,3 km/h SO 129 0 min 0,000 mm 0,0 UV-I 64 W/m 0,1 C 4,9 C 1,9 km/h 95,65 %
15.02.2019 08:44 4,8 C 72 % 1032,6 hPa 0,0 l/m 0,6 km/h SO 129 0 min 0,000 mm 0,0 UV-I 62 W/m 0,2 C 4,8 C 1,9 km/h 100,00 %
15.02.2019 08:43 4,7 C 72 % 1032,6 hPa 0,0 l/m 1,0 km/h SO 129 0 min 0,000 mm 0,0 UV-I 60 W/m 0,1 C 4,7 C 1,9 km/h 91,30 %
15.02.2019 08:42 4,6 C 72 % 1032,6 hPa 0,0 l/m 0,8 km/h SO 129 0 min 0,000 mm 0,0 UV-I 58 W/m -0,0 C 4,6 C 1,9 km/h 100,00 %
15.02.2019 08:41 4,4 C 72 % 1032,6 hPa 0,0 l/m 1,1 km/h SO 129 0 min 0,000 mm 0,0 UV-I 56 W/m -0,2 C 4,4 C 1,9 km/h 95,65 %
15.02.2019 08:40 4,3 C 73 % 1032,6 hPa 0,0 l/m 1,0 km/h SO 129 0 min 0,000 mm 0,0 UV-I 54 W/m -0,1 C 4,3 C 1,9 km/h 100,00 %
15.02.2019 08:39 4,3 C 73 % 1032,5 hPa 0,0 l/m 0,4 km/h SO 129 0 min 0,000 mm 0,0 UV-I 52 W/m -0,1 C 4,3 C 1,9 km/h 95,65 %
15.02.2019 08:38 4,2 C 74 % 1032,5 hPa 0,0 l/m 0,2 km/h SO 129 0 min 0,000 mm 0,0 UV-I 50 W/m -0,0 C 4,2 C 1,9 km/h 96,30 %
15.02.2019 08:37 4,2 C 74 % 1032,5 hPa 0,0 l/m 1,4 km/h SO 129 0 min 0,000 mm 0,0 UV-I 47 W/m -0,0 C 4,2 C 3,8 km/h 95,65 %
15.02.2019 08:36 4,1 C 75 % 1032,5 hPa 0,0 l/m 1,4 km/h SO 129 0 min 0,000 mm 0,0 UV-I 46 W/m 0,1 C 4,1 C 1,9 km/h 95,83 %
15.02.2019 08:35 4,0 C 75 % 1032,5 hPa 0,0 l/m 1,4 km/h SO 129 0 min 0,000 mm 0,0 UV-I 44 W/m -0,0 C 4,0 C 1,9 km/h 97,37 %
15.02.2019 08:34 3,9 C 76 % 1032,5 hPa 0,0 l/m 2,0 km/h SO 129 0 min 0,000 mm 0,0 UV-I 41 W/m 0,1 C 3,9 C 3,8 km/h 93,33 %
15.02.2019 08:33 3,8 C 76 % 1032,5 hPa 0,0 l/m 1,3 km/h SO 129 0 min 0,000 mm 0,0 UV-I 39 W/m -0,0 C 3,8 C 1,9 km/h 100,00 %
15.02.2019 08:32 3,7 C 77 % 1032,6 hPa 0,0 l/m 1,3 km/h SO 129 0 min 0,000 mm 0,0 UV-I 38 W/m 0,1 C 3,7 C 1,9 km/h 97,37 %
15.02.2019 08:31 3,7 C 77 % 1032,5 hPa 0,0 l/m 0,3 km/h SO 129 0 min 0,000 mm 0,0 UV-I 37 W/m 0,1 C 3,7 C 1,9 km/h 91,67 %
15.02.2019 08:30 3,6 C 77 % 1032,5 hPa 0,0 l/m 0,6 km/h SO 129 0 min 0,000 mm 0,0 UV-I 35 W/m -0,0 C 3,6 C 1,9 km/h 100,00 %
15.02.2019 08:29 3,6 C 77 % 1032,6 hPa 0,0 l/m 1,4 km/h SO 129 0 min 0,000 mm 0,0 UV-I 32 W/m -0,0 C 3,6 C 3,8 km/h 95,83 %
15.02.2019 08:28 3,4 C 78 % 1032,6 hPa 0,0 l/m 1,5 km/h SO 129 0 min 0,000 mm 0,0 UV-I 25 W/m -0,1 C 3,4 C 3,8 km/h 100,00 %
15.02.2019 08:27 3,4 C 78 % 1032,6 hPa 0,0 l/m 0,6 km/h SO 129 0 min 0,000 mm 0,0 UV-I 20 W/m -0,1 C 3,4 C 1,9 km/h 93,33 %
15.02.2019 08:26 3,3 C 78 % 1032,6 hPa 0,0 l/m 2,3 km/h SO 129 0 min 0,000 mm 0,0 UV-I 18 W/m -0,2 C 3,3 C 3,8 km/h 100,00 %
15.02.2019 08:25 3,2 C 79 % 1032,6 hPa 0,0 l/m 2,7 km/h SO 129 0 min 0,000 mm 0,0 UV-I 18 W/m -0,1 C 3,2 C 5,7 km/h 96,30 %
15.02.2019 08:24 3,1 C 79 % 1032,6 hPa 0,0 l/m 2,8 km/h SO 129 0 min 0,000 mm 0,0 UV-I 18 W/m -0,2 C 3,1 C 3,8 km/h 95,65 %
15.02.2019 08:23 3,1 C 79 % 1032,6 hPa 0,0 l/m 2,2 km/h SO 129 0 min 0,000 mm 0,0 UV-I 16 W/m -0,2 C 3,1 C 3,8 km/h 95,83 %
15.02.2019 08:22 3,0 C 80 % 1032,6 hPa 0,0 l/m 1,4 km/h SO 129 0 min 0,000 mm 0,0 UV-I 16 W/m -0,1 C 3,0 C 1,9 km/h 95,65 %
15.02.2019 08:21 2,9 C 80 % 1032,6 hPa 0,0 l/m 0,7 km/h SO 129 0 min 0,000 mm 0,0 UV-I 16 W/m -0,2 C 2,9 C 1,9 km/h 100,00 %
15.02.2019 08:20 2,8 C 81 % 1032,6 hPa 0,0 l/m 1,7 km/h SO 129 0 min 0,000 mm 0,0 UV-I 16 W/m -0,1 C 2,8 C 3,8 km/h 95,65 %
15.02.2019 08:19 2,8 C 81 % 1032,6 hPa 0,0 l/m 2,5 km/h SO 129 0 min 0,000 mm 0,0 UV-I 16 W/m -0,1 C 2,8 C 5,7 km/h 100,00 %
15.02.2019 08:18 2,7 C 81 % 1032,6 hPa 0,0 l/m 1,1 km/h SO 128 0 min 0,000 mm 0,0 UV-I 16 W/m -0,2 C 2,7 C 3,8 km/h 93,33 %
15.02.2019 08:17 2,6 C 81 % 1032,5 hPa 0,0 l/m 0,6 km/h SO 128 0 min 0,000 mm 0,0 UV-I 14 W/m -0,3 C 2,6 C 1,9 km/h 100,00 %
15.02.2019 08:16 2,5 C 81 % 1032,5 hPa 0,0 l/m 0,6 km/h SO 128 0 min 0,000 mm 0,0 UV-I 14 W/m -0,4 C 2,5 C 1,9 km/h 95,83 %
15.02.2019 08:15 2,4 C 82 % 1032,5 hPa 0,0 l/m 1,8 km/h SO 128 0 min 0,000 mm 0,0 UV-I 14 W/m -0,4 C 2,4 C 3,8 km/h 100,00 %
15.02.2019 08:14 2,3 C 82 % 1032,5 hPa 0,0 l/m 0,6 km/h SO 128 0 min 0,000 mm 0,0 UV-I 14 W/m -0,4 C 2,3 C 3,8 km/h 95,83 %
15.02.2019 08:13 2,3 C 83 % 1032,5 hPa 0,0 l/m 1,1 km/h SO 128 0 min 0,000 mm 0,0 UV-I 14 W/m -0,3 C 2,3 C 1,9 km/h 96,15 %
15.02.2019 08:12 2,1 C 83 % 1032,5 hPa 0,0 l/m 1,9 km/h SO 128 0 min 0,000 mm 0,0 UV-I 12 W/m -0,5 C 2,1 C 3,8 km/h 100,00 %
15.02.2019 08:11 2,0 C 83 % 1032,5 hPa 0,0 l/m 1,5 km/h SO 128 0 min 0,000 mm 0,0 UV-I 12 W/m -0,6 C 2,0 C 3,8 km/h 95,65 %
15.02.2019 08:10 1,9 C 83 % 1032,5 hPa 0,0 l/m 0,0 km/h SO 128 0 min 0,000 mm 0,0 UV-I 12 W/m -0,7 C 1,9 C 0,0 km/h 100,00 %
15.02.2019 08:09 1,8 C 84 % 1032,5 hPa 0,0 l/m 0,7 km/h SO 128 0 min 0,000 mm 0,0 UV-I 12 W/m -0,6 C 1,8 C 1,9 km/h 96,15 %
15.02.2019 08:08 1,7 C 83 % 1032,5 hPa 0,0 l/m 0,4 km/h SO 128 0 min 0,000 mm 0,0 UV-I 12 W/m -0,9 C 1,7 C 1,9 km/h 100,00 %
15.02.2019 08:07 1,6 C 84 % 1032,5 hPa 0,0 l/m 0,9 km/h SO 128 0 min 0,000 mm 0,0 UV-I 11 W/m -0,8 C 1,6 C 1,9 km/h 96,15 %
15.02.2019 08:06 1,4 C 84 % 1032,5 hPa 0,0 l/m 1,2 km/h SO 128 0 min 0,000 mm 0,0 UV-I 11 W/m -1,0 C 1,4 C 3,8 km/h 100,00 %
15.02.2019 08:05 1,3 C 84 % 1032,5 hPa 0,0 l/m 0,1 km/h SO 128 0 min 0,000 mm 0,0 UV-I 11 W/m -1,1 C 1,3 C 1,9 km/h 91,67 %
15.02.2019 08:04 1,2 C 84 % 1032,5 hPa 0,0 l/m 0,2 km/h SO 128 0 min 0,000 mm 0,0 UV-I 11 W/m -1,2 C 1,2 C 1,9 km/h 96,30 %
15.02.2019 08:03 1,1 C 84 % 1032,5 hPa 0,0 l/m 1,1 km/h SO 128 0 min 0,000 mm 0,0 UV-I 10 W/m -1,3 C 1,1 C 1,9 km/h 100,00 %
15.02.2019 08:02 1,0 C 84 % 1032,5 hPa 0,0 l/m 0,7 km/h SO 128 0 min 0,000 mm 0,0 UV-I 9 W/m -1,4 C 1,0 C 1,9 km/h 95,83 %
15.02.2019 08:01 0,9 C 84 % 1032,5 hPa 0,0 l/m 0,0 km/h SO 128 0 min 0,000 mm 0,0 UV-I 9 W/m -1,5 C 0,9 C 0,0 km/h 100,00 %
15.02.2019 08:00 0,8 C 84 % 1032,5 hPa 0,0 l/m 0,1 km/h SO 128 0 min 0,000 mm 0,0 UV-I 9 W/m -1,6 C 0,8 C 1,9 km/h 91,67 %
15.02.2019 07:59 0,7 C 84 % 1032,5 hPa 0,0 l/m 0,2 km/h SO 128 0 min 0,000 mm 0,0 UV-I 9 W/m -1,7 C 0,7 C 1,9 km/h 92,31 %
15.02.2019 07:58 0,7 C 83 % 1032,5 hPa 0,0 l/m 0,3 km/h SO 128 0 min 0,000 mm 0,0 UV-I 8 W/m -1,8 C 0,7 C 1,9 km/h 86,96 %
15.02.2019 07:57 0,7 C 83 % 1032,5 hPa 0,0 l/m 0,2 km/h SO 128 0 min 0,000 mm 0,0 UV-I 7 W/m -1,8 C 0,7 C 1,9 km/h 100,00 %
15.02.2019 07:56 0,6 C 83 % 1032,5 hPa 0,0 l/m 0,1 km/h SO 128 0 min 0,000 mm 0,0 UV-I 7 W/m -1,9 C 0,6 C 1,9 km/h 91,30 %
15.02.2019 07:55 0,6 C 83 % 1032,4 hPa 0,0 l/m 0,1 km/h SO 128 0 min 0,000 mm 0,0 UV-I 7 W/m -1,9 C 0,6 C 1,9 km/h 95,83 %
15.02.2019 07:54 0,6 C 83 % 1032,4 hPa 0,0 l/m 0,1 km/h SO 128 0 min 0,000 mm 0,0 UV-I 7 W/m -1,9 C 0,6 C 1,9 km/h 100,00 %
15.02.2019 07:53 0,6 C 83 % 1032,4 hPa 0,0 l/m 0,0 km/h SO 128 0 min 0,000 mm 0,0 UV-I 6 W/m -1,9 C 0,6 C 0,0 km/h 95,12 %
15.02.2019 07:52 0,6 C 83 % 1032,4 hPa 0,0 l/m 0,0 km/h SO 128 0 min 0,000 mm 0,0 UV-I 5 W/m -1,9 C 0,6 C 0,0 km/h 100,00 %
15.02.2019 07:51 0,6 C 83 % 1032,4 hPa 0,0 l/m 0,0 km/h SO 128 0 min 0,000 mm 0,0 UV-I 5 W/m -1,9 C 0,6 C 0,0 km/h 96,15 %
15.02.2019 07:50 0,6 C 83 % 1032,4 hPa 0,0 l/m 0,0 km/h SO 128 0 min 0,000 mm 0,0 UV-I 5 W/m -1,9 C 0,6 C 0,0 km/h 100,00 %
15.02.2019 07:49 0,6 C 83 % 1032,4 hPa 0,0 l/m 0,0 km/h SO 128 0 min 0,000 mm 0,0 UV-I 5 W/m -1,9 C 0,6 C 0,0 km/h 95,83 %
15.02.2019 07:48 0,6 C 83 % 1032,4 hPa 0,0 l/m 0,0 km/h SO 128 0 min 0,000 mm 0,0 UV-I 4 W/m -1,9 C 0,6 C 0,0 km/h 100,00 %
15.02.2019 07:47 0,6 C 83 % 1032,4 hPa 0,0 l/m 0,0 km/h SO 128 0 min 0,000 mm 0,0 UV-I 0 W/m -1,9 C 0,6 C 0,0 km/h 92,59 %
15.02.2019 07:46 0,5 C 83 % 1032,4 hPa 0,0 l/m 0,1 km/h SO 128 0 min 0,000 mm 0,0 UV-I 0 W/m -2,0 C 0,5 C 1,9 km/h 96,15 %
15.02.2019 07:45 0,5 C 83 % 1032,4 hPa 0,0 l/m 0,0 km/h SO 128 0 min 0,000 mm 0,0 UV-I 0 W/m -2,0 C 0,5 C 0,0 km/h 100,00 %
15.02.2019 07:44 0,5 C 83 % 1032,4 hPa 0,0 l/m 0,2 km/h SO 128 0 min 0,000 mm 0,0 UV-I 0 W/m -2,0 C 0,5 C 1,9 km/h 90,91 %
15.02.2019 07:43 0,5 C 83 % 1032,4 hPa 0,0 l/m 0,0 km/h SO 128 0 min 0,000 mm 0,0 UV-I 0 W/m -2,0 C 0,5 C 0,0 km/h 100,00 %
15.02.2019 07:42 0,5 C 83 % 1032,3 hPa 0,0 l/m 0,0 km/h SO 128 0 min 0,000 mm 0,0 UV-I 0 W/m -2,0 C 0,5 C 0,0 km/h 96,15 %
15.02.2019 07:41 0,5 C 83 % 1032,4 hPa 0,0 l/m 0,1 km/h SO 128 0 min 0,000 mm 0,0 UV-I 0 W/m -2,0 C 0,5 C 1,9 km/h 100,00 %
15.02.2019 07:40 0,5 C 83 % 1032,4 hPa 0,0 l/m 0,0 km/h SO 128 0 min 0,000 mm 0,0 UV-I 0 W/m -2,0 C 0,5 C 0,0 km/h 95,65 %
15.02.2019 07:39 0,5 C 83 % 1032,4 hPa 0,0 l/m 0,0 km/h SO 128 0 min 0,000 mm 0,0 UV-I 0 W/m -2,0 C 0,5 C 0,0 km/h 100,00 %
15.02.2019 07:38 0,5 C 83 % 1032,4 hPa 0,0 l/m 0,0 km/h SO 128 0 min 0,000 mm 0,0 UV-I 0 W/m -2,0 C 0,5 C 0,0 km/h 96,55 %
15.02.2019 07:37 0,5 C 82 % 1032,4 hPa 0,0 l/m 0,0 km/h SO 128 0 min 0,000 mm 0,0 UV-I 0 W/m -2,2 C 0,5 C 0,0 km/h 91,67 %
15.02.2019 07:36 0,6 C 82 % 1032,3 hPa 0,0 l/m 0,0 km/h SO 128 0 min 0,000 mm 0,0 UV-I 0 W/m -2,1 C 0,6 C 0,0 km/h 100,00 %
15.02.2019 07:35 0,6 C 82 % 1032,3 hPa 0,0 l/m 0,0 km/h SO 128 0 min 0,000 mm 0,0 UV-I 0 W/m -2,1 C 0,6 C 0,0 km/h 95,83 %
15.02.2019 07:34 0,6 C 82 % 1032,4 hPa 0,0 l/m 0,0 km/h SO 128 0 min 0,000 mm 0,0 UV-I 0 W/m -2,1 C 0,6 C 0,0 km/h 96,15 %
15.02.2019 07:33 0,6 C 82 % 1032,4 hPa 0,0 l/m 0,0 km/h SO 128 0 min 0,000 mm 0,0 UV-I 0 W/m -2,1 C 0,6 C 0,0 km/h 95,83 %
15.02.2019 07:32 0,6 C 82 % 1032,4 hPa 0,0 l/m 0,0 km/h SO 128 0 min 0,000 mm 0,0 UV-I 0 W/m -2,1 C 0,6 C 0,0 km/h 95,83 %
15.02.2019 07:31 0,6 C 82 % 1032,4 hPa 0,0 l/m 0,1 km/h SO 128 0 min 0,000 mm 0,0 UV-I 0 W/m -2,1 C 0,6 C 1,9 km/h 100,00 %
15.02.2019 07:30 0,7 C 82 % 1032,3 hPa 0,0 l/m 0,0 km/h SO 128 0 min 0,000 mm 0,0 UV-I 0 W/m -2,0 C 0,7 C 0,0 km/h 95,83 %
15.02.2019 07:29 0,7 C 82 % 1032,3 hPa 0,0 l/m 0,0 km/h SO 128 0 min 0,000 mm 0,0 UV-I 0 W/m -2,0 C 0,7 C 0,0 km/h 100,00 %
15.02.2019 07:28 0,7 C 82 % 1032,3 hPa 0,0 l/m 0,0 km/h SO 128 0 min 0,000 mm 0,0 UV-I 0 W/m -2,0 C 0,7 C 0,0 km/h 95,83 %
15.02.2019 07:27 0,7 C 82 % 1032,3 hPa 0,0 l/m 0,0 km/h SO 128 0 min 0,000 mm 0,0 UV-I 0 W/m -2,0 C 0,7 C 0,0 km/h 100,00 %
15.02.2019 07:26 0,7 C 82 % 1032,3 hPa 0,0 l/m 0,0 km/h SO 128 0 min 0,000 mm 0,0 UV-I 0 W/m -2,0 C 0,7 C 0,0 km/h 96,30 %
15.02.2019 07:25 0,7 C 82 % 1032,3 hPa 0,0 l/m 0,0 km/h SO 128 0 min 0,000 mm 0,0 UV-I 0 W/m -2,0 C 0,7 C 0,0 km/h 100,00 %
15.02.2019 07:24 0,7 C 82 % 1032,3 hPa 0,0 l/m 0,0 km/h SO 128 0 min 0,000 mm 0,0 UV-I 0 W/m -2,0 C 0,7 C 0,0 km/h 95,83 %
15.02.2019 07:23 0,7 C 82 % 1032,3 hPa 0,0 l/m 0,0 km/h SO 128 0 min 0,000 mm 0,0 UV-I 0 W/m -2,0 C 0,7 C 0,0 km/h 100,00 %
15.02.2019 07:22 0,7 C 82 % 1032,3 hPa 0,0 l/m 0,0 km/h SO 128 0 min 0,000 mm 0,0 UV-I 0 W/m -2,0 C 0,7 C 0,0 km/h 95,83 %
15.02.2019 07:21 0,7 C 82 % 1032,3 hPa 0,0 l/m 0,0 km/h SO 128 0 min 0,000 mm 0,0 UV-I 0 W/m -2,0 C 0,7 C 0,0 km/h 92,31 %
15.02.2019 07:20 0,7 C 82 % 1032,3 hPa 0,0 l/m 0,0 km/h SO 128 0 min 0,000 mm 0,0 UV-I 0 W/m -2,0 C 0,7 C 0,0 km/h 100,00 %
15.02.2019 07:19 0,7 C 82 % 1032,3 hPa 0,0 l/m 0,0 km/h SO 128 0 min 0,000 mm 0,0 UV-I 0 W/m -2,0 C 0,7 C 0,0 km/h 95,65 %
15.02.2019 07:18 0,7 C 81 % 1032,3 hPa 0,0 l/m 0,0 km/h SO 128 0 min 0,000 mm 0,0 UV-I 0 W/m -2,2 C 0,7 C 0,0 km/h 100,00 %
15.02.2019 07:17 0,7 C 81 % 1032,3 hPa 0,0 l/m 0,0 km/h SO 128 0 min 0,000 mm 0,0 UV-I 0 W/m -2,2 C 0,7 C 0,0 km/h 95,65 %
15.02.2019 07:16 0,8 C 81 % 1032,3 hPa 0,0 l/m 0,0 km/h SO 128 0 min 0,000 mm 0,0 UV-I 0 W/m -2,1 C 0,8 C 0,0 km/h 100,00 %
15.02.2019 07:15 0,8 C 81 % 1032,3 hPa 0,0 l/m 0,0 km/h SO 128 0 min 0,000 mm 0,0 UV-I 0 W/m -2,1 C 0,8 C 0,0 km/h 96,30 %
15.02.2019 07:14 0,8 C 81 % 1032,3 hPa 0,0 l/m 0,0 km/h SO 128 0 min 0,000 mm 0,0 UV-I 0 W/m -2,1 C 0,8 C 0,0 km/h 100,00 %
15.02.2019 07:13 0,8 C 81 % 1032,3 hPa 0,0 l/m 0,0 km/h SO 128 0 min 0,000 mm 0,0 UV-I 0 W/m -2,1 C 0,8 C 0,0 km/h 95,83 %
15.02.2019 07:12 0,8 C 81 % 1032,4 hPa 0,0 l/m 0,0 km/h SO 128 0 min 0,000 mm 0,0 UV-I 0 W/m -2,1 C 0,8 C 0,0 km/h 95,65 %
15.02.2019 07:11 0,8 C 81 % 1032,4 hPa 0,0 l/m 0,0 km/h SO 128 0 min 0,000 mm 0,0 UV-I 0 W/m -2,1 C 0,8 C 0,0 km/h 100,00 %
15.02.2019 07:10 0,8 C 81 % 1032,4 hPa 0,0 l/m 0,0 km/h SO 128 0 min 0,000 mm 0,0 UV-I 0 W/m -2,1 C 0,8 C 0,0 km/h 95,65 %
15.02.2019 07:09 0,8 C 81 % 1032,4 hPa 0,0 l/m 0,0 km/h SO 128 0 min 0,000 mm 0,0 UV-I 0 W/m -2,1 C 0,8 C 0,0 km/h 100,00 %
15.02.2019 07:08 0,9 C 81 % 1032,4 hPa 0,0 l/m 0,0 km/h SO 128 0 min 0,000 mm 0,0 UV-I 0 W/m -2,0 C 0,9 C 0,0 km/h 91,30 %
15.02.2019 07:07 0,9 C 81 % 1032,4 hPa 0,0 l/m 0,0 km/h SO 128 0 min 0,000 mm 0,0 UV-I 0 W/m -2,0 C 0,9 C 0,0 km/h 100,00 %
15.02.2019 07:06 0,9 C 81 % 1032,4 hPa 0,0 l/m 0,0 km/h SO 128 0 min 0,000 mm 0,0 UV-I 0 W/m -2,0 C 0,9 C 0,0 km/h 95,65 %
15.02.2019 07:05 0,9 C 81 % 1032,4 hPa 0,0 l/m 0,0 km/h SO 128 0 min 0,000 mm 0,0 UV-I 0 W/m -2,0 C 0,9 C 0,0 km/h 96,30 %
15.02.2019 07:04 0,9 C 80 % 1032,4 hPa 0,0 l/m 0,0 km/h SO 128 0 min 0,000 mm 0,0 UV-I 0 W/m -2,2 C 0,9 C 0,0 km/h 100,00 %
15.02.2019 07:03 1,0 C 80 % 1032,4 hPa 0,0 l/m 0,0 km/h SO 128 0 min 0,000 mm 0,0 UV-I 0 W/m -2,1 C 1,0 C 0,0 km/h 95,83 %
15.02.2019 07:02 1,0 C 80 % 1032,4 hPa 0,0 l/m 0,0 km/h SO 128 0 min 0,000 mm 0,0 UV-I 0 W/m -2,1 C 1,0 C 0,0 km/h 100,00 %
15.02.2019 07:01 1,0 C 80 % 1032,4 hPa 0,0 l/m 0,0 km/h SO 128 0 min 0,000 mm 0,0 UV-I 0 W/m -2,1 C 1,0 C 0,0 km/h 95,83 %
15.02.2019 07:00 1,1 C 80 % 1032,4 hPa 0,0 l/m 0,0 km/h SO 128 0 min 0,000 mm 0,0 UV-I 0 W/m -2,0 C 1,1 C 0,0 km/h 100,00 %
15.02.2019 06:59 1,1 C 81 % 1032,4 hPa 0,0 l/m 0,0 km/h SO 128 0 min 0,000 mm 0,0 UV-I 0 W/m -1,8 C 1,1 C 0,0 km/h 95,83 %
15.02.2019 06:58 1,1 C 80 % 1032,4 hPa 0,0 l/m 0,0 km/h SO 128 0 min 0,000 mm 0,0 UV-I 0 W/m -2,0 C 1,1 C 0,0 km/h 95,65 %
15.02.2019 06:57 1,1 C 80 % 1032,4 hPa 0,0 l/m 0,0 km/h SO 128 0 min 0,000 mm 0,0 UV-I 0 W/m -2,0 C 1,1 C 0,0 km/h 100,00 %
15.02.2019 06:56 1,1 C 80 % 1032,4 hPa 0,0 l/m 0,0 km/h SO 128 0 min 0,000 mm 0,0 UV-I 0 W/m -2,0 C 1,1 C 0,0 km/h 95,65 %
15.02.2019 06:55 1,1 C 80 % 1032,4 hPa 0,0 l/m 0,0 km/h SO 128 0 min 0,000 mm 0,0 UV-I 0 W/m -2,0 C 1,1 C 0,0 km/h 100,00 %
15.02.2019 06:54 1,1 C 80 % 1032,4 hPa 0,0 l/m 0,1 km/h SO 128 0 min 0,000 mm 0,0 UV-I 0 W/m -2,0 C 1,1 C 1,9 km/h 100,00 %
15.02.2019 06:53 1,1 C 80 % 1032,4 hPa 0,0 l/m 0,0 km/h SO 128 0 min 0,000 mm 0,0 UV-I 0 W/m -2,0 C 1,1 C 0,0 km/h 96,15 %
15.02.2019 06:52 1,1 C 80 % 1032,4 hPa 0,0 l/m 0,0 km/h SO 128 0 min 0,000 mm 0,0 UV-I 0 W/m -2,0 C 1,1 C 0,0 km/h 96,30 %
15.02.2019 06:51 1,1 C 80 % 1032,4 hPa 0,0 l/m 0,0 km/h SO 128 0 min 0,000 mm 0,0 UV-I 0 W/m -2,0 C 1,1 C 0,0 km/h 100,00 %
15.02.2019 06:50 1,1 C 80 % 1032,4 hPa 0,0 l/m 0,0 km/h SO 128 0 min 0,000 mm 0,0 UV-I 0 W/m -2,0 C 1,1 C 0,0 km/h 95,83 %
15.02.2019 06:49 1,1 C 80 % 1032,4 hPa 0,0 l/m 0,2 km/h SO 128 0 min 0,000 mm 0,0 UV-I 0 W/m -2,0 C 1,1 C 1,9 km/h 100,00 %
15.02.2019 06:48 1,1 C 80 % 1032,4 hPa 0,0 l/m 0,0 km/h SO 128 0 min 0,000 mm 0,0 UV-I 0 W/m -2,0 C 1,1 C 0,0 km/h 95,83 %
15.02.2019 06:47 1,1 C 80 % 1032,4 hPa 0,0 l/m 0,0 km/h SO 128 0 min 0,000 mm 0,0 UV-I 0 W/m -2,0 C 1,1 C 0,0 km/h 91,30 %
15.02.2019 06:46 1,1 C 80 % 1032,4 hPa 0,0 l/m 0,0 km/h SO 128 0 min 0,000 mm 0,0 UV-I 0 W/m -2,0 C 1,1 C 0,0 km/h 100,00 %
15.02.2019 06:45 1,0 C 79 % 1032,4 hPa 0,0 l/m 0,0 km/h SO 128 0 min 0,000 mm 0,0 UV-I 0 W/m -2,2 C 1,0 C 0,0 km/h 95,65 %
15.02.2019 06:44 1,0 C 79 % 1032,4 hPa 0,0 l/m 0,0 km/h SO 128 0 min 0,000 mm 0,0 UV-I 0 W/m -2,2 C 1,0 C 0,0 km/h 100,00 %
15.02.2019 06:43 0,9 C 79 % 1032,4 hPa 0,0 l/m 0,0 km/h SO 128 0 min 0,000 mm 0,0 UV-I 0 W/m -2,3 C 0,9 C 0,0 km/h 95,65 %
15.02.2019 06:42 1,0 C 79 % 1032,4 hPa 0,0 l/m 0,0 km/h SO 128 0 min 0,000 mm 0,0 UV-I 0 W/m -2,2 C 1,0 C 0,0 km/h 100,00 %
15.02.2019 06:41 1,0 C 79 % 1032,4 hPa 0,0 l/m 0,0 km/h SO 128 0 min 0,000 mm 0,0 UV-I 0 W/m -2,2 C 1,0 C 0,0 km/h 95,65 %
15.02.2019 06:40 1,0 C 79 % 1032,5 hPa 0,0 l/m 0,0 km/h SO 128 0 min 0,000 mm 0,0 UV-I 0 W/m -2,2 C 1,0 C 0,0 km/h 100,00 %
15.02.2019 06:39 1,0 C 79 % 1032,5 hPa 0,0 l/m 0,0 km/h SO 128 0 min 0,000 mm 0,0 UV-I 0 W/m -2,2 C 1,0 C 0,0 km/h 97,37 %
15.02.2019 06:38 1,1 C 79 % 1032,4 hPa 0,0 l/m 0,0 km/h SO 128 0 min 0,000 mm 0,0 UV-I 0 W/m -2,1 C 1,1 C 0,0 km/h 91,67 %
15.02.2019 06:37 1,1 C 79 % 1032,5 hPa 0,0 l/m 0,0 km/h SO 128 0 min 0,000 mm 0,0 UV-I 0 W/m -2,1 C 1,1 C 0,0 km/h 95,83 %
15.02.2019 06:36 1,1 C 78 % 1032,5 hPa 0,0 l/m 0,0 km/h SO 128 0 min 0,000 mm 0,0 UV-I 0 W/m -2,3 C 1,1 C 0,0 km/h 95,65 %
15.02.2019 06:35 1,1 C 78 % 1032,5 hPa 0,0 l/m 0,0 km/h SO 128 0 min 0,000 mm 0,0 UV-I 0 W/m -2,3 C 1,1 C 0,0 km/h 100,00 %
15.02.2019 06:34 1,1 C 78 % 1032,5 hPa 0,0 l/m 0,0 km/h SO 128 0 min 0,000 mm 0,0 UV-I 0 W/m -2,3 C 1,1 C 0,0 km/h 91,30 %
15.02.2019 06:33 1,1 C 78 % 1032,4 hPa 0,0 l/m 0,0 km/h SO 128 0 min 0,000 mm 0,0 UV-I 0 W/m -2,3 C 1,1 C 0,0 km/h 100,00 %
15.02.2019 06:32 1,1 C 78 % 1032,4 hPa 0,0 l/m 0,0 km/h SO 128 0 min 0,000 mm 0,0 UV-I 0 W/m -2,3 C 1,1 C 0,0 km/h 100,00 %
15.02.2019 06:31 1,1 C 78 % 1032,4 hPa 0,0 l/m 0,0 km/h SO 128 0 min 0,000 mm 0,0 UV-I 0 W/m -2,3 C 1,1 C 0,0 km/h 96,30 %
15.02.2019 06:30 1,2 C 77 % 1032,5 hPa 0,0 l/m 0,0 km/h SO 128 0 min 0,000 mm 0,0 UV-I 0 W/m -2,4 C 1,2 C 0,0 km/h 100,00 %
15.02.2019 06:29 1,2 C 77 % 1032,5 hPa 0,0 l/m 0,0 km/h SO 128 0 min 0,000 mm 0,0 UV-I 0 W/m -2,4 C 1,2 C 0,0 km/h 100,00 %
15.02.2019 06:28 1,2 C 77 % 1032,4 hPa 0,0 l/m 0,0 km/h SO 128 0 min 0,000 mm 0,0 UV-I 0 W/m -2,4 C 1,2 C 0,0 km/h 100,00 %
15.02.2019 06:27 1,2 C 77 % 1032,5 hPa 0,0 l/m 0,0 km/h SO 128 0 min 0,000 mm 0,0 UV-I 0 W/m -2,4 C 1,2 C 0,0 km/h 95,83 %
15.02.2019 06:26 1,2 C 77 % 1032,5 hPa 0,0 l/m 0,0 km/h SO 128 0 min 0,000 mm 0,0 UV-I 0 W/m -2,4 C 1,2 C 0,0 km/h 95,65 %
15.02.2019 06:25 1,3 C 77 % 1032,5 hPa 0,0 l/m 0,0 km/h SO 128 0 min 0,000 mm 0,0 UV-I 0 W/m -2,3 C 1,3 C 0,0 km/h 100,00 %
15.02.2019 06:24 1,3 C 77 % 1032,5 hPa 0,0 l/m 0,0 km/h SO 128 0 min 0,000 mm 0,0 UV-I 0 W/m -2,3 C 1,3 C 0,0 km/h 100,00 %
15.02.2019 06:23 1,3 C 77 % 1032,5 hPa 0,0 l/m 0,0 km/h SO 128 0 min 0,000 mm 0,0 UV-I 0 W/m -2,3 C 1,3 C 0,0 km/h 100,00 %
15.02.2019 06:22 1,3 C 77 % 1032,5 hPa 0,0 l/m 0,0 km/h SO 128 0 min 0,000 mm 0,0 UV-I 0 W/m -2,3 C 1,3 C 0,0 km/h 100,00 %
15.02.2019 06:21 1,4 C 77 % 1032,4 hPa 0,0 l/m 0,0 km/h SO 128 0 min 0,000 mm 0,0 UV-I 0 W/m -2,2 C 1,4 C 0,0 km/h 95,83 %
15.02.2019 06:20 1,4 C 77 % 1032,4 hPa 0,0 l/m 0,0 km/h SO 128 0 min 0,000 mm 0,0 UV-I 0 W/m -2,2 C 1,4 C 0,0 km/h 95,65 %
15.02.2019 06:19 1,4 C 77 % 1032,4 hPa 0,0 l/m 0,0 km/h SO 128 0 min 0,000 mm 0,0 UV-I 0 W/m -2,2 C 1,4 C 0,0 km/h 100,00 %
15.02.2019 06:18 1,4 C 76 % 1032,4 hPa 0,0 l/m 0,0 km/h SO 128 0 min 0,000 mm 0,0 UV-I 0 W/m -2,4 C 1,4 C 0,0 km/h 96,15 %
15.02.2019 06:17 1,5 C 76 % 1032,4 hPa 0,0 l/m 0,0 km/h SO 128 0 min 0,000 mm 0,0 UV-I 0 W/m -2,3 C 1,5 C 0,0 km/h 100,00 %
15.02.2019 06:16 1,6 C 76 % 1032,4 hPa 0,0 l/m 0,0 km/h SO 128 0 min 0,000 mm 0,0 UV-I 0 W/m -2,2 C 1,6 C 0,0 km/h 100,00 %
15.02.2019 06:15 1,6 C 76 % 1032,4 hPa 0,0 l/m 0,0 km/h SO 128 0 min 0,000 mm 0,0 UV-I 0 W/m -2,2 C 1,6 C 0,0 km/h 100,00 %
15.02.2019 06:14 1,6 C 76 % 1032,4 hPa 0,0 l/m 0,0 km/h SO 128 0 min 0,000 mm 0,0 UV-I 0 W/m -2,2 C 1,6 C 0,0 km/h 100,00 %
15.02.2019 06:13 1,7 C 76 % 1032,4 hPa 0,0 l/m 0,0 km/h SO 128 0 min 0,000 mm 0,0 UV-I 0 W/m -2,1 C 1,7 C 0,0 km/h 100,00 %
15.02.2019 06:12 1,7 C 76 % 1032,4 hPa 0,0 l/m 0,0 km/h SO 128 0 min 0,000 mm 0,0 UV-I 0 W/m -2,1 C 1,7 C 0,0 km/h 100,00 %
15.02.2019 06:11 1,7 C 76 % 1032,4 hPa 0,0 l/m 0,0 km/h SO 128 0 min 0,000 mm 0,0 UV-I 0 W/m -2,1 C 1,7 C 0,0 km/h 100,00 %
15.02.2019 06:10 1,7 C 75 % 1032,4 hPa 0,0 l/m 0,0 km/h SO 128 0 min 0,000 mm 0,0 UV-I 0 W/m -2,2 C 1,7 C 0,0 km/h 100,00 %
15.02.2019 06:09 1,8 C 75 % 1032,4 hPa 0,0 l/m 0,0 km/h SO 128 0 min 0,000 mm 0,0 UV-I 0 W/m -2,1 C 1,8 C 0,0 km/h 95,65 %
15.02.2019 06:08 1,8 C 75 % 1032,5 hPa 0,0 l/m 0,0 km/h SO 128 0 min 0,000 mm 0,0 UV-I 0 W/m -2,1 C 1,8 C 0,0 km/h 100,00 %
15.02.2019 06:07 1,8 C 75 % 1032,5 hPa 0,0 l/m 0,0 km/h SO 128 0 min 0,000 mm 0,0 UV-I 0 W/m -2,1 C 1,8 C 0,0 km/h 100,00 %
15.02.2019 06:06 1,8 C 75 % 1032,5 hPa 0,0 l/m 0,0 km/h SO 128 0 min 0,000 mm 0,0 UV-I 0 W/m -2,1 C 1,8 C 0,0 km/h 100,00 %
15.02.2019 06:05 1,9 C 75 % 1032,5 hPa 0,0 l/m 0,0 km/h SO 128 0 min 0,000 mm 0,0 UV-I 0 W/m -2,1 C 1,9 C 0,0 km/h 100,00 %
15.02.2019 06:04 1,9 C 75 % 1032,4 hPa 0,0 l/m 0,0 km/h SO 128 0 min 0,000 mm 0,0 UV-I 0 W/m -2,1 C 1,9 C 0,0 km/h 100,00 %
15.02.2019 06:03 1,9 C 75 % 1032,4 hPa 0,0 l/m 0,0 km/h SO 128 0 min 0,000 mm 0,0 UV-I 0 W/m -2,1 C 1,9 C 0,0 km/h 100,00 %
15.02.2019 06:02 1,9 C 74 % 1032,4 hPa 0,0 l/m 0,0 km/h SO 128 0 min 0,000 mm 0,0 UV-I 0 W/m -2,2 C 1,9 C 0,0 km/h 100,00 %
15.02.2019 06:01 2,0 C 74 % 1032,4 hPa 0,0 l/m 0,0 km/h SO 128 0 min 0,025 mm 0,0 UV-I 0 W/m -2,1 C 2,0 C 0,0 km/h 95,65 %
15.02.2019 06:00 2,1 C 74 % 1032,4 hPa 0,0 l/m 0,0 km/h SO 128 0 min 0,000 mm 0,0 UV-I 0 W/m -2,0 C 2,1 C 0,0 km/h 95,83 %
15.02.2019 05:59 2,1 C 74 % 1032,4 hPa 0,0 l/m 0,0 km/h SO 128 0 min 0,000 mm 0,0 UV-I 0 W/m -2,0 C 2,1 C 0,0 km/h 100,00 %
15.02.2019 05:58 2,1 C 74 % 1032,4 hPa 0,0 l/m 0,0 km/h SO 128 0 min 0,000 mm 0,0 UV-I 0 W/m -2,0 C 2,1 C 0,0 km/h 100,00 %
15.02.2019 05:57 2,2 C 74 % 1032,4 hPa 0,0 l/m 0,0 km/h SO 128 0 min 0,000 mm 0,0 UV-I 0 W/m -1,9 C 2,2 C 0,0 km/h 100,00 %
15.02.2019 05:56 2,2 C 74 % 1032,4 hPa 0,0 l/m 0,0 km/h SO 128 0 min 0,000 mm 0,0 UV-I 0 W/m -1,9 C 2,2 C 0,0 km/h 100,00 %
15.02.2019 05:55 2,2 C 74 % 1032,4 hPa 0,0 l/m 0,0 km/h SO 128 0 min 0,000 mm 0,0 UV-I 0 W/m -1,9 C 2,2 C 0,0 km/h 100,00 %
15.02.2019 05:54 2,3 C 73 % 1032,4 hPa 0,0 l/m 0,0 km/h SO 128 0 min 0,000 mm 0,0 UV-I 0 W/m -2,0 C 2,3 C 0,0 km/h 95,65 %
15.02.2019 05:53 2,3 C 73 % 1032,4 hPa 0,0 l/m 0,0 km/h SO 128 0 min 0,000 mm 0,0 UV-I 0 W/m -2,0 C 2,3 C 0,0 km/h 100,00 %
15.02.2019 05:52 2,3 C 73 % 1032,4 hPa 0,0 l/m 0,0 km/h SO 128 0 min 0,000 mm 0,0 UV-I 0 W/m -2,0 C 2,3 C 0,0 km/h 100,00 %
15.02.2019 05:51 2,4 C 73 % 1032,4 hPa 0,0 l/m 0,0 km/h SO 128 0 min 0,000 mm 0,0 UV-I 0 W/m -1,9 C 2,4 C 0,0 km/h 91,67 %
15.02.2019 05:50 2,4 C 73 % 1032,4 hPa 0,0 l/m 0,0 km/h SO 128 0 min 0,000 mm 0,0 UV-I 0 W/m -1,9 C 2,4 C 0,0 km/h 100,00 %
15.02.2019 05:49 2,5 C 73 % 1032,4 hPa 0,0 l/m 0,0 km/h SO 128 0 min 0,000 mm 0,0 UV-I 0 W/m -1,8 C 2,5 C 0,0 km/h 100,00 %
15.02.2019 05:48 2,5 C 73 % 1032,4 hPa 0,0 l/m 0,0 km/h SO 128 0 min 0,000 mm 0,0 UV-I 0 W/m -1,8 C 2,5 C 0,0 km/h 100,00 %
15.02.2019 05:47 2,5 C 73 % 1032,4 hPa 0,0 l/m 0,0 km/h SO 128 0 min 0,000 mm 0,0 UV-I 0 W/m -1,8 C 2,5 C 0,0 km/h 100,00 %
15.02.2019 05:46 2,6 C 73 % 1032,4 hPa 0,0 l/m 0,0 km/h SO 128 0 min 0,000 mm 0,0 UV-I 0 W/m -1,7 C 2,6 C 0,0 km/h 100,00 %
15.02.2019 05:45 2,6 C 73 % 1032,4 hPa 0,0 l/m 0,3 km/h SO 128 0 min 0,000 mm 0,0 UV-I 0 W/m -1,7 C 2,6 C 1,9 km/h 100,00 %
15.02.2019 05:44 2,6 C 73 % 1032,4 hPa 0,0 l/m 0,0 km/h SO 128 0 min 0,000 mm 0,0 UV-I 0 W/m -1,7 C 2,6 C 0,0 km/h 100,00 %
15.02.2019 05:43 2,6 C 73 % 1032,4 hPa 0,0 l/m 0,2 km/h SO 128 0 min 0,000 mm 0,0 UV-I 0 W/m -1,7 C 2,6 C 1,9 km/h 100,00 %
15.02.2019 05:42 2,6 C 73 % 1032,3 hPa 0,0 l/m 0,1 km/h SO 128 0 min 0,000 mm 0,0 UV-I 0 W/m -1,7 C 2,6 C 1,9 km/h 95,65 %
15.02.2019 05:41 2,7 C 73 % 1032,3 hPa 0,0 l/m 0,2 km/h SO 128 0 min 0,000 mm 0,0 UV-I 0 W/m -1,6 C 2,7 C 1,9 km/h 100,00 %
15.02.2019 05:40 2,7 C 73 % 1032,4 hPa 0,0 l/m 0,0 km/h SO 128 0 min 0,000 mm 0,0 UV-I 0 W/m -1,6 C 2,7 C 0,0 km/h 100,00 %
15.02.2019 05:39 2,7 C 73 % 1032,3 hPa 0,0 l/m 0,0 km/h SO 128 0 min 0,000 mm 0,0 UV-I 0 W/m -1,6 C 2,7 C 0,0 km/h 100,00 %
15.02.2019 05:38 2,7 C 73 % 1032,4 hPa 0,0 l/m 0,0 km/h SO 128 0 min 0,000 mm 0,0 UV-I 0 W/m -1,6 C 2,7 C 0,0 km/h 100,00 %
15.02.2019 05:37 2,7 C 72 % 1032,3 hPa 0,0 l/m 0,0 km/h SO 128 0 min 0,000 mm 0,0 UV-I 0 W/m -1,8 C 2,7 C 0,0 km/h 100,00 %
15.02.2019 05:36 2,8 C 73 % 1032,4 hPa 0,0 l/m 0,0 km/h SO 128 0 min 0,000 mm 0,0 UV-I 0 W/m -1,5 C 2,8 C 0,0 km/h 100,00 %
15.02.2019 05:35 2,8 C 73 % 1032,3 hPa 0,0 l/m 0,0 km/h SO 128 0 min 0,000 mm 0,0 UV-I 0 W/m -1,5 C 2,8 C 0,0 km/h 100,00 %
15.02.2019 05:34 2,8 C 73 % 1032,3 hPa 0,0 l/m 0,0 km/h SO 128 0 min 0,000 mm 0,0 UV-I 0 W/m -1,5 C 2,8 C 0,0 km/h 100,00 %
15.02.2019 05:33 2,8 C 73 % 1032,3 hPa 0,0 l/m 0,0 km/h SO 128 0 min 0,000 mm 0,0 UV-I 0 W/m -1,5 C 2,8 C 0,0 km/h 95,83 %
15.02.2019 05:32 2,8 C 73 % 1032,4 hPa 0,0 l/m 0,0 km/h SO 128 0 min 0,000 mm 0,0 UV-I 0 W/m -1,5 C 2,8 C 0,0 km/h 100,00 %
15.02.2019 05:31 2,8 C 73 % 1032,4 hPa 0,0 l/m 0,0 km/h SO 128 0 min 0,000 mm 0,0 UV-I 0 W/m -1,5 C 2,8 C 0,0 km/h 100,00 %
15.02.2019 05:30 2,8 C 73 % 1032,3 hPa 0,0 l/m 0,1 km/h SO 128 0 min 0,000 mm 0,0 UV-I 0 W/m -1,5 C 2,8 C 1,9 km/h 100,00 %
15.02.2019 05:29 2,8 C 73 % 1032,3 hPa 0,0 l/m 0,7 km/h SO 128 0 min 0,000 mm 0,0 UV-I 0 W/m -1,5 C 2,8 C 1,9 km/h 100,00 %
15.02.2019 05:28 2,8 C 74 % 1032,3 hPa 0,0 l/m 0,0 km/h SO 128 0 min 0,000 mm 0,0 UV-I 0 W/m -1,4 C 2,8 C 0,0 km/h 100,00 %
15.02.2019 05:27 2,8 C 74 % 1032,4 hPa 0,0 l/m 0,2 km/h SO 128 0 min 0,000 mm 0,0 UV-I 0 W/m -1,4 C 2,8 C 1,9 km/h 100,00 %
15.02.2019 05:26 2,7 C 74 % 1032,3 hPa 0,0 l/m 0,3 km/h SO 128 0 min 0,000 mm 0,0 UV-I 0 W/m -1,5 C 2,7 C 1,9 km/h 100,00 %
15.02.2019 05:25 2,7 C 74 % 1032,3 hPa 0,0 l/m 0,1 km/h SO 128 0 min 0,000 mm 0,0 UV-I 0 W/m -1,5 C 2,7 C 1,9 km/h 100,00 %
15.02.2019 05:24 2,7 C 74 % 1032,4 hPa 0,0 l/m 0,8 km/h SO 128 0 min 0,000 mm 0,0 UV-I 0 W/m -1,5 C 2,7 C 1,9 km/h 93,33 %
15.02.2019 05:23 2,6 C 74 % 1032,4 hPa 0,0 l/m 0,2 km/h SO 128 0 min 0,000 mm 0,0 UV-I 0 W/m -1,6 C 2,6 C 1,9 km/h 95,65 %
15.02.2019 05:22 2,6 C 74 % 1032,4 hPa 0,0 l/m 0,1 km/h SO 128 0 min 0,000 mm 0,0 UV-I 0 W/m -1,6 C 2,6 C 1,9 km/h 100,00 %
15.02.2019 05:21 2,6 C 75 % 1032,4 hPa 0,0 l/m 0,2 km/h SO 128 0 min 0,000 mm 0,0 UV-I 0 W/m -1,4 C 2,6 C 1,9 km/h 95,65 %
15.02.2019 05:20 2,5 C 75 % 1032,4 hPa 0,0 l/m 0,9 km/h SO 128 0 min 0,000 mm 0,0 UV-I 0 W/m -1,5 C 2,5 C 1,9 km/h 100,00 %
15.02.2019 05:19 2,4 C 75 % 1032,4 hPa 0,0 l/m 0,7 km/h SO 128 0 min 0,000 mm 0,0 UV-I 0 W/m -1,6 C 2,4 C 1,9 km/h 100,00 %
15.02.2019 05:18 2,3 C 75 % 1032,5 hPa 0,0 l/m 0,1 km/h SO 128 0 min 0,000 mm 0,0 UV-I 0 W/m -1,7 C 2,3 C 1,9 km/h 100,00 %
15.02.2019 05:17 2,3 C 75 % 1032,4 hPa 0,0 l/m 0,0 km/h SO 128 0 min 0,000 mm 0,0 UV-I 0 W/m -1,7 C 2,3 C 0,0 km/h 100,00 %
15.02.2019 05:16 2,2 C 75 % 1032,5 hPa 0,0 l/m 0,0 km/h SO 128 0 min 0,000 mm 0,0 UV-I 0 W/m -1,8 C 2,2 C 0,0 km/h 96,15 %
15.02.2019 05:15 2,2 C 75 % 1032,5 hPa 0,0 l/m 0,1 km/h SO 128 0 min 0,000 mm 0,0 UV-I 0 W/m -1,8 C 2,2 C 1,9 km/h 100,00 %
15.02.2019 05:14 2,1 C 75 % 1032,4 hPa 0,0 l/m 0,0 km/h SO 128 0 min 0,000 mm 0,0 UV-I 0 W/m -1,9 C 2,1 C 0,0 km/h 100,00 %
15.02.2019 05:13 2,1 C 75 % 1032,5 hPa 0,0 l/m 0,0 km/h SO 128 0 min 0,000 mm 0,0 UV-I 0 W/m -1,9 C 2,1 C 0,0 km/h 100,00 %
15.02.2019 05:12 2,0 C 75 % 1032,4 hPa 0,0 l/m 0,2 km/h SO 128 0 min 0,000 mm 0,0 UV-I 0 W/m -2,0 C 2,0 C 1,9 km/h 100,00 %
15.02.2019 05:11 2,0 C 74 % 1032,4 hPa 0,0 l/m 0,0 km/h SO 128 0 min 0,000 mm 0,0 UV-I 0 W/m -2,1 C 2,0 C 0,0 km/h 93,33 %
15.02.2019 05:10 1,9 C 74 % 1032,4 hPa 0,0 l/m 0,7 km/h SO 128 0 min 0,000 mm 0,0 UV-I 0 W/m -2,2 C 1,9 C 1,9 km/h 100,00 %
15.02.2019 05:09 1,9 C 74 % 1032,5 hPa 0,0 l/m 0,6 km/h SO 128 0 min 0,000 mm 0,0 UV-I 0 W/m -2,2 C 1,9 C 1,9 km/h 100,00 %
15.02.2019 05:08 1,9 C 74 % 1032,4 hPa 0,0 l/m 0,3 km/h SO 128 0 min 0,000 mm 0,0 UV-I 0 W/m -2,2 C 1,9 C 1,9 km/h 95,65 %
15.02.2019 05:07 1,9 C 74 % 1032,4 hPa 0,0 l/m 0,1 km/h SO 128 0 min 0,000 mm 0,0 UV-I 0 W/m -2,2 C 1,9 C 1,9 km/h 100,00 %
15.02.2019 05:06 1,9 C 74 % 1032,4 hPa 0,0 l/m 0,0 km/h SO 128 0 min 0,000 mm 0,0 UV-I 0 W/m -2,2 C 1,9 C 0,0 km/h 100,00 %
15.02.2019 05:05 1,9 C 74 % 1032,4 hPa 0,0 l/m 0,0 km/h SO 128 0 min 0,000 mm 0,0 UV-I 0 W/m -2,2 C 1,9 C 0,0 km/h 100,00 %
15.02.2019 05:04 1,9 C 74 % 1032,5 hPa 0,0 l/m 0,2 km/h SO 128 0 min 0,000 mm 0,0 UV-I 0 W/m -2,2 C 1,9 C 1,9 km/h 92,31 %
15.02.2019 05:03 1,9 C 74 % 1032,5 hPa 0,0 l/m 1,0 km/h SO 128 0 min 0,000 mm 0,0 UV-I 0 W/m -2,2 C 1,9 C 1,9 km/h 91,67 %
15.02.2019 05:02 1,9 C 74 % 1032,5 hPa 0,0 l/m 0,3 km/h SO 128 0 min 0,000 mm 0,0 UV-I 0 W/m -2,2 C 1,9 C 1,9 km/h 95,65 %
15.02.2019 05:01 1,9 C 73 % 1032,5 hPa 0,0 l/m 0,1 km/h SO 128 0 min 0,000 mm 0,0 UV-I 0 W/m -2,4 C 1,9 C 1,9 km/h 100,00 %
15.02.2019 05:00 1,9 C 73 % 1032,5 hPa 0,0 l/m 0,0 km/h SO 128 0 min 0,025 mm 0,0 UV-I 0 W/m -2,4 C 1,9 C 0,0 km/h 100,00 %
15.02.2019 04:59 1,9 C 73 % 1032,5 hPa 0,0 l/m 0,0 km/h SO 128 0 min 0,000 mm 0,0 UV-I 0 W/m -2,4 C 1,9 C 0,0 km/h 100,00 %
15.02.2019 04:58 1,9 C 73 % 1032,5 hPa 0,0 l/m 0,0 km/h SO 128 0 min 0,000 mm 0,0 UV-I 0 W/m -2,4 C 1,9 C 0,0 km/h 100,00 %
15.02.2019 04:57 1,9 C 73 % 1032,5 hPa 0,0 l/m 0,0 km/h SO 128 0 min 0,000 mm 0,0 UV-I 0 W/m -2,4 C 1,9 C 0,0 km/h 100,00 %
15.02.2019 04:56 1,9 C 73 % 1032,5 hPa 0,0 l/m 0,1 km/h SO 128 0 min 0,000 mm 0,0 UV-I 0 W/m -2,4 C 1,9 C 1,9 km/h 95,83 %
15.02.2019 04:55 2,0 C 73 % 1032,5 hPa 0,0 l/m 0,0 km/h SO 128 0 min 0,000 mm 0,0 UV-I 0 W/m -2,3 C 2,0 C 0,0 km/h 100,00 %
15.02.2019 04:54 2,0 C 73 % 1032,4 hPa 0,0 l/m 0,1 km/h SO 128 0 min 0,000 mm 0,0 UV-I 0 W/m -2,3 C 2,0 C 1,9 km/h 100,00 %
15.02.2019 04:53 2,0 C 73 % 1032,5 hPa 0,0 l/m 0,1 km/h SO 128 0 min 0,000 mm 0,0 UV-I 0 W/m -2,3 C 2,0 C 1,9 km/h 100,00 %
15.02.2019 04:52 2,0 C 73 % 1032,4 hPa 0,0 l/m 0,0 km/h SO 128 0 min 0,000 mm 0,0 UV-I 0 W/m -2,3 C 2,0 C 0,0 km/h 100,00 %
15.02.2019 04:51 2,0 C 72 % 1032,5 hPa 0,0 l/m 0,0 km/h SO 128 0 min 0,000 mm 0,0 UV-I 0 W/m -2,5 C 2,0 C 0,0 km/h 100,00 %
15.02.2019 04:50 2,1 C 72 % 1032,5 hPa 0,0 l/m 0,0 km/h SO 128 0 min 0,000 mm 0,0 UV-I 0 W/m -2,4 C 2,1 C 0,0 km/h 100,00 %
15.02.2019 04:49 2,1 C 72 % 1032,5 hPa 0,0 l/m 0,0 km/h SO 128 0 min 0,000 mm 0,0 UV-I 0 W/m -2,4 C 2,1 C 0,0 km/h 100,00 %
15.02.2019 04:48 2,1 C 72 % 1032,5 hPa 0,0 l/m 0,0 km/h SO 128 0 min 0,000 mm 0,0 UV-I 0 W/m -2,4 C 2,1 C 0,0 km/h 100,00 %
15.02.2019 04:47 2,1 C 72 % 1032,5 hPa 0,0 l/m 0,0 km/h SO 128 0 min 0,000 mm 0,0 UV-I 0 W/m -2,4 C 2,1 C 0,0 km/h 100,00 %
15.02.2019 04:46 2,2 C 72 % 1032,5 hPa 0,0 l/m 0,0 km/h SO 128 0 min 0,000 mm 0,0 UV-I 0 W/m -2,3 C 2,2 C 0,0 km/h 100,00 %
15.02.2019 04:45 2,2 C 71 % 1032,5 hPa 0,0 l/m 0,0 km/h SO 128 0 min 0,000 mm 0,0 UV-I 0 W/m -2,5 C 2,2 C 0,0 km/h 100,00 %
15.02.2019 04:44 2,2 C 71 % 1032,5 hPa 0,0 l/m 0,0 km/h SO 128 0 min 0,000 mm 0,0 UV-I 0 W/m -2,5 C 2,2 C 0,0 km/h 100,00 %
15.02.2019 04:43 2,2 C 71 % 1032,5 hPa 0,0 l/m 0,0 km/h SO 128 0 min 0,000 mm 0,0 UV-I 0 W/m -2,5 C 2,2 C 0,0 km/h 95,65 %
15.02.2019 04:42 2,3 C 71 % 1032,5 hPa 0,0 l/m 0,0 km/h SO 128 0 min 0,000 mm 0,0 UV-I 0 W/m -2,4 C 2,3 C 0,0 km/h 100,00 %
15.02.2019 04:41 2,3 C 71 % 1032,5 hPa 0,0 l/m 0,0 km/h SO 128 0 min 0,000 mm 0,0 UV-I 0 W/m -2,4 C 2,3 C 0,0 km/h 100,00 %
15.02.2019 04:40 2,3 C 71 % 1032,6 hPa 0,0 l/m 0,0 km/h SO 128 0 min 0,000 mm 0,0 UV-I 0 W/m -2,4 C 2,3 C 0,0 km/h 100,00 %
15.02.2019 04:39 2,4 C 71 % 1032,6 hPa 0,0 l/m 0,0 km/h SO 128 0 min 0,000 mm 0,0 UV-I 0 W/m -2,3 C 2,4 C 0,0 km/h 100,00 %
15.02.2019 04:38 2,4 C 70 % 1032,6 hPa 0,0 l/m 0,0 km/h SO 128 0 min 0,000 mm 0,0 UV-I 0 W/m -2,5 C 2,4 C 0,0 km/h 100,00 %
15.02.2019 04:37 2,4 C 71 % 1032,5 hPa 0,0 l/m 0,0 km/h SO 128 0 min 0,000 mm 0,0 UV-I 0 W/m -2,3 C 2,4 C 0,0 km/h 100,00 %
15.02.2019 04:36 2,5 C 71 % 1032,6 hPa 0,0 l/m 0,0 km/h SO 128 0 min 0,000 mm 0,0 UV-I 0 W/m -2,2 C 2,5 C 0,0 km/h 100,00 %
15.02.2019 04:35 2,6 C 70 % 1032,6 hPa 0,0 l/m 0,2 km/h SO 128 0 min 0,000 mm 0,0 UV-I 0 W/m -2,3 C 2,6 C 1,9 km/h 100,00 %
15.02.2019 04:34 2,6 C 70 % 1032,5 hPa 0,0 l/m 0,0 km/h SO 128 0 min 0,000 mm 0,0 UV-I 0 W/m -2,3 C 2,6 C 0,0 km/h 100,00 %
15.02.2019 04:33 2,6 C 70 % 1032,6 hPa 0,0 l/m 0,1 km/h SO 128 0 min 0,000 mm 0,0 UV-I 0 W/m -2,3 C 2,6 C 1,9 km/h 100,00 %
15.02.2019 04:32 2,7 C 70 % 1032,5 hPa 0,0 l/m 0,0 km/h SO 128 0 min 0,000 mm 0,0 UV-I 0 W/m -2,2 C 2,7 C 0,0 km/h 100,00 %
15.02.2019 04:31 2,7 C 70 % 1032,6 hPa 0,0 l/m 0,1 km/h SO 128 0 min 0,000 mm 0,0 UV-I 0 W/m -2,2 C 2,7 C 1,9 km/h 99,71 %
15.02.2019 04:30 2,7 C 70 % 1032,6 hPa 0,0 l/m 0,4 km/h SO 128 0 min 0,000 mm 0,0 UV-I 0 W/m -2,2 C 2,7 C 1,9 km/h 100,00 %
15.02.2019 04:29 2,8 C 69 % 1032,6 hPa 0,0 l/m 1,3 km/h SO 128 0 min 0,000 mm 0,0 UV-I 0 W/m -2,3 C 2,8 C 3,8 km/h 100,00 %
15.02.2019 04:28 2,8 C 69 % 1032,5 hPa 0,0 l/m 0,0 km/h SO 128 0 min 0,000 mm 0,0 UV-I 0 W/m -2,3 C 2,8 C 0,0 km/h 95,65 %
15.02.2019 04:27 2,8 C 69 % 1032,6 hPa 0,0 l/m 0,0 km/h SO 128 0 min 0,000 mm 0,0 UV-I 0 W/m -2,3 C 2,8 C 0,0 km/h 100,00 %
15.02.2019 04:26 2,8 C 69 % 1032,6 hPa 0,0 l/m 0,0 km/h SO 128 0 min 0,000 mm 0,0 UV-I 0 W/m -2,3 C 2,8 C 0,0 km/h 100,00 %
15.02.2019 04:25 2,9 C 68 % 1032,7 hPa 0,0 l/m 0,0 km/h SO 128 0 min 0,000 mm 0,0 UV-I 0 W/m -2,4 C 2,9 C 0,0 km/h 100,00 %
15.02.2019 04:24 2,9 C 68 % 1032,6 hPa 0,0 l/m 0,0 km/h SO 128 0 min 0,000 mm 0,0 UV-I 0 W/m -2,4 C 2,9 C 0,0 km/h 96,15 %
15.02.2019 04:23 3,0 C 68 % 1032,6 hPa 0,0 l/m 0,0 km/h SO 128 0 min 0,000 mm 0,0 UV-I 0 W/m -2,3 C 3,0 C 0,0 km/h 100,00 %
15.02.2019 04:22 3,1 C 68 % 1032,7 hPa 0,0 l/m 0,0 km/h SO 128 0 min 0,000 mm 0,0 UV-I 0 W/m -2,2 C 3,1 C 0,0 km/h 100,00 %
15.02.2019 04:21 3,1 C 68 % 1032,7 hPa 0,0 l/m 0,0 km/h SO 128 0 min 0,000 mm 0,0 UV-I 0 W/m -2,2 C 3,1 C 0,0 km/h 100,00 %
15.02.2019 04:20 3,2 C 67 % 1032,6 hPa 0,0 l/m 0,0 km/h SO 128 0 min 0,000 mm 0,0 UV-I 0 W/m -2,3 C 3,2 C 0,0 km/h 100,00 %
15.02.2019 04:19 3,2 C 67 % 1032,7 hPa 0,0 l/m 0,0 km/h SO 128 0 min 0,000 mm 0,0 UV-I 0 W/m -2,3 C 3,2 C 0,0 km/h 100,00 %
15.02.2019 04:18 3,3 C 67 % 1032,6 hPa 0,0 l/m 0,0 km/h SO 128 0 min 0,000 mm 0,0 UV-I 0 W/m -2,2 C 3,3 C 0,0 km/h 100,00 %
15.02.2019 04:17 3,3 C 67 % 1032,7 hPa 0,0 l/m 0,0 km/h SO 128 0 min 0,000 mm 0,0 UV-I 0 W/m -2,2 C 3,3 C 0,0 km/h 100,00 %
15.02.2019 04:16 3,3 C 67 % 1032,7 hPa 0,0 l/m 0,0 km/h SO 128 0 min 0,000 mm 0,0 UV-I 0 W/m -2,2 C 3,3 C 0,0 km/h 100,00 %
15.02.2019 04:15 3,4 C 66 % 1032,7 hPa 0,0 l/m 0,0 km/h SO 128 0 min 0,000 mm 0,0 UV-I 0 W/m -2,3 C 3,4 C 0,0 km/h 100,00 %
15.02.2019 04:14 3,4 C 66 % 1032,7 hPa 0,0 l/m 0,0 km/h SO 128 0 min 0,000 mm 0,0 UV-I 0 W/m -2,3 C 3,4 C 0,0 km/h 100,00 %
15.02.2019 04:13 3,4 C 66 % 1032,7 hPa 0,0 l/m 0,0 km/h SO 128 0 min 0,000 mm 0,0 UV-I 0 W/m -2,3 C 3,4 C 0,0 km/h 100,00 %
15.02.2019 04:12 3,5 C 66 % 1032,7 hPa 0,0 l/m 0,0 km/h SO 128 0 min 0,000 mm 0,0 UV-I 0 W/m -2,2 C 3,5 C 0,0 km/h 100,00 %
15.02.2019 04:11 3,6 C 66 % 1032,7 hPa 0,0 l/m 0,0 km/h SO 128 0 min 0,000 mm 0,0 UV-I 0 W/m -2,1 C 3,6 C 0,0 km/h 100,00 %
15.02.2019 04:10 3,6 C 66 % 1032,7 hPa 0,0 l/m 0,0 km/h SO 128 0 min 0,000 mm 0,0 UV-I 0 W/m -2,1 C 3,6 C 0,0 km/h 100,00 %
15.02.2019 04:09 3,6 C 65 % 1032,7 hPa 0,0 l/m 0,0 km/h SO 128 0 min 0,000 mm 0,0 UV-I 0 W/m -2,4 C 3,6 C 0,0 km/h 100,00 %
15.02.2019 04:08 3,7 C 65 % 1032,7 hPa 0,0 l/m 0,0 km/h SO 128 0 min 0,000 mm 0,0 UV-I 0 W/m -2,3 C 3,7 C 0,0 km/h 100,00 %
15.02.2019 04:07 3,7 C 65 % 1032,7 hPa 0,0 l/m 0,0 km/h SO 128 0 min 0,000 mm 0,0 UV-I 0 W/m -2,3 C 3,7 C 0,0 km/h 100,00 %
15.02.2019 04:06 3,7 C 65 % 1032,7 hPa 0,0 l/m 0,0 km/h SO 128 0 min 0,000 mm 0,0 UV-I 0 W/m -2,3 C 3,7 C 0,0 km/h 100,00 %
15.02.2019 04:05 3,8 C 65 % 1032,8 hPa 0,0 l/m 0,0 km/h SO 128 0 min 0,000 mm 0,0 UV-I 0 W/m -2,2 C 3,8 C 0,0 km/h 100,00 %
15.02.2019 04:04 3,8 C 65 % 1032,8 hPa 0,0 l/m 0,0 km/h SO 128 0 min 0,000 mm 0,0 UV-I 0 W/m -2,2 C 3,8 C 0,0 km/h 100,00 %
15.02.2019 04:03 3,8 C 64 % 1032,7 hPa 0,0 l/m 0,0 km/h SO 128 0 min 0,000 mm 0,0 UV-I 0 W/m -2,4 C 3,8 C 0,0 km/h 100,00 %
15.02.2019 04:02 3,9 C 64 % 1032,7 hPa 0,0 l/m 0,0 km/h SO 128 0 min 0,000 mm 0,0 UV-I 0 W/m -2,3 C 3,9 C 0,0 km/h 100,00 %
15.02.2019 04:01 3,9 C 64 % 1032,8 hPa 0,0 l/m 0,0 km/h SO 128 0 min 0,000 mm 0,0 UV-I 0 W/m -2,3 C 3,9 C 0,0 km/h 100,00 %
15.02.2019 04:00 3,9 C 64 % 1032,7 hPa 0,0 l/m 0,0 km/h SO 128 0 min 0,026 mm 0,0 UV-I 0 W/m -2,3 C 3,9 C 0,0 km/h 100,00 %
15.02.2019 03:59 4,0 C 64 % 1032,7 hPa 0,0 l/m 0,0 km/h SO 128 0 min 0,000 mm 0,0 UV-I 0 W/m -2,2 C 4,0 C 0,0 km/h 100,00 %
15.02.2019 03:58 4,0 C 64 % 1032,7 hPa 0,0 l/m 0,0 km/h SO 128 0 min 0,000 mm 0,0 UV-I 0 W/m -2,2 C 4,0 C 0,0 km/h 100,00 %
15.02.2019 03:57 4,1 C 64 % 1032,8 hPa 0,0 l/m 0,0 km/h SO 128 0 min 0,000 mm 0,0 UV-I 0 W/m -2,1 C 4,1 C 0,0 km/h 100,00 %
15.02.2019 03:56 4,1 C 64 % 1032,7 hPa 0,0 l/m 0,0 km/h SO 128 0 min 0,000 mm 0,0 UV-I 0 W/m -2,1 C 4,1 C 0,0 km/h 95,65 %
15.02.2019 03:55 4,1 C 64 % 1032,7 hPa 0,0 l/m 0,0 km/h SO 128 0 min 0,000 mm 0,0 UV-I 0 W/m -2,1 C 4,1 C 0,0 km/h 100,00 %
15.02.2019 03:54 4,1 C 64 % 1032,7 hPa 0,0 l/m 0,0 km/h SO 128 0 min 0,000 mm 0,0 UV-I 0 W/m -2,1 C 4,1 C 0,0 km/h 100,00 %
15.02.2019 03:53 4,1 C 63 % 1032,7 hPa 0,0 l/m 0,0 km/h SO 128 0 min 0,000 mm 0,0 UV-I 0 W/m -2,3 C 4,1 C 0,0 km/h 100,00 %
15.02.2019 03:52 4,2 C 63 % 1032,7 hPa 0,0 l/m 0,0 km/h SO 128 0 min 0,000 mm 0,0 UV-I 0 W/m -2,2 C 4,2 C 0,0 km/h 100,00 %
15.02.2019 03:51 4,2 C 63 % 1032,7 hPa 0,0 l/m 0,0 km/h SO 128 0 min 0,000 mm 0,0 UV-I 0 W/m -2,2 C 4,2 C 0,0 km/h 100,00 %
15.02.2019 03:50 4,2 C 63 % 1032,8 hPa 0,0 l/m 0,0 km/h SO 128 0 min 0,000 mm 0,0 UV-I 0 W/m -2,2 C 4,2 C 0,0 km/h 100,00 %
15.02.2019 03:49 4,2 C 63 % 1032,8 hPa 0,0 l/m 0,0 km/h SO 128 0 min 0,000 mm 0,0 UV-I 0 W/m -2,2 C 4,2 C 0,0 km/h 100,00 %
15.02.2019 03:48 4,3 C 63 % 1032,7 hPa 0,0 l/m 0,0 km/h SO 128 0 min 0,000 mm 0,0 UV-I 0 W/m -2,1 C 4,3 C 0,0 km/h 95,65 %
15.02.2019 03:47 4,3 C 63 % 1032,7 hPa 0,0 l/m 0,0 km/h SO 128 0 min 0,000 mm 0,0 UV-I 0 W/m -2,1 C 4,3 C 0,0 km/h 100,00 %
15.02.2019 03:46 4,3 C 62 % 1032,8 hPa 0,0 l/m 0,0 km/h SO 128 0 min 0,000 mm 0,0 UV-I 0 W/m -2,3 C 4,3 C 0,0 km/h 100,00 %
15.02.2019 03:45 4,3 C 62 % 1032,8 hPa 0,0 l/m 1,2 km/h SO 128 0 min 0,000 mm 0,0 UV-I 0 W/m -2,3 C 4,3 C 3,8 km/h 100,00 %
15.02.2019 03:44 4,4 C 62 % 1032,7 hPa 0,0 l/m 0,0 km/h SO 127 0 min 0,000 mm 0,0 UV-I 0 W/m -2,2 C 4,4 C 0,0 km/h 100,00 %
15.02.2019 03:43 4,4 C 62 % 1032,8 hPa 0,0 l/m 0,0 km/h SO 127 0 min 0,000 mm 0,0 UV-I 0 W/m -2,2 C 4,4 C 0,0 km/h 100,00 %
15.02.2019 03:42 4,5 C 62 % 1032,8 hPa 0,0 l/m 0,0 km/h SO 127 0 min 0,000 mm 0,0 UV-I 0 W/m -2,1 C 4,5 C 0,0 km/h 100,00 %
15.02.2019 03:41 4,6 C 62 % 1032,8 hPa 0,0 l/m 0,1 km/h SO 127 0 min 0,000 mm 0,0 UV-I 0 W/m -2,0 C 4,6 C 1,9 km/h 100,00 %
15.02.2019 03:40 4,6 C 61 % 1032,8 hPa 0,0 l/m 0,0 km/h SO 127 0 min 0,000 mm 0,0 UV-I 0 W/m -2,3 C 4,6 C 0,0 km/h 100,00 %
15.02.2019 03:39 4,7 C 61 % 1032,8 hPa 0,0 l/m 0,0 km/h SO 127 0 min 0,000 mm 0,0 UV-I 0 W/m -2,2 C 4,7 C 0,0 km/h 100,00 %
15.02.2019 03:38 4,7 C 61 % 1032,8 hPa 0,0 l/m 0,9 km/h SO 127 0 min 0,000 mm 0,0 UV-I 0 W/m -2,2 C 4,7 C 1,9 km/h 100,00 %
15.02.2019 03:37 4,7 C 61 % 1032,8 hPa 0,0 l/m 0,3 km/h SO 127 0 min 0,000 mm 0,0 UV-I 0 W/m -2,2 C 4,7 C 1,9 km/h 100,00 %
15.02.2019 03:36 4,7 C 61 % 1032,8 hPa 0,0 l/m 0,2 km/h SO 127 0 min 0,000 mm 0,0 UV-I 0 W/m -2,2 C 4,7 C 1,9 km/h 100,00 %
15.02.2019 03:35 4,8 C 61 % 1032,8 hPa 0,0 l/m 0,0 km/h SO 124 0 min 0,000 mm 0,0 UV-I 0 W/m -2,1 C 4,8 C 0,0 km/h 100,00 %
15.02.2019 03:34 4,8 C 60 % 1032,8 hPa 0,0 l/m 0,0 km/h SO 124 0 min 0,000 mm 0,0 UV-I 0 W/m -2,3 C 4,8 C 0,0 km/h 100,00 %
15.02.2019 03:33 4,8 C 60 % 1032,9 hPa 0,0 l/m 0,0 km/h SO 124 0 min 0,000 mm 0,0 UV-I 0 W/m -2,3 C 4,8 C 0,0 km/h 100,00 %
15.02.2019 03:32 4,9 C 60 % 1032,9 hPa 0,0 l/m 0,0 km/h SO 124 0 min 0,000 mm 0,0 UV-I 0 W/m -2,2 C 4,9 C 0,0 km/h 100,00 %
15.02.2019 03:31 4,9 C 60 % 1032,9 hPa 0,0 l/m 0,0 km/h SO 124 0 min 0,000 mm 0,0 UV-I 0 W/m -2,2 C 4,9 C 0,0 km/h 100,00 %
15.02.2019 03:30 5,0 C 60 % 1032,9 hPa 0,0 l/m 0,0 km/h SO 124 0 min 0,000 mm 0,0 UV-I 0 W/m -2,1 C 5,0 C 0,0 km/h 100,00 %
15.02.2019 03:29 5,0 C 60 % 1032,9 hPa 0,0 l/m 0,4 km/h SO 124 0 min 0,000 mm 0,0 UV-I 0 W/m -2,1 C 5,0 C 1,9 km/h 100,00 %
15.02.2019 03:28 5,1 C 60 % 1032,9 hPa 0,0 l/m 0,0 km/h SO 124 0 min 0,000 mm 0,0 UV-I 0 W/m -2,0 C 5,1 C 0,0 km/h 100,00 %
15.02.2019 03:27 5,1 C 60 % 1033,0 hPa 0,0 l/m 0,0 km/h SO 124 0 min 0,000 mm 0,0 UV-I 0 W/m -2,0 C 5,1 C 0,0 km/h 100,00 %
15.02.2019 03:26 5,1 C 60 % 1033,0 hPa 0,0 l/m 0,0 km/h SO 124 0 min 0,000 mm 0,0 UV-I 0 W/m -2,0 C 5,1 C 0,0 km/h 95,83 %
15.02.2019 03:25 5,1 C 60 % 1032,9 hPa 0,0 l/m 0,0 km/h SO 124 0 min 0,000 mm 0,0 UV-I 0 W/m -2,0 C 5,1 C 0,0 km/h 100,00 %
15.02.2019 03:24 5,2 C 60 % 1032,9 hPa 0,0 l/m 0,0 km/h SO 124 0 min 0,000 mm 0,0 UV-I 0 W/m -1,9 C 5,2 C 0,0 km/h 100,00 %
15.02.2019 03:23 5,2 C 60 % 1033,0 hPa 0,0 l/m 0,2 km/h SO 124 0 min 0,000 mm 0,0 UV-I 0 W/m -1,9 C 5,2 C 1,9 km/h 100,00 %
15.02.2019 03:22 5,2 C 60 % 1032,9 hPa 0,0 l/m 0,2 km/h SO 124 0 min 0,000 mm 0,0 UV-I 0 W/m -1,9 C 5,2 C 1,9 km/h 100,00 %
15.02.2019 03:21 5,2 C 60 % 1033,0 hPa 0,0 l/m 1,8 km/h SO 124 0 min 0,000 mm 0,0 UV-I 0 W/m -1,9 C 5,2 C 3,8 km/h 100,00 %
15.02.2019 03:20 5,2 C 60 % 1032,9 hPa 0,0 l/m 0,5 km/h SO 124 0 min 0,000 mm 0,0 UV-I 0 W/m -1,9 C 5,2 C 1,9 km/h 100,00 %
15.02.2019 03:19 5,2 C 60 % 1032,9 hPa 0,0 l/m 1,7 km/h SO 124 0 min 0,000 mm 0,0 UV-I 0 W/m -1,9 C 5,2 C 1,9 km/h 100,00 %
15.02.2019 03:18 5,2 C 60 % 1032,9 hPa 0,0 l/m 0,6 km/h SO 124 0 min 0,000 mm 0,0 UV-I 0 W/m -1,9 C 5,2 C 1,9 km/h 100,00 %
15.02.2019 03:17 5,2 C 60 % 1032,9 hPa 0,0 l/m 0,7 km/h SO 124 0 min 0,000 mm 0,0 UV-I 0 W/m -1,9 C 5,2 C 1,9 km/h 100,00 %
15.02.2019 03:16 5,2 C 60 % 1032,9 hPa 0,0 l/m 1,4 km/h SO 124 0 min 0,000 mm 0,0 UV-I 0 W/m -1,9 C 5,2 C 1,9 km/h 95,65 %
15.02.2019 03:15 5,3 C 60 % 1032,9 hPa 0,0 l/m 0,7 km/h SO 124 0 min 0,000 mm 0,0 UV-I 0 W/m -1,8 C 5,3 C 1,9 km/h 100,00 %
15.02.2019 03:14 5,3 C 60 % 1032,9 hPa 0,0 l/m 0,7 km/h SO 124 0 min 0,000 mm 0,0 UV-I 0 W/m -1,8 C 5,3 C 1,9 km/h 100,00 %
15.02.2019 03:13 5,3 C 60 % 1032,9 hPa 0,0 l/m 0,3 km/h SO 124 0 min 0,000 mm 0,0 UV-I 0 W/m -1,8 C 5,3 C 1,9 km/h 100,00 %
15.02.2019 03:12 5,3 C 60 % 1032,9 hPa 0,0 l/m 1,5 km/h SO 124 0 min 0,000 mm 0,0 UV-I 0 W/m -1,8 C 5,3 C 1,9 km/h 100,00 %
15.02.2019 03:11 5,3 C 60 % 1033,0 hPa 0,0 l/m 2,2 km/h SO 124 0 min 0,000 mm 0,0 UV-I 0 W/m -1,8 C 5,3 C 3,8 km/h 95,83 %
15.02.2019 03:10 5,3 C 60 % 1032,9 hPa 0,0 l/m 2,2 km/h SO 124 0 min 0,000 mm 0,0 UV-I 0 W/m -1,8 C 5,3 C 3,8 km/h 100,00 %
15.02.2019 03:09 5,3 C 59 % 1033,0 hPa 0,0 l/m 2,8 km/h SO 124 0 min 0,000 mm 0,0 UV-I 0 W/m -2,0 C 5,3 C 3,8 km/h 100,00 %
15.02.2019 03:08 5,3 C 59 % 1033,0 hPa 0,0 l/m 2,3 km/h SO 124 0 min 0,000 mm 0,0 UV-I 0 W/m -2,0 C 5,3 C 3,8 km/h 100,00 %
15.02.2019 03:07 5,3 C 59 % 1033,0 hPa 0,0 l/m 1,0 km/h SO 124 0 min 0,000 mm 0,0 UV-I 0 W/m -2,0 C 5,3 C 1,9 km/h 96,30 %
15.02.2019 03:06 5,4 C 59 % 1033,0 hPa 0,0 l/m 1,4 km/h SO 124 0 min 0,000 mm 0,0 UV-I 0 W/m -2,0 C 5,4 C 1,9 km/h 100,00 %
15.02.2019 03:05 5,4 C 59 % 1032,9 hPa 0,0 l/m 3,3 km/h SO 124 0 min 0,000 mm 0,0 UV-I 0 W/m -2,0 C 5,4 C 3,8 km/h 100,00 %
15.02.2019 03:04 5,4 C 59 % 1033,0 hPa 0,0 l/m 2,0 km/h SO 124 0 min 0,000 mm 0,0 UV-I 0 W/m -2,0 C 5,4 C 3,8 km/h 96,15 %
15.02.2019 03:03 5,4 C 59 % 1032,9 hPa 0,0 l/m 2,5 km/h SO 124 0 min 0,000 mm 0,0 UV-I 0 W/m -2,0 C 5,4 C 3,8 km/h 100,00 %
15.02.2019 03:02 5,4 C 59 % 1033,0 hPa 0,0 l/m 2,6 km/h SO 124 0 min 0,000 mm 0,0 UV-I 0 W/m -2,0 C 5,4 C 3,8 km/h 100,00 %
15.02.2019 03:01 5,3 C 59 % 1033,1 hPa 0,0 l/m 3,3 km/h SO 124 0 min 0,000 mm 0,0 UV-I 0 W/m -2,0 C 5,3 C 3,8 km/h 100,00 %
15.02.2019 03:00 5,3 C 59 % 1033,0 hPa 0,0 l/m 2,6 km/h SO 124 0 min 0,025 mm 0,0 UV-I 0 W/m -2,0 C 5,3 C 3,8 km/h 95,65 %
15.02.2019 02:59 5,3 C 60 % 1033,0 hPa 0,0 l/m 2,7 km/h SO 124 0 min 0,000 mm 0,0 UV-I 0 W/m -1,8 C 5,3 C 3,8 km/h 100,00 %
15.02.2019 02:58 5,3 C 60 % 1033,0 hPa 0,0 l/m 2,9 km/h SO 124 0 min 0,000 mm 0,0 UV-I 0 W/m -1,8 C 5,3 C 3,8 km/h 100,00 %
15.02.2019 02:57 5,3 C 60 % 1033,0 hPa 0,0 l/m 1,7 km/h SO 124 0 min 0,000 mm 0,0 UV-I 0 W/m -1,8 C 5,3 C 3,8 km/h 100,00 %
15.02.2019 02:56 5,3 C 59 % 1033,1 hPa 0,0 l/m 1,6 km/h SO 124 0 min 0,000 mm 0,0 UV-I 0 W/m -2,0 C 5,3 C 3,8 km/h 100,00 %
15.02.2019 02:55 5,3 C 59 % 1033,1 hPa 0,0 l/m 2,0 km/h SO 124 0 min 0,000 mm 0,0 UV-I 0 W/m -2,0 C 5,3 C 3,8 km/h 100,00 %
15.02.2019 02:54 5,3 C 59 % 1033,1 hPa 0,0 l/m 1,6 km/h SO 124 0 min 0,000 mm 0,0 UV-I 0 W/m -2,0 C 5,3 C 1,9 km/h 95,83 %
15.02.2019 02:53 5,3 C 59 % 1033,1 hPa 0,0 l/m 1,4 km/h SO 124 0 min 0,000 mm 0,0 UV-I 0 W/m -2,0 C 5,3 C 3,8 km/h 100,00 %
15.02.2019 02:52 5,3 C 59 % 1033,2 hPa 0,0 l/m 1,7 km/h SO 124 0 min 0,000 mm 0,0 UV-I 0 W/m -2,0 C 5,3 C 3,8 km/h 100,00 %
15.02.2019 02:51 5,3 C 59 % 1033,2 hPa 0,0 l/m 1,8 km/h SO 124 0 min 0,000 mm 0,0 UV-I 0 W/m -2,0 C 5,3 C 3,8 km/h 100,00 %
15.02.2019 02:50 5,4 C 59 % 1033,2 hPa 0,0 l/m 2,0 km/h SO 124 0 min 0,000 mm 0,0 UV-I 0 W/m -2,0 C 5,4 C 3,8 km/h 100,00 %
15.02.2019 02:49 5,4 C 59 % 1033,2 hPa 0,0 l/m 1,9 km/h SO 124 0 min 0,000 mm 0,0 UV-I 0 W/m -2,0 C 5,4 C 3,8 km/h 100,00 %
15.02.2019 02:48 5,4 C 59 % 1033,3 hPa 0,0 l/m 2,5 km/h SO 124 0 min 0,000 mm 0,0 UV-I 0 W/m -2,0 C 5,4 C 3,8 km/h 100,00 %
15.02.2019 02:47 5,4 C 59 % 1033,3 hPa 0,0 l/m 3,6 km/h SO 124 0 min 0,000 mm 0,0 UV-I 0 W/m -2,0 C 5,4 C 5,7 km/h 100,00 %
15.02.2019 02:46 5,4 C 59 % 1033,3 hPa 0,0 l/m 4,1 km/h SO 124 0 min 0,000 mm 0,0 UV-I 0 W/m -2,0 C 5,4 C 5,7 km/h 100,00 %
15.02.2019 02:45 5,4 C 59 % 1033,3 hPa 0,0 l/m 3,4 km/h SO 124 0 min 0,000 mm 0,0 UV-I 0 W/m -2,0 C 5,4 C 3,8 km/h 100,00 %
15.02.2019 02:44 5,5 C 59 % 1033,3 hPa 0,0 l/m 2,9 km/h SO 124 0 min 0,000 mm 0,0 UV-I 0 W/m -1,9 C 5,5 C 5,7 km/h 100,00 %
15.02.2019 02:43 5,5 C 59 % 1033,3 hPa 0,0 l/m 3,3 km/h SO 124 0 min 0,000 mm 0,0 UV-I 0 W/m -1,9 C 5,5 C 3,8 km/h 100,00 %
15.02.2019 02:42 5,5 C 59 % 1033,3 hPa 0,0 l/m 2,3 km/h SO 124 0 min 0,000 mm 0,0 UV-I 0 W/m -1,9 C 5,5 C 3,8 km/h 100,00 %
15.02.2019 02:41 5,5 C 59 % 1033,3 hPa 0,0 l/m 3,2 km/h SO 124 0 min 0,000 mm 0,0 UV-I 0 W/m -1,9 C 5,5 C 3,8 km/h 100,00 %
15.02.2019 02:40 5,5 C 59 % 1033,3 hPa 0,0 l/m 1,4 km/h SO 124 0 min 0,000 mm 0,0 UV-I 0 W/m -1,9 C 5,5 C 3,8 km/h 100,00 %
15.02.2019 02:39 5,5 C 59 % 1033,3 hPa 0,0 l/m 0,3 km/h SO 124 0 min 0,000 mm 0,0 UV-I 0 W/m -1,9 C 5,5 C 1,9 km/h 100,00 %
15.02.2019 02:38 5,5 C 59 % 1033,3 hPa 0,0 l/m 2,5 km/h SO 124 0 min 0,000 mm 0,0 UV-I 0 W/m -1,9 C 5,5 C 3,8 km/h 100,00 %
15.02.2019 02:37 5,5 C 59 % 1033,3 hPa 0,0 l/m 1,5 km/h SO 124 0 min 0,000 mm 0,0 UV-I 0 W/m -1,9 C 5,5 C 1,9 km/h 100,00 %
15.02.2019 02:36 5,5 C 59 % 1033,3 hPa 0,0 l/m 2,0 km/h SO 124 0 min 0,000 mm 0,0 UV-I 0 W/m -1,9 C 5,5 C 3,8 km/h 100,00 %
15.02.2019 02:35 5,5 C 59 % 1033,4 hPa 0,0 l/m 2,6 km/h SO 124 0 min 0,000 mm 0,0 UV-I 0 W/m -1,9 C 5,5 C 3,8 km/h 100,00 %
15.02.2019 02:34 5,4 C 60 % 1033,3 hPa 0,0 l/m 4,7 km/h SO 124 0 min 0,000 mm 0,0 UV-I 0 W/m -1,7 C 5,4 C 5,7 km/h 100,00 %
15.02.2019 02:33 5,4 C 60 % 1033,3 hPa 0,0 l/m 2,6 km/h SO 124 0 min 0,000 mm 0,0 UV-I 0 W/m -1,7 C 5,4 C 5,7 km/h 100,00 %
15.02.2019 02:32 5,4 C 60 % 1033,4 hPa 0,0 l/m 3,6 km/h SO 124 0 min 0,000 mm 0,0 UV-I 0 W/m -1,7 C 5,4 C 3,8 km/h 100,00 %
15.02.2019 02:31 5,4 C 60 % 1033,4 hPa 0,0 l/m 3,0 km/h SO 124 0 min 0,000 mm 0,0 UV-I 0 W/m -1,7 C 5,4 C 5,7 km/h 100,00 %
15.02.2019 02:30 5,4 C 60 % 1033,4 hPa 0,0 l/m 2,6 km/h SO 124 0 min 0,000 mm 0,0 UV-I 0 W/m -1,7 C 5,4 C 3,8 km/h 100,00 %
15.02.2019 02:29 5,4 C 60 % 1033,4 hPa 0,0 l/m 3,3 km/h SO 124 0 min 0,000 mm 0,0 UV-I 0 W/m -1,7 C 5,4 C 5,7 km/h 100,00 %
15.02.2019 02:28 5,4 C 60 % 1033,4 hPa 0,0 l/m 4,3 km/h SO 124 0 min 0,000 mm 0,0 UV-I 0 W/m -1,7 C 5,4 C 5,7 km/h 95,65 %
15.02.2019 02:27 5,4 C 60 % 1033,4 hPa 0,0 l/m 2,8 km/h SO 124 0 min 0,000 mm 0,0 UV-I 0 W/m -1,7 C 5,4 C 5,7 km/h 100,00 %
15.02.2019 02:26 5,4 C 60 % 1033,5 hPa 0,0 l/m 4,4 km/h SO 124 0 min 0,000 mm 0,0 UV-I 0 W/m -1,7 C 5,4 C 5,7 km/h 100,00 %
15.02.2019 02:25 5,4 C 60 % 1033,4 hPa 0,0 l/m 3,5 km/h SO 124 0 min 0,000 mm 0,0 UV-I 0 W/m -1,7 C 5,4 C 5,7 km/h 100,00 %
15.02.2019 02:24 5,4 C 60 % 1033,4 hPa 0,0 l/m 3,7 km/h SO 124 0 min 0,000 mm 0,0 UV-I 0 W/m -1,7 C 5,4 C 5,7 km/h 100,00 %
15.02.2019 02:23 5,4 C 60 % 1033,4 hPa 0,0 l/m 3,2 km/h SO 124 0 min 0,000 mm 0,0 UV-I 0 W/m -1,7 C 5,4 C 5,7 km/h 100,00 %
15.02.2019 02:22 5,4 C 60 % 1033,4 hPa 0,0 l/m 3,7 km/h SO 124 0 min 0,000 mm 0,0 UV-I 0 W/m -1,7 C 5,4 C 5,7 km/h 100,00 %
15.02.2019 02:21 5,4 C 60 % 1033,4 hPa 0,0 l/m 2,9 km/h SO 124 0 min 0,000 mm 0,0 UV-I 0 W/m -1,7 C 5,4 C 3,8 km/h 100,00 %
15.02.2019 02:20 5,4 C 60 % 1033,4 hPa 0,0 l/m 3,4 km/h SO 124 0 min 0,000 mm 0,0 UV-I 0 W/m -1,7 C 5,4 C 3,8 km/h 100,00 %
15.02.2019 02:19 5,5 C 60 % 1033,4 hPa 0,0 l/m 4,2 km/h SO 124 0 min 0,000 mm 0,0 UV-I 0 W/m -1,6 C 5,5 C 5,7 km/h 100,00 %
15.02.2019 02:18 5,5 C 60 % 1033,5 hPa 0,0 l/m 3,7 km/h SO 124 0 min 0,000 mm 0,0 UV-I 0 W/m -1,6 C 5,5 C 3,8 km/h 100,00 %
15.02.2019 02:17 5,5 C 60 % 1033,4 hPa 0,0 l/m 3,1 km/h SO 124 0 min 0,000 mm 0,0 UV-I 0 W/m -1,6 C 5,5 C 5,7 km/h 100,00 %
15.02.2019 02:16 5,5 C 60 % 1033,4 hPa 0,0 l/m 3,5 km/h SO 124 0 min 0,000 mm 0,0 UV-I 0 W/m -1,6 C 5,5 C 5,7 km/h 100,00 %
15.02.2019 02:15 5,5 C 60 % 1033,5 hPa 0,0 l/m 3,5 km/h SO 124 0 min 0,000 mm 0,0 UV-I 0 W/m -1,6 C 5,5 C 3,8 km/h 100,00 %
15.02.2019 02:14 5,5 C 60 % 1033,5 hPa 0,0 l/m 3,3 km/h SO 124 0 min 0,000 mm 0,0 UV-I 0 W/m -1,6 C 5,5 C 5,7 km/h 100,00 %
15.02.2019 02:13 5,4 C 60 % 1033,5 hPa 0,0 l/m 4,4 km/h SO 124 0 min 0,000 mm 0,0 UV-I 0 W/m -1,7 C 5,4 C 9,6 km/h 100,00 %
15.02.2019 02:12 5,4 C 60 % 1033,5 hPa 0,0 l/m 2,6 km/h SO 128 0 min 0,000 mm 0,0 UV-I 0 W/m -1,7 C 5,4 C 5,7 km/h 100,00 %
15.02.2019 02:11 5,4 C 60 % 1033,5 hPa 0,0 l/m 3,3 km/h SO 129 0 min 0,000 mm 0,0 UV-I 0 W/m -1,7 C 5,4 C 3,8 km/h 100,00 %
15.02.2019 02:10 5,4 C 60 % 1033,5 hPa 0,0 l/m 4,0 km/h SO 129 0 min 0,000 mm 0,0 UV-I 0 W/m -1,7 C 5,4 C 5,7 km/h 100,00 %
15.02.2019 02:09 5,4 C 60 % 1033,5 hPa 0,0 l/m 3,2 km/h SO 129 0 min 0,000 mm 0,0 UV-I 0 W/m -1,7 C 5,4 C 7,7 km/h 100,00 %
15.02.2019 02:08 5,4 C 60 % 1033,5 hPa 0,0 l/m 3,6 km/h SO 130 0 min 0,000 mm 0,0 UV-I 0 W/m -1,7 C 5,4 C 5,7 km/h 100,00 %
15.02.2019 02:07 5,4 C 60 % 1033,5 hPa 0,0 l/m 4,2 km/h SO 130 0 min 0,000 mm 0,0 UV-I 0 W/m -1,7 C 5,4 C 5,7 km/h 96,15 %
15.02.2019 02:06 5,4 C 60 % 1033,5 hPa 0,0 l/m 3,1 km/h SO 130 0 min 0,000 mm 0,0 UV-I 0 W/m -1,7 C 5,4 C 3,8 km/h 100,00 %
15.02.2019 02:05 5,5 C 60 % 1033,5 hPa 0,0 l/m 3,5 km/h SO 130 0 min 0,000 mm 0,0 UV-I 0 W/m -1,6 C 5,5 C 5,7 km/h 100,00 %
15.02.2019 02:04 5,5 C 60 % 1033,5 hPa 0,0 l/m 4,0 km/h SO 130 0 min 0,000 mm 0,0 UV-I 0 W/m -1,6 C 5,5 C 5,7 km/h 100,00 %
15.02.2019 02:03 5,6 C 60 % 1033,5 hPa 0,0 l/m 2,9 km/h SO 130 0 min 0,000 mm 0,0 UV-I 0 W/m -1,5 C 5,6 C 5,7 km/h 100,00 %
15.02.2019 02:02 5,6 C 60 % 1033,5 hPa 0,0 l/m 3,2 km/h SO 130 0 min 0,000 mm 0,0 UV-I 0 W/m -1,5 C 5,6 C 3,8 km/h 100,00 %
15.02.2019 02:01 5,6 C 60 % 1033,5 hPa 0,0 l/m 3,0 km/h SO 130 0 min 0,000 mm 0,0 UV-I 0 W/m -1,5 C 5,6 C 3,8 km/h 100,00 %
15.02.2019 02:00 5,6 C 60 % 1033,5 hPa 0,0 l/m 2,7 km/h SO 130 0 min 0,026 mm 0,0 UV-I 0 W/m -1,5 C 5,6 C 3,8 km/h 100,00 %
15.02.2019 01:59 5,7 C 60 % 1033,5 hPa 0,0 l/m 2,9 km/h SO 130 0 min 0,000 mm 0,0 UV-I 0 W/m -1,4 C 5,7 C 3,8 km/h 100,00 %
15.02.2019 01:58 5,7 C 60 % 1033,5 hPa 0,0 l/m 2,3 km/h SO 130 0 min 0,000 mm 0,0 UV-I 0 W/m -1,4 C 5,7 C 5,7 km/h 100,00 %
15.02.2019 01:57 5,7 C 60 % 1033,5 hPa 0,0 l/m 2,6 km/h SO 130 0 min 0,000 mm 0,0 UV-I 0 W/m -1,4 C 5,7 C 3,8 km/h 100,00 %
15.02.2019 01:56 5,7 C 60 % 1033,5 hPa 0,0 l/m 2,3 km/h SO 130 0 min 0,000 mm 0,0 UV-I 0 W/m -1,4 C 5,7 C 3,8 km/h 100,00 %
15.02.2019 01:55 5,7 C 60 % 1033,5 hPa 0,0 l/m 3,4 km/h SO 130 0 min 0,000 mm 0,0 UV-I 0 W/m -1,4 C 5,7 C 5,7 km/h 100,00 %
15.02.2019 01:54 5,7 C 60 % 1033,5 hPa 0,0 l/m 2,8 km/h SO 130 0 min 0,000 mm 0,0 UV-I 0 W/m -1,4 C 5,7 C 3,8 km/h 100,00 %
15.02.2019 01:53 5,7 C 60 % 1033,5 hPa 0,0 l/m 4,5 km/h SO 130 0 min 0,000 mm 0,0 UV-I 0 W/m -1,4 C 5,7 C 7,7 km/h 100,00 %
15.02.2019 01:52 5,7 C 60 % 1033,5 hPa 0,0 l/m 2,8 km/h SO 130 0 min 0,000 mm 0,0 UV-I 0 W/m -1,4 C 5,7 C 5,7 km/h 100,00 %
15.02.2019 01:51 5,7 C 60 % 1033,5 hPa 0,0 l/m 2,9 km/h SO 130 0 min 0,000 mm 0,0 UV-I 0 W/m -1,4 C 5,7 C 5,7 km/h 100,00 %
15.02.2019 01:50 5,7 C 60 % 1033,5 hPa 0,0 l/m 3,7 km/h SO 130 0 min 0,000 mm 0,0 UV-I 0 W/m -1,4 C 5,7 C 5,7 km/h 100,00 %
15.02.2019 01:49 5,7 C 60 % 1033,5 hPa 0,0 l/m 3,0 km/h SO 130 0 min 0,000 mm 0,0 UV-I 0 W/m -1,4 C 5,7 C 3,8 km/h 100,00 %
15.02.2019 01:48 5,7 C 60 % 1033,5 hPa 0,0 l/m 3,1 km/h SO 130 0 min 0,000 mm 0,0 UV-I 0 W/m -1,4 C 5,7 C 5,7 km/h 100,00 %
15.02.2019 01:47 5,7 C 61 % 1033,5 hPa 0,0 l/m 2,8 km/h SO 130 0 min 0,000 mm 0,0 UV-I 0 W/m -1,2 C 5,7 C 5,7 km/h 100,00 %
15.02.2019 01:46 5,7 C 61 % 1033,5 hPa 0,0 l/m 2,3 km/h SO 130 0 min 0,000 mm 0,0 UV-I 0 W/m -1,2 C 5,7 C 3,8 km/h 100,00 %
15.02.2019 01:45 5,7 C 61 % 1033,5 hPa 0,0 l/m 2,3 km/h SO 130 0 min 0,000 mm 0,0 UV-I 0 W/m -1,2 C 5,7 C 3,8 km/h 100,00 %
15.02.2019 01:44 5,7 C 61 % 1033,5 hPa 0,0 l/m 2,5 km/h SO 130 0 min 0,000 mm 0,0 UV-I 0 W/m -1,2 C 5,7 C 3,8 km/h 100,00 %
15.02.2019 01:43 5,7 C 60 % 1033,5 hPa 0,0 l/m 2,6 km/h SO 130 0 min 0,000 mm 0,0 UV-I 0 W/m -1,4 C 5,7 C 3,8 km/h 100,00 %
15.02.2019 01:42 5,7 C 60 % 1033,5 hPa 0,0 l/m 2,2 km/h SO 130 0 min 0,000 mm 0,0 UV-I 0 W/m -1,4 C 5,7 C 3,8 km/h 100,00 %
15.02.2019 01:41 5,7 C 60 % 1033,5 hPa 0,0 l/m 2,6 km/h SO 130 0 min 0,000 mm 0,0 UV-I 0 W/m -1,4 C 5,7 C 3,8 km/h 100,00 %
15.02.2019 01:40 5,7 C 60 % 1033,5 hPa 0,0 l/m 2,8 km/h SO 130 0 min 0,000 mm 0,0 UV-I 0 W/m -1,4 C 5,7 C 5,7 km/h 100,00 %
15.02.2019 01:39 5,8 C 60 % 1033,5 hPa 0,0 l/m 3,2 km/h SO 131 0 min 0,000 mm 0,0 UV-I 0 W/m -1,4 C 5,8 C 5,7 km/h 100,00 %
15.02.2019 01:38 5,8 C 60 % 1033,5 hPa 0,0 l/m 3,7 km/h SO 131 0 min 0,000 mm 0,0 UV-I 0 W/m -1,4 C 5,8 C 5,7 km/h 100,00 %
15.02.2019 01:37 5,8 C 60 % 1033,6 hPa 0,0 l/m 3,5 km/h SO 131 0 min 0,000 mm 0,0 UV-I 0 W/m -1,4 C 5,8 C 5,7 km/h 100,00 %
15.02.2019 01:36 5,8 C 61 % 1033,6 hPa 0,0 l/m 4,0 km/h SO 131 0 min 0,000 mm 0,0 UV-I 0 W/m -1,1 C 5,8 C 5,7 km/h 100,00 %
15.02.2019 01:35 5,8 C 61 % 1033,6 hPa 0,0 l/m 3,7 km/h SO 132 0 min 0,000 mm 0,0 UV-I 0 W/m -1,1 C 5,8 C 5,7 km/h 100,00 %
15.02.2019 01:34 5,8 C 61 % 1033,6 hPa 0,0 l/m 4,1 km/h SO 132 0 min 0,000 mm 0,0 UV-I 0 W/m -1,1 C 5,8 C 5,7 km/h 100,00 %
15.02.2019 01:33 5,7 C 61 % 1033,6 hPa 0,0 l/m 3,8 km/h SO 132 0 min 0,000 mm 0,0 UV-I 0 W/m -1,2 C 5,7 C 5,7 km/h 100,00 %
15.02.2019 01:32 5,7 C 61 % 1033,6 hPa 0,0 l/m 3,5 km/h SO 132 0 min 0,000 mm 0,0 UV-I 0 W/m -1,2 C 5,7 C 5,7 km/h 100,00 %
15.02.2019 01:31 5,7 C 61 % 1033,6 hPa 0,0 l/m 3,7 km/h SO 132 0 min 0,000 mm 0,0 UV-I 0 W/m -1,2 C 5,7 C 5,7 km/h 100,00 %
15.02.2019 01:30 5,7 C 61 % 1033,5 hPa 0,0 l/m 3,5 km/h SO 132 0 min 0,000 mm 0,0 UV-I 0 W/m -1,2 C 5,7 C 3,8 km/h 100,00 %
15.02.2019 01:29 5,7 C 61 % 1033,6 hPa 0,0 l/m 2,2 km/h SO 132 0 min 0,000 mm 0,0 UV-I 0 W/m -1,2 C 5,7 C 3,8 km/h 100,00 %
15.02.2019 01:28 5,7 C 61 % 1033,5 hPa 0,0 l/m 3,8 km/h SO 132 0 min 0,000 mm 0,0 UV-I 0 W/m -1,2 C 5,7 C 5,7 km/h 100,00 %
15.02.2019 01:27 5,8 C 61 % 1033,5 hPa 0,0 l/m 3,9 km/h SO 132 0 min 0,000 mm 0,0 UV-I 0 W/m -1,1 C 5,8 C 5,7 km/h 100,00 %
15.02.2019 01:26 5,8 C 61 % 1033,5 hPa 0,0 l/m 2,0 km/h SO 132 0 min 0,000 mm 0,0 UV-I 0 W/m -1,1 C 5,8 C 3,8 km/h 100,00 %
15.02.2019 01:25 5,8 C 61 % 1033,5 hPa 0,0 l/m 3,2 km/h SO 132 0 min 0,000 mm 0,0 UV-I 0 W/m -1,1 C 5,8 C 3,8 km/h 100,00 %
15.02.2019 01:24 5,8 C 61 % 1033,5 hPa 0,0 l/m 4,2 km/h SO 132 0 min 0,000 mm 0,0 UV-I 0 W/m -1,1 C 5,8 C 5,7 km/h 100,00 %
15.02.2019 01:23 5,8 C 61 % 1033,5 hPa 0,0 l/m 3,7 km/h SO 133 0 min 0,000 mm 0,0 UV-I 0 W/m -1,1 C 5,8 C 3,8 km/h 100,00 %
15.02.2019 01:22 5,8 C 61 % 1033,5 hPa 0,0 l/m 3,6 km/h SO 133 0 min 0,000 mm 0,0 UV-I 0 W/m -1,1 C 5,8 C 5,7 km/h 100,00 %
15.02.2019 01:21 5,8 C 61 % 1033,5 hPa 0,0 l/m 5,1 km/h SO 127 0 min 0,000 mm 0,0 UV-I 0 W/m -1,1 C 5,8 C 9,6 km/h 100,00 %
15.02.2019 01:20 5,8 C 62 % 1033,5 hPa 0,0 l/m 4,1 km/h O-SO 123 0 min 0,000 mm 0,0 UV-I 0 W/m -0,9 C 5,8 C 5,7 km/h 100,00 %
15.02.2019 01:19 5,8 C 61 % 1033,5 hPa 0,0 l/m 4,0 km/h O-SO 123 0 min 0,000 mm 0,0 UV-I 0 W/m -1,1 C 5,8 C 5,7 km/h 100,00 %
15.02.2019 01:18 5,9 C 62 % 1033,5 hPa 0,0 l/m 2,0 km/h O-SO 123 0 min 0,000 mm 0,0 UV-I 0 W/m -0,8 C 5,9 C 3,8 km/h 100,00 %
15.02.2019 01:17 5,9 C 62 % 1033,5 hPa 0,0 l/m 3,4 km/h O-SO 123 0 min 0,000 mm 0,0 UV-I 0 W/m -0,8 C 5,9 C 5,7 km/h 100,00 %
15.02.2019 01:16 5,9 C 62 % 1033,5 hPa 0,0 l/m 3,3 km/h O-SO 123 0 min 0,000 mm 0,0 UV-I 0 W/m -0,8 C 5,9 C 5,7 km/h 100,00 %
15.02.2019 01:15 5,9 C 62 % 1033,5 hPa 0,0 l/m 4,1 km/h O-SO 123 0 min 0,000 mm 0,0 UV-I 0 W/m -0,8 C 5,9 C 7,7 km/h 100,00 %
15.02.2019 01:14 5,9 C 62 % 1033,5 hPa 0,0 l/m 3,4 km/h O-SO 123 0 min 0,000 mm 0,0 UV-I 0 W/m -0,8 C 5,9 C 5,7 km/h 100,00 %
15.02.2019 01:13 5,9 C 62 % 1033,5 hPa 0,0 l/m 4,2 km/h O-SO 123 0 min 0,000 mm 0,0 UV-I 0 W/m -0,8 C 5,9 C 5,7 km/h 100,00 %
15.02.2019 01:12 5,9 C 62 % 1033,5 hPa 0,0 l/m 4,6 km/h SO 127 0 min 0,000 mm 0,0 UV-I 0 W/m -0,8 C 5,9 C 5,7 km/h 100,00 %
15.02.2019 01:11 5,9 C 62 % 1033,6 hPa 0,0 l/m 4,5 km/h SO 127 0 min 0,000 mm 0,0 UV-I 0 W/m -0,8 C 5,9 C 7,7 km/h 100,00 %
15.02.2019 01:10 6,0 C 62 % 1033,5 hPa 0,0 l/m 4,0 km/h O-SO 121 0 min 0,000 mm 0,0 UV-I 0 W/m -0,7 C 6,0 C 5,7 km/h 100,00 %
15.02.2019 01:09 6,0 C 62 % 1033,5 hPa 0,0 l/m 4,0 km/h O-SO 121 0 min 0,000 mm 0,0 UV-I 0 W/m -0,7 C 6,0 C 5,7 km/h 91,67 %
15.02.2019 01:08 6,1 C 61 % 1033,5 hPa 0,0 l/m 3,3 km/h O-SO 121 0 min 0,000 mm 0,0 UV-I 0 W/m -0,8 C 6,1 C 3,8 km/h 100,00 %
15.02.2019 01:07 6,1 C 61 % 1033,5 hPa 0,0 l/m 2,9 km/h O-SO 113 0 min 0,000 mm 0,0 UV-I 0 W/m -0,8 C 6,1 C 3,8 km/h 100,00 %
15.02.2019 01:06 6,1 C 61 % 1033,6 hPa 0,0 l/m 2,3 km/h O-SO 113 0 min 0,000 mm 0,0 UV-I 0 W/m -0,8 C 6,1 C 5,7 km/h 100,00 %
15.02.2019 01:05 6,1 C 61 % 1033,6 hPa 0,0 l/m 5,0 km/h O-SO 113 0 min 0,000 mm 0,0 UV-I 0 W/m -0,8 C 6,1 C 5,7 km/h 100,00 %
15.02.2019 01:04 6,1 C 61 % 1033,5 hPa 0,0 l/m 5,4 km/h O-SO 113 0 min 0,000 mm 0,0 UV-I 0 W/m -0,8 C 6,1 C 7,7 km/h 100,00 %
15.02.2019 01:03 6,1 C 61 % 1033,5 hPa 0,0 l/m 3,7 km/h O-SO 115 0 min 0,000 mm 0,0 UV-I 0 W/m -0,8 C 6,1 C 5,7 km/h 100,00 %
15.02.2019 01:02 6,1 C 61 % 1033,5 hPa 0,0 l/m 3,5 km/h O-SO 115 0 min 0,000 mm 0,0 UV-I 0 W/m -0,8 C 6,1 C 5,7 km/h 100,00 %
15.02.2019 01:01 6,1 C 61 % 1033,6 hPa 0,0 l/m 3,9 km/h O-SO 115 0 min 0,000 mm 0,0 UV-I 0 W/m -0,8 C 6,1 C 7,7 km/h 100,00 %
15.02.2019 01:00 6,1 C 61 % 1033,6 hPa 0,0 l/m 5,5 km/h O-SO 117 0 min 0,025 mm 0,0 UV-I 0 W/m -0,8 C 6,1 C 7,7 km/h 100,00 %
15.02.2019 00:59 6,1 C 61 % 1033,5 hPa 0,0 l/m 5,3 km/h O-SO 119 0 min 0,000 mm 0,0 UV-I 0 W/m -0,8 C 6,1 C 9,6 km/h 100,00 %
15.02.2019 00:58 6,1 C 61 % 1033,5 hPa 0,0 l/m 4,0 km/h O-SO 118 0 min 0,000 mm 0,0 UV-I 0 W/m -0,8 C 6,1 C 7,7 km/h 100,00 %
15.02.2019 00:57 6,1 C 61 % 1033,5 hPa 0,0 l/m 3,3 km/h O-SO 120 0 min 0,000 mm 0,0 UV-I 0 W/m -0,8 C 6,1 C 3,8 km/h 100,00 %
15.02.2019 00:56 6,1 C 61 % 1033,5 hPa 0,0 l/m 2,8 km/h O-SO 120 0 min 0,000 mm 0,0 UV-I 0 W/m -0,8 C 6,1 C 5,7 km/h 100,00 %
15.02.2019 00:55 6,2 C 61 % 1033,5 hPa 0,0 l/m 2,2 km/h O-SO 120 0 min 0,000 mm 0,0 UV-I 0 W/m -0,7 C 6,2 C 3,8 km/h 100,00 %
15.02.2019 00:54 6,2 C 61 % 1033,5 hPa 0,0 l/m 3,6 km/h O-SO 120 0 min 0,000 mm 0,0 UV-I 0 W/m -0,7 C 6,2 C 5,7 km/h 100,00 %
15.02.2019 00:53 6,1 C 61 % 1033,5 hPa 0,0 l/m 3,8 km/h O-SO 120 0 min 0,000 mm 0,0 UV-I 0 W/m -0,8 C 6,1 C 5,7 km/h 100,00 %
15.02.2019 00:52 6,1 C 61 % 1033,5 hPa 0,0 l/m 3,7 km/h O-SO 121 0 min 0,000 mm 0,0 UV-I 0 W/m -0,8 C 6,1 C 5,7 km/h 100,00 %
15.02.2019 00:51 6,1 C 61 % 1033,5 hPa 0,0 l/m 3,3 km/h O-SO 121 0 min 0,000 mm 0,0 UV-I 0 W/m -0,8 C 6,1 C 5,7 km/h 100,00 %
15.02.2019 00:50 6,1 C 62 % 1033,5 hPa 0,0 l/m 3,5 km/h O-SO 120 0 min 0,000 mm 0,0 UV-I 0 W/m -0,6 C 6,1 C 5,7 km/h 100,00 %
15.02.2019 00:49 6,1 C 62 % 1033,5 hPa 0,0 l/m 3,1 km/h O-SO 120 0 min 0,000 mm 0,0 UV-I 0 W/m -0,6 C 6,1 C 5,7 km/h 100,00 %
15.02.2019 00:48 6,1 C 62 % 1033,5 hPa 0,0 l/m 3,3 km/h O-SO 120 0 min 0,000 mm 0,0 UV-I 0 W/m -0,6 C 6,1 C 3,8 km/h 100,00 %
15.02.2019 00:47 6,1 C 62 % 1033,5 hPa 0,0 l/m 4,6 km/h O-SO 120 0 min 0,000 mm 0,0 UV-I 0 W/m -0,6 C 6,1 C 7,7 km/h 100,00 %
15.02.2019 00:46 6,1 C 62 % 1033,5 hPa 0,0 l/m 4,0 km/h O-SO 122 0 min 0,000 mm 0,0 UV-I 0 W/m -0,6 C 6,1 C 5,7 km/h 100,00 %
15.02.2019 00:45 6,1 C 62 % 1033,5 hPa 0,0 l/m 4,1 km/h O-SO 122 0 min 0,000 mm 0,0 UV-I 0 W/m -0,6 C 6,1 C 7,7 km/h 100,00 %
15.02.2019 00:44 6,1 C 62 % 1033,4 hPa 0,0 l/m 3,9 km/h O-SO 121 0 min 0,000 mm 0,0 UV-I 0 W/m -0,6 C 6,1 C 5,7 km/h 100,00 %
15.02.2019 00:43 6,1 C 62 % 1033,5 hPa 0,0 l/m 2,4 km/h O-SO 121 0 min 0,000 mm 0,0 UV-I 0 W/m -0,6 C 6,1 C 3,8 km/h 100,00 %
15.02.2019 00:42 6,1 C 62 % 1033,5 hPa 0,0 l/m 5,0 km/h O-SO 121 0 min 0,000 mm 0,0 UV-I 0 W/m -0,6 C 6,1 C 7,7 km/h 100,00 %
15.02.2019 00:41 6,1 C 62 % 1033,5 hPa 0,0 l/m 4,4 km/h SO 128 0 min 0,000 mm 0,0 UV-I 0 W/m -0,6 C 6,1 C 5,7 km/h 100,00 %
15.02.2019 00:40 6,1 C 62 % 1033,5 hPa 0,0 l/m 3,6 km/h SO 126 0 min 0,000 mm 0,0 UV-I 0 W/m -0,6 C 6,1 C 5,7 km/h 100,00 %
15.02.2019 00:39 6,0 C 62 % 1033,5 hPa 0,0 l/m 4,1 km/h SO 126 0 min 0,000 mm 0,0 UV-I 0 W/m -0,7 C 6,0 C 7,7 km/h 100,00 %
15.02.2019 00:38 5,9 C 63 % 1033,5 hPa 0,0 l/m 4,8 km/h SO 126 0 min 0,000 mm 0,0 UV-I 0 W/m -0,6 C 5,9 C 5,7 km/h 100,00 %
15.02.2019 00:37 5,9 C 63 % 1033,5 hPa 0,0 l/m 4,7 km/h SO 126 0 min 0,000 mm 0,0 UV-I 0 W/m -0,6 C 5,9 C 7,7 km/h 100,00 %
15.02.2019 00:36 5,9 C 63 % 1033,5 hPa 0,0 l/m 3,0 km/h SO 124 0 min 0,000 mm 0,0 UV-I 0 W/m -0,6 C 5,9 C 3,8 km/h 95,65 %
15.02.2019 00:35 5,8 C 63 % 1033,5 hPa 0,0 l/m 2,6 km/h O-SO 123 0 min 0,000 mm 0,0 UV-I 0 W/m -0,7 C 5,8 C 3,8 km/h 100,00 %
15.02.2019 00:34 5,8 C 63 % 1033,4 hPa 0,0 l/m 3,3 km/h O-SO 123 0 min 0,000 mm 0,0 UV-I 0 W/m -0,7 C 5,8 C 5,7 km/h 100,00 %
15.02.2019 00:33 5,8 C 63 % 1033,4 hPa 0,0 l/m 3,2 km/h O-SO 123 0 min 0,000 mm 0,0 UV-I 0 W/m -0,7 C 5,8 C 3,8 km/h 100,00 %
15.02.2019 00:32 5,8 C 63 % 1033,4 hPa 0,0 l/m 3,7 km/h O-SO 123 0 min 0,000 mm 0,0 UV-I 0 W/m -0,7 C 5,8 C 5,7 km/h 100,00 %
15.02.2019 00:31 5,8 C 63 % 1033,4 hPa 0,0 l/m 2,8 km/h SO 124 0 min 0,000 mm 0,0 UV-I 0 W/m -0,7 C 5,8 C 5,7 km/h 100,00 %
15.02.2019 00:30 5,8 C 63 % 1033,4 hPa 0,0 l/m 4,3 km/h O-SO 123 0 min 0,000 mm 0,0 UV-I 0 W/m -0,7 C 5,8 C 7,7 km/h 100,00 %
15.02.2019 00:29 5,8 C 63 % 1033,4 hPa 0,0 l/m 4,4 km/h SO 140 0 min 0,000 mm 0,0 UV-I 0 W/m -0,7 C 5,8 C 5,7 km/h 100,00 %
15.02.2019 00:28 5,8 C 64 % 1033,4 hPa 0,0 l/m 4,4 km/h SO 141 0 min 0,000 mm 0,0 UV-I 0 W/m -0,5 C 5,8 C 7,7 km/h 100,00 %
15.02.2019 00:27 5,8 C 64 % 1033,3 hPa 0,0 l/m 3,8 km/h SO 141 0 min 0,000 mm 0,0 UV-I 0 W/m -0,5 C 5,8 C 5,7 km/h 100,00 %
15.02.2019 00:26 5,8 C 64 % 1033,4 hPa 0,0 l/m 2,2 km/h SO 141 0 min 0,000 mm 0,0 UV-I 0 W/m -0,5 C 5,8 C 3,8 km/h 100,00 %
15.02.2019 00:25 5,8 C 64 % 1033,4 hPa 0,0 l/m 2,1 km/h SO 141 0 min 0,000 mm 0,0 UV-I 0 W/m -0,5 C 5,8 C 3,8 km/h 100,00 %
15.02.2019 00:24 5,8 C 64 % 1033,4 hPa 0,0 l/m 2,2 km/h SO 141 0 min 0,000 mm 0,0 UV-I 0 W/m -0,5 C 5,8 C 3,8 km/h 100,00 %
15.02.2019 00:23 5,8 C 64 % 1033,4 hPa 0,0 l/m 1,7 km/h SO 141 0 min 0,000 mm 0,0 UV-I 0 W/m -0,5 C 5,8 C 1,9 km/h 100,00 %
15.02.2019 00:22 5,8 C 64 % 1033,4 hPa 0,0 l/m 2,3 km/h SO 141 0 min 0,000 mm 0,0 UV-I 0 W/m -0,5 C 5,8 C 3,8 km/h 100,00 %
15.02.2019 00:21 5,8 C 64 % 1033,4 hPa 0,0 l/m 3,0 km/h SO 141 0 min 0,000 mm 0,0 UV-I 0 W/m -0,5 C 5,8 C 5,7 km/h 100,00 %
15.02.2019 00:20 5,8 C 64 % 1033,4 hPa 0,0 l/m 2,1 km/h SO 141 0 min 0,000 mm 0,0 UV-I 0 W/m -0,5 C 5,8 C 3,8 km/h 100,00 %
15.02.2019 00:19 5,8 C 64 % 1033,4 hPa 0,0 l/m 2,2 km/h SO 141 0 min 0,000 mm 0,0 UV-I 0 W/m -0,5 C 5,8 C 3,8 km/h 100,00 %
15.02.2019 00:18 5,8 C 64 % 1033,4 hPa 0,0 l/m 3,4 km/h SO 141 0 min 0,000 mm 0,0 UV-I 0 W/m -0,5 C 5,8 C 3,8 km/h 100,00 %
15.02.2019 00:17 5,8 C 64 % 1033,4 hPa 0,0 l/m 3,0 km/h SO 141 0 min 0,000 mm 0,0 UV-I 0 W/m -0,5 C 5,8 C 3,8 km/h 100,00 %
15.02.2019 00:16 5,8 C 64 % 1033,4 hPa 0,0 l/m 4,0 km/h SO 141 0 min 0,000 mm 0,0 UV-I 0 W/m -0,5 C 5,8 C 5,7 km/h 100,00 %
15.02.2019 00:15 5,8 C 64 % 1033,4 hPa 0,0 l/m 3,7 km/h SO 141 0 min 0,000 mm 0,0 UV-I 0 W/m -0,5 C 5,8 C 5,7 km/h 100,00 %
15.02.2019 00:14 5,8 C 64 % 1033,4 hPa 0,0 l/m 4,4 km/h SO 142 0 min 0,000 mm 0,0 UV-I 0 W/m -0,5 C 5,8 C 5,7 km/h 95,83 %
15.02.2019 00:13 5,8 C 64 % 1033,4 hPa 0,0 l/m 4,7 km/h SO 142 0 min 0,000 mm 0,0 UV-I 0 W/m -0,5 C 5,8 C 7,7 km/h 100,00 %
15.02.2019 00:12 5,8 C 64 % 1033,4 hPa 0,0 l/m 3,4 km/h SO 142 0 min 0,000 mm 0,0 UV-I 0 W/m -0,5 C 5,8 C 5,7 km/h 100,00 %
15.02.2019 00:11 5,8 C 64 % 1033,4 hPa 0,0 l/m 3,1 km/h SO 142 0 min 0,000 mm 0,0 UV-I 0 W/m -0,5 C 5,8 C 3,8 km/h 100,00 %
15.02.2019 00:10 5,8 C 64 % 1033,4 hPa 0,0 l/m 2,9 km/h SO 142 0 min 0,000 mm 0,0 UV-I 0 W/m -0,5 C 5,8 C 5,7 km/h 100,00 %
15.02.2019 00:09 5,8 C 64 % 1033,4 hPa 0,0 l/m 2,1 km/h SO 142 0 min 0,000 mm 0,0 UV-I 0 W/m -0,5 C 5,8 C 3,8 km/h 100,00 %
15.02.2019 00:08 5,8 C 64 % 1033,3 hPa 0,0 l/m 3,0 km/h SO 142 0 min 0,000 mm 0,0 UV-I 0 W/m -0,5 C 5,8 C 3,8 km/h 100,00 %
15.02.2019 00:07 5,8 C 64 % 1033,4 hPa 0,0 l/m 3,4 km/h SO 142 0 min 0,000 mm 0,0 UV-I 0 W/m -0,5 C 5,8 C 5,7 km/h 100,00 %
15.02.2019 00:06 5,8 C 64 % 1033,4 hPa 0,0 l/m 2,6 km/h SO 142 0 min 0,000 mm 0,0 UV-I 0 W/m -0,5 C 5,8 C 3,8 km/h 100,00 %
15.02.2019 00:05 5,8 C 64 % 1033,5 hPa 0,0 l/m 3,9 km/h SO 142 0 min 0,000 mm 0,0 UV-I 0 W/m -0,5 C 5,8 C 5,7 km/h 100,00 %
15.02.2019 00:04 5,8 C 64 % 1033,5 hPa 0,0 l/m 4,1 km/h SO 142 0 min 0,000 mm 0,0 UV-I 0 W/m -0,5 C 5,8 C 5,7 km/h 100,00 %
15.02.2019 00:03 5,8 C 64 % 1033,4 hPa 0,0 l/m 3,7 km/h SO 142 0 min 0,000 mm 0,0 UV-I 0 W/m -0,5 C 5,8 C 5,7 km/h 100,00 %
15.02.2019 00:02 5,8 C 64 % 1033,4 hPa 0,0 l/m 2,6 km/h SO 142 0 min 0,000 mm 0,0 UV-I 0 W/m -0,5 C 5,8 C 3,8 km/h 96,15 %
15.02.2019 00:01 5,8 C 64 % 1033,4 hPa 0,0 l/m 3,3 km/h SO 142 0 min 0,000 mm 0,0 UV-I 0 W/m -0,5 C 5,8 C 3,8 km/h 94,12 %
15.02.2019 00:00 5,8 C 64 % 1033,4 hPa 0,0 l/m 4,2 km/h SO 142 0 min 0,000 mm 0,0 UV-I 0 W/m -0,5 C 5,8 C 5,7 km/h 100,00 %
_ Min-Zeit 07:37 15:16 23:20 - 03:24 - - - - - - 04:51 07:37 03:24 17:45
Minimum _ 0,5 C 41 % 1026,7 hPa - 0,0 km/h - - - - - - -2,5 C 0,5 C 0,0 km/h 81,82 %
_ Max-Zeit 15:29 07:59 01:00 00:00 10:59 - - 10:16 13:01 12:06 12:51 14:38 15:29 10:06 00:00
Maximum _ 17,3 C 84 % 1033,6 hPa 0,0 l/m 14,3 km/h
SO
- - 1 min 0,279 mm 1,4 UV-I 466 W/m 4,6 C 17,3 C 21,0 km/h
O-SO
100,00 %
Durchschnitt _ 9,3 C 58 % 1030,5 hPa #0,0 l/m 3,3 km/h SO - #5:24 h #2,007 mm 1,1 UV-I 270 W/m 1,2 C 9,1 C 6,0 km/h 98,67 %